     2.11           OBSERVATION DATA    G (GPS)             RINEX VERSION / TYPE
teqc 2010Oct21 OPUS Account 20111026 21:15:13UTC            PGM / RUN BY / DATE
D 1524                                                      MARKER NAME
1208                                                        MARKER NUMBER
CSMIDDLETON NGS                                             OBSERVER / AGENCY
0220390614 TRIMBLE R7 2.32                                  REC # / TYPE / VERS
12611996 TRM41249.00 NONE                                   ANT # / TYPE
  -755375.3487 -5525367.5577  3084993.7559                  APPROX POSITION XYZ
        2.0000        0.0000        0.0000                  ANTENNA: DELTA H/E/N
     1     1                                                WAVELENGTH FACT L1/2
     5    L1    L2    C1    P1    P2                        # / TYPES OF OBSERV
    15                                                      LEAP SECONDS
  2011     8    11    18     5   30.0000000     GPS         TIME OF FIRST OBS
                                                            END OF HEADER
 11  8 11 18  5 30.0000000  0  9G11G07G08G03G13G19G23G28G24
   -649602.28557   -469856.12954  22555683.4454                   22555682.5824
   -639803.00458   -475794.42656  20621860.7584                   20621858.5314
   -803325.55958   -583760.44955  21904505.6564                   21904503.4344
     34123.79756     27251.55153  23403673.2584                   23403673.2934
    -68090.41058    -50801.20756  21223405.9614                   21223404.8954
   -177303.81258   -132142.64556  21507252.6174                   21507249.0434
     77485.45357     57702.44154  23057138.0864                   23057137.2304
   -673203.59857   -500652.48854  22922332.1254                   22922331.4924
   -623739.07457   -450014.35253  24056428.4454                   24056432.3094
 11  8 11 18  6  0.0000000  0  9G11G07G08G03G13G19G23G28G24
   -811917.21147   -596335.22744  22524795.2734                   22524794.7894
   -770247.86748   -577439.78946  20597037.8524                   20597035.8634
   -969618.39147   -713339.26645  21872861.1724                   21872858.9774
     44052.32446     34988.01643  23405562.8674                   23405562.9964
    -81359.75448    -61141.03946  21220880.9064                   21220880.2154
   -212646.52048   -159682.40246  21500527.0474                   21500523.4024
     93078.75846     69852.87544  23060105.0944                   23060104.3094
   -810500.06647   -607636.72344  22896205.3754                   22896204.5044
   -793539.75447   -582326.41443  24024116.1724                   24024120.4694
 11  8 11 18  6 30.0000000  0  9G11G07G08G03G13G19G23G28G24
   -974096.98447   -722709.00044  22493933.3054                   22493932.6804
   -900572.58248   -678991.51646  20572237.8754                   20572235.5944
  -1135981.25048   -842972.65645  21841203.4694                   21841201.4064
     54025.84846     42759.51243  23407460.7424                   23407460.7154
    -94353.02348    -71265.73046  21218408.1954                   21218407.3054
   -247632.97348   -186944.57046  21493869.4224                   21493865.5664
    108678.48446     82008.31344  23063073.9144                   23063073.7934
   -947759.97347   -714592.46144  22870086.2274                   22870084.6414
   -963490.14147   -714755.09443  23991775.2584                   23991780.1134
 11  8 11 18  7  0.0000000  0  9G11G07G08G03G13G19G23G28G24
  -1136141.91047   -848977.69944  22463097.3134                   22463096.4734
  -1030778.65248   -780450.80146  20547460.8674                   20547458.2504
  -1302415.57448   -972661.73445  21809532.4694                   21809530.3984
     64038.33646     50561.37543  23409366.7734                   23409366.6294
   -107076.30548    -81180.05146  21215987.3444                   21215986.3014
   -282268.80147   -213933.51646  21487278.6334                   21487274.8594
    124278.38746     94163.90644  23066042.9144                   23066042.1684
  -1084987.38347   -821522.87544  22843972.4304                   22843970.9884
  -1133590.66846   -847300.78943  23959405.9224                   23959410.1804
 11  8 11 18  7 30.0000000  0  9G11G07G08G03G13G19G23G28G24
  -1298045.33247   -975136.12945  22432287.9064                   22432287.1994
  -1160860.32048   -881813.14846  20522707.0314                   20522704.6724
  -1468915.71948  -1102402.11345  21777848.3204                   21777846.3404
     74091.00846     58394.54743  23411279.0944                   23411278.9924
   -119528.73848    -90883.32446  21213617.8284                   21213616.6414
   -316552.68448   -240648.22346  21480754.4694                   21480750.5474
    139879.27347    106320.22344  23069012.0234                   23069011.4534
  -1222179.37547   -928425.68044  22817865.5944                   22817863.9534
  -1303834.97747   -979958.51243  23927009.6254                   23927013.9064
 11  8 11 18  8  0.0000000  0  9G11G07G08G03G13G19G23G28G24
  -1459797.77047  -1101176.91444  22401508.1094                   22401506.8444
  -1290808.75848   -983071.67646  20497978.8054                   20497976.0314
  -1635473.75448  -1232187.57445  21746152.9304                   21746151.8594
     84187.54346     66261.89143  23413200.7584                   23413200.8444
   -131706.61748   -100372.65246  21211300.4144                   21211299.0744
   -350480.28148   -267085.31246  21474298.3134                   21474294.2034
    155485.07846    118480.41044  23071981.1174                   23071981.6764
  -1359330.16847  -1035296.40245  22791766.6414                   22791764.8284
  -1474213.45347  -1112720.77044  23894587.9694                   23894591.8914
 11  8 11 18  8 30.0000000  0  9G11G07G08G03G13G19G23G28G24
    -45995.01647       487.64845  22670545.4844                   22670544.4924
    154777.41048    143359.09446  20773064.8984                   20773062.3594
   -226686.69948   -134431.42645  22014236.5864                   22014234.7114
   1669720.28546   1301741.86343  23714916.8914                   23714917.7114
   1431783.89847   1117931.57046  21508822.9614                   21508821.5164
   1191342.79748    934335.26646  21767697.4844                   21767693.1524
   1746487.86746   1358222.63344  23374739.8594                   23374739.6644
     78959.77347     85449.03945  23065464.1564                   23065462.8364
    -69322.01247    -17999.94943  24161929.0864                   24161933.8014
 11  8 11 18  9  0.0000000  0  9G11G07G08G03G13G19G23G28G24
   -207504.89547   -125364.13345  22639811.3054                   22639810.0554
     25031.64148     42258.49246  20748374.8754                   20748372.1764
   -393423.95348   -264356.56245  21982507.2814                   21982506.0864
   1679827.53146   1309617.54343  23716841.0784                   23716841.6644
   1420079.05148   1108810.82845  21506595.1484                   21506594.1374
   1158052.06647    908394.41046  21761362.2664                   21761358.3754
   1762025.53546   1370329.69144  23377695.8054                   23377696.2854
    -58179.24647    -21412.50845  23039367.5554                   23039366.6804
   -240028.75847   -151018.02343  24129444.9064                   24129448.5164
 11  8 11 18  9 30.0000000  0  9G11G07G08G03G13G19G23G28G24
   -368903.81647   -251129.44944  22609097.3674                   22609096.4264
   -104624.59448    -58772.33646  20723701.9304                   20723699.7624
   -560262.60548   -394360.68745  21950759.3284                   21950757.5514
   1689921.64846   1317482.98043  23718761.7034                   23718761.8834
   1408591.76648   1099859.62145  21504409.6174                   21504408.3524
   1125061.43448    882687.40646  21755084.3914                   21755080.8444
   1777510.09847   1382395.38344  23380643.7274                   23380642.4264
   -195328.35547   -128281.88745  23013268.5474                   23013267.4534
   -410910.00447   -284172.07043  24096927.3834                   24096930.5354
 11  8 11 18 10  0.0000000  0  9G11G07G08G03G13G19G23G28G24
   -530205.37547   -376818.90244  22578403.3834                   22578401.6994
   -234206.27748   -159745.07046  20699043.3204                   20699041.0554
   -727217.71948   -524455.55945  21918988.0004                   21918987.2194
   1699983.12546   1325323.02743  23720676.5704                   23720676.3134
   1397303.13347   1091063.21546  21502261.2194                   21502260.5274
   1092351.73448    857199.29346  21748859.7194                   21748856.4064
   1792922.04347   1394404.49244  23383576.5234                   23383576.0704
   -332505.27047   -235172.95344  22987164.3524                   22987163.1844
   -581979.63347   -417472.89843  24064373.7734                   24064377.0354
 11  8 11 18 10 30.0000000  0  9G11G07G08G03G13G19G23G28G24
   -691414.32047   -502436.21145  22547726.1414                   22547724.9344
   -363719.00048   -260664.10246  20674397.9064                   20674395.9494
   -894295.18448   -654645.77745  21887194.8594                   21887192.9654
   1710001.13746   1333129.21143  23722583.0234                   23722583.2194
   1386202.64847   1082413.41846  21500149.2424                   21500147.9224
   1059913.01648    831922.32446  21742686.8054                   21742683.1954
   1808250.81647   1406348.77744  23386493.5474                   23386492.7854
   -469718.04347   -342091.95744  22961053.8204                   22961051.8874
   -753242.24247   -550924.12943  24031783.1954                   24031787.0944
 11  8 11 18 11  0.0000000  0  9G11G07G08G03G13G19G23G28G24
   -852537.41047   -627986.60545  22517064.7034                   22517064.1024
   -493170.53548   -361535.44146  20649764.4534                   20649761.9024
  -1061502.53948   -784937.21545  21855375.8984                   21855374.8444
   1719963.33246   1340891.89843  23724478.7344                   23724478.6764
   1375277.47348   1073900.21545  21498070.3134                   21498068.8554
   1027733.03948    806846.98846  21736563.4844                   21736559.7934
   1823483.89547   1418218.50444  23389392.4454                   23389392.2504
   -606977.69147   -449047.48444  22934934.4224                   22934932.4494
   -924704.35547   -684530.79744  23999155.2894                   23999159.2544
 11  8 11 18 11 30.0000000  0  9G11G07G08G03G13G19G23G28G24
  -1013576.33247   -753471.42245  22486420.3364                   22486419.3554
   -622563.75048   -462361.32446  20625141.4064                   20625138.9024
  -1228843.22348   -915332.52745  21823531.9774                   21823531.1334
   1729862.88746   1348605.76243  23726362.7894                   23726363.2424
   1364520.51248   1065518.09445  21496023.2504                   21496022.1884
    995804.68048    781967.70746  21730487.1644                   21730483.9844
   1838613.52047   1430007.60544  23392271.4614                   23392271.2114
   -744289.30547   -556043.50845  22908804.5394                   22908802.9964
  -1096368.07047   -818294.53944  23966487.9384                   23966492.1484
 11  8 11 18 12  0.0000000  0  9G11G07G08G03G13G19G23G28G24
  -1174536.95747   -878895.23045  22455790.4774                   22455789.5944
   -751905.69548   -563147.25846  20600528.5864                   20600526.0984
  -1396324.28548  -1045837.23445  21791661.8834                   21791660.2974
   1739687.88346   1356261.53143  23728232.5784                   23728232.4964
   1353919.88348   1057257.78945  21494006.4384                   21494004.9574
    964116.71948    757275.74246  21724457.5784                   21724454.3364
   1853627.97747   1441706.99244  23395129.1954                   23395128.8014
   -881662.70347   -663087.69145  22882663.4694                   22882662.3164
  -1268239.22747   -952219.91844  23933781.9224                   23933785.8054
 11  8 11 18 12 30.0000000  0  9G11G07G08G03G13G19G23G28G24
  -1335419.84047  -1004258.48445  22425175.4304                   22425174.2074
   -881197.75448   -663894.29746  20575925.0784                   20575923.2034
  -1563947.05548  -1176452.39145  21759764.2344                   21759762.7704
   1749432.17646   1363854.39843  23730086.3594                   23730087.0124
   1343469.46947   1049114.53945  21492017.6884                   21492016.4574
    932663.37948    732766.60546  21718472.4534                   21718469.0664
   1868521.32447   1453311.98844  23397963.1644                   23397962.7584
  -1019102.09447   -770183.27345  22856509.8444                   22856509.0354
  -1440318.09447  -1086307.16844  23901036.7584                   23901040.8674
 11  8 11 18 13  0.0000000  0  9G11G07G08G03G13G19G23G28G24
  -1496226.98047  -1129562.71545  22394575.3674                   22394573.5944
  -1010442.79748   -764604.71946  20551330.8834                   20551328.2194
  -1731714.34848  -1307180.14545  21727839.0634                   21727837.4184
   1759088.25046   1371378.56644  23731924.4694                   23731924.6334
   1333162.05548   1041082.70745  21490056.0164                   21490055.2544
    901437.38348    708434.59846  21712530.4144                   21712526.8754
   1883285.41847   1464816.25444  23400772.9304                   23400772.3484
  -1156612.88347   -877334.51645  22830341.6484                   22830340.6454
  -1612606.47347  -1220557.68444  23868250.9454                   23868254.9774
 11  8 11 18 13 30.0000000  0  9G11G07G08G03G13G19G23G28G24
  -1656960.84447  -1254809.86744  22363988.0084                   22363986.8284
  -1139644.64148   -865281.48846  20526744.2504                   20526741.9534
  -1899630.13748  -1438023.60545  21695885.8134                   21695884.0204
   1768647.89146   1378827.55943  23733743.6094                   23733743.6254
   1322988.98047   1033155.56345  21488120.5634                   21488119.7234
    870430.25848    684273.14846  21706630.2274                   21706626.5944
   1897911.88747   1476213.28144  23403555.8914                   23403556.1524
  -1294201.85547   -984546.66845  22804159.7194                   22804157.8954
  -1785107.20347  -1354973.71144  23835424.5394                   23835428.7814
 11  8 11 18 14  0.0000000  0  9G11G07G08G03G13G19G23G28G24
  -1817623.86347  -1380001.81245  22333414.8834                   22333414.0084
  -1268806.91848   -965927.43046  20502165.4924                   20502163.1724
  -2067697.98848  -1568985.56245  21663903.6724                   21663901.6334
   1778102.90246   1386195.02743  23735542.6884                   23735543.1484
   1312942.17248   1025326.79745  21486208.3984                   21486207.3914
    839634.27348    660276.21946  21700769.7274                   21700765.9414
   1912392.28946   1487496.50044  23406310.7034                   23406311.6054
  -1431875.44547  -1091824.74245  22777961.0944                   22777959.4884
  -1957822.62946  -1489557.00043  23802558.0004                   23802562.3484
 11  8 11 18 14 30.0000000  0  9G11G07G08G03G13G19G23G28G24
  -1978213.31647  -1505136.43045  22302855.9534                   22302854.5474
  -1397927.67248  -1066541.00846  20477594.4384                   20477592.3634
  -2235915.67648  -1700064.28545  21631892.6094                   21631890.7344
   1787450.51246   1393478.81644  23737321.3134                   23737321.7854
   1303018.48048   1017593.97345  21484320.0944                   21484319.1294
    809047.13348    636442.03946  21694949.0864                   21694945.3284
   1926723.71546   1498663.62144  23409039.0164                   23409039.3794
  -1569634.00447  -1199169.02745  22751746.4844                   22751744.5164
  -2130749.85246  -1624305.35943  23769650.7894                   23769654.6884
 11  8 11 18 15  0.0000000  0  9G11G07G08G03G13G19G23G28G24
  -2138731.83647  -1630215.77345  22272310.3754                   22272309.0394
  -1527010.67248  -1167125.16446  20453031.1174                   20453028.6764
  -2404287.23448  -1831262.90245  21599852.6094                   21599850.8914
   1796682.80546   1400672.71543  23739078.6334                   23739078.8714
   1293209.74248   1009950.71945  21482453.3984                   21482452.7034
    778660.62548    612764.18846  21689166.5234                   21689163.4964
   1940898.01646   1509708.28944  23411736.7034                   23411736.6024
  -1707483.45347  -1306584.15645  22725514.4774                   22725513.6604
  -2303891.44946  -1759220.73043  23736702.9144                   23736707.1644
 11  8 11 18 15 30.0000000  0  9G11G07G08G03G13G19G23G28G24
  -2299175.70747  -1755236.96545  22241778.8204                   22241777.1804
  -1656053.29748  -1267677.87146  20428475.1644                   20428472.5904
  -2572810.17648  -1962579.46145  21567784.1254                   21567782.0944
   1805797.69546   1407775.16843  23740812.7974                   23740813.8324
   1283513.77048   1002395.32445  21480608.5784                   21480607.8364
    748472.93448    589241.27346  21683422.3594                   21683418.9734
   1954912.62947   1520628.52744  23414403.6414                   23414403.4924
  -1845425.11347  -1414071.12545  22699265.1334                   22699264.2384
  -2477243.62946  -1894300.21143  23703715.5084                   23703719.0394
 11  8 11 18 16  0.0000000  0  9G11G07G08G03G13G19G23G28G24
  -2459544.35947  -1880199.55145  22211261.8984                   22211260.4454
  -1785055.48048  -1368199.06246  20403926.7894                   20403924.5474
  -2741484.34048  -2094013.87545  21535686.3364                   21535684.3714
   1814790.49646   1414782.47743  23742524.4844                   23742525.3794
   1273925.30148    994923.71145  21478784.2894                   21478783.4924
    718479.38748    565869.64546  21677714.6644                   21677710.9454
   1968762.85247   1531420.66444  23417039.8674                   23417039.3914
  -1983461.78547  -1521632.13345  22672997.7424                   22672996.7114
  -2650805.55946  -2029543.09443  23670686.5634                   23670690.6484
 11  8 11 18 16 30.0000000  0  9G11G07G08G03G13G19G23G28G24
  -1044409.96547   -777497.41845  22480552.9224                   22480551.7544
   -338591.85248   -241084.55546  20679179.4844                   20679177.4344
  -1334883.21548   -997961.05145  21803353.3364                   21803351.9024
   3399077.61746   2649291.80543  24044004.2814                   24044004.4224
   2839861.89148   2215133.94945  21776772.0084                   21776770.7584
   2264097.65648   1770247.49646  21971836.0474                   21971832.7274
   3557864.73047   2769681.64844  23719435.6954                   23719435.3714
   -546169.69147   -401664.23045  22946505.3594                   22946503.6914
  -1249149.14146   -937343.15243  23937413.3674                   23937417.3714
 11  8 11 18 17  0.0000000  0  9G11G07G08G03G13G19G23G28G24
  -1204622.23847   -902338.16045  22450065.4064                   22450064.6604
   -467511.49248   -341541.41846  20654647.1254                   20654644.6024
  -1503857.64848  -1129629.43746  21771198.7274                   21771197.1684
   3407814.66046   2656099.83243  24045667.0784                   24045667.2114
   2830477.62948   2207821.44145  21774986.5004                   21774985.3554
   2234480.93448   1747169.50446  21966200.0394                   21966196.4964
   3571373.89846   2780208.01643  23722006.2114                   23722006.7384
   -684401.02747   -509376.90245  22920200.5554                   22920198.8524
  -1423124.85246  -1072908.46943  23904306.3674                   23904310.5084
 11  8 11 18 17 30.0000000  0  9G11G07G08G03G13G19G23G28G24
  -1364753.57447  -1027115.82845  22419593.7504                   22419592.2734
   -596388.05148   -441964.71946  20630122.6094                   20630119.9384
  -1672980.96148  -1261413.82845  21739015.4614                   21739013.6844
   3416418.43846   2662804.03143  24047303.4614                   24047304.2934
   2821189.76248   2200584.07045  21773218.8054                   21773217.9064
   2205047.71548   1724234.50446  21960599.4614                   21960595.6994
   3584707.13746   2790597.32043  23724543.7974                   23724544.5004
   -822732.69547   -617167.75845  22893876.8914                   22893875.0044
  -1597304.35946  -1208632.60543  23871161.3054                   23871165.4224
 11  8 11 18 18  0.0000000  0  9G11G07G08G03G13G19G23G28G24
  -1524799.01247  -1151826.56245  22389137.8754                   22389136.6884
   -725217.65248   -542351.42646  20605607.1254                   20605604.4574
  -1842248.99648  -1393310.98845  21706804.8364                   21706803.4144
   3424888.57046   2669404.05943  24048916.0234                   24048916.3484
   2811997.39148   2193421.09845  21771469.7034                   21771468.8674
   2175797.66048   1701442.24246  21955033.5084                   21955029.6254
   3597863.55946   2800848.82044  23727048.0704                   23727047.9614
   -961163.16447   -725035.60245  22867534.6564                   22867532.5354
  -1771682.40646  -1344511.46543  23837978.9384                   23837982.0704
 11  8 11 18 18 30.0000000  0  9G11G07G08G03G13G19G23G28G24
  -1684756.69947  -1276468.90245  22358698.7424                   22358697.8594
   -853999.85948   -642701.20346  20581100.8984                   20581098.1524
  -2011660.39548  -1525319.86346  21674567.3204                   21674565.4144
   3433221.31646   2675897.02743  24050502.2814                   24050502.0704
   2802896.48848   2186329.40245  21769737.6724                   21769737.1914
   2146726.77348   1678789.58646  21949501.3594                   21949497.7074
   3610839.01247   2810959.31643  23729516.9924                   23729517.3364
  -1099694.55548   -832982.09445  22841172.7814                   22841171.0554
  -1946257.18447  -1480543.60243  23804758.0314                   23804761.2114
 11  8 11 18 19  0.0000000  0  9G11G07G08G03G13G19G23G28G24
  -1844620.87547  -1401038.37945  22328277.7664                   22328276.4694
   -982729.63748   -743010.12546  20556604.8834                   20556602.1174
  -2181211.20348  -1657437.36346  21642302.5704                   21642301.0204
   3441416.78546   2682283.06643  24052061.4144                   24052061.3794
   2793886.91848   2179308.86745  21768023.2974                   21768022.5514
   2117835.01248   1656276.51245  21944003.4924                   21943999.6914
   3623633.22746   2820928.59043  23731951.7504                   23731952.1764
  -1238324.96547   -941005.74645  22814792.5704                   22814790.7704
  -2121022.92247  -1616724.51643  23771501.3984                   23771504.3714
 11  8 11 18 19 30.0000000  0  9G11G07G08G03G13G19G23G28G24
  -2004391.43047  -1525534.89545  22297874.2584                   22297873.0124
  -1111407.77048   -843278.80146  20532117.6954                   20532115.0704
  -2350901.65248  -1789663.66846  21610011.5164                   21610010.2504
   3449469.75846   2688558.05943  24053594.3204                   24053594.3164
   2784963.39148   2172355.39145  21766325.4224                   21766324.8834
   2089117.28948   1633899.06345  21938538.5704                   21938535.4224
   3636241.05947   2830752.61743  23734351.8284                   23734351.9884
  -1377058.03147  -1049109.39145  22788392.3674                   22788390.5474
  -2295979.09447  -1753053.84843  23738208.4454                   23738209.5944
 11  8 11 18 20  0.0000000  0  9G11G07G08G03G13G19G23G28G24
  -2164064.32447  -1649955.31245  22267489.1724                   22267488.6804
  -1240031.30148   -943504.93746  20507641.6174                   20507638.5164
  -2520728.39148  -1921996.17646  21577694.4064                   21577693.4104
   3457379.45346   2694721.43843  24055099.4844                   24055099.1804
   2776124.32847   2165467.72345  21764643.9064                   21764642.5704
   2060572.30948   1611656.19946  21933106.2664                   21933102.8244
   3648661.14546   2840430.35943  23736715.1254                   23736715.7814
  -1515893.16047  -1157292.57445  22761972.8204                   22761971.4574
  -2471121.46947  -1889528.29343  23704879.4694                   23704881.9184
 11  8 11 18 20 30.0000000  0  9G11G07G08G03G13G19G23G28G24
  -2323635.41047  -1774296.38345  22237124.1174                   22237123.2154
  -1368597.39548  -1043686.31246  20483176.3594                   20483173.8324
  -2690688.32448  -2054432.48446  21545352.2114                   21545350.8984
   3465144.06346   2700771.67643  24056576.4384                   24056576.7894
   2767367.82447   2158644.37945  21762977.2584                   21762976.0634
   2032198.82448   1589546.98845  21927707.4224                   21927703.6724
   3660891.86347   2849960.57043  23739042.7664                   23739042.3524
  -1654829.88747  -1265554.91445  22735534.3364                   22735532.6094
  -2646445.63347  -2026144.33643  23671516.7974                   23671518.3014
 11  8 11 18 21  0.0000000  0  9G11G07G08G03G13G19G23G28G24
  -2483101.37147  -1898555.55545  22206778.7344                   22206777.3554
  -1497102.96948  -1143820.54346  20458722.5004                   20458719.8324
  -2860778.80148  -2186970.50046  21512985.0314                   21512983.4884
   3472761.59846   2706707.31643  24058026.4384                   24058026.7154
   2758691.45747   2151883.49245  21761326.2424                   21761325.7194
   2003994.77048   1567569.78945  21922340.4774                   21922336.2274
   3672930.64846   2859341.19143  23741333.4144                   23741334.1994
  -1793868.53547  -1373896.68745  22709075.7114                   22709074.2974
  -2821948.14147  -2162899.37143  23638118.8594                   23638120.8284
 11  8 11 18 21 30.0000000  0  9G11G07G08G03G13G19G23G28G24
  -2642457.60547  -2022729.19145  22176454.1484                   22176453.2934
  -1625544.75048  -1243905.04746  20434280.7194                   20434278.2154
  -3030996.11748  -2319607.37146  21480593.7894                   21480592.0744
   3480231.37146   2712527.86343  24059447.7114                   24059448.0124
   2750094.44547   2145184.41845  21759690.2814                   21759689.5944
   1975959.14148   1545723.83646  21917005.0474                   21917001.7664
   3684776.41446   2868571.39143  23743588.3754                   23743588.5314
  -1933008.09847  -1482317.06645  22682598.5314                   22682596.4144
  -2997624.02047  -2299789.50443  23604689.1414                   23604691.1914
 11  8 11 18 22  0.0000000  0  9G11G07G08G03G13G19G23G28G24
  -2801699.33647  -2146813.60245  22146151.4064                   22146150.2114
  -1753919.01248  -1343936.94146  20409851.9844                   20409849.3754
  -3201336.38348  -2452340.04346  21448179.2344                   21448177.3594
   3487552.50046   2718232.57843  24060840.8834                   24060841.6764
   2741575.32848   2138546.04745  21758070.0084                   21758069.0164
   1948091.01248   1524008.37945  21911702.2584                   21911698.9614
   3696428.05946   2877650.29343  23745805.9304                   23745806.4574
  -2072247.80947  -1590815.50445  22656101.3984                   22656099.9964
  -3173468.56247  -2436811.05143  23571226.7194                   23571229.3834
 11  8 11 18 22 30.0000000  0  9G11G07G08G03G13G19G23G28G24
  -2960826.35947  -2270808.62945  22115870.2114                   22115868.6134
  -1882226.27348  -1443916.62546  20385436.0474                   20385433.2424
  -3371800.12548  -2585168.92246  21415740.7584                   21415739.8484
   3494720.19145   2723817.67243  24062205.2584                   24062205.1764
   2733128.89548   2131964.30545  21756462.2424                   21756461.4384
   1920385.37548   1502419.54345  21906430.1644                   21906426.3524
   3707880.69146   2886574.14543  23747984.7734                   23747985.8244
  -2211591.08647  -1699394.64845  22629585.6884                   22629583.5984
  -3349481.23047  -2573963.64543  23537732.4304                   23537735.3244
 11  8 11 18 23  0.0000000  0  9G11G07G08G03G13G19G23G28G24
  -3119835.46147  -2394711.75045  22085611.8834                   22085610.7504
  -2010464.36748  -1543842.42646  20361032.7664                   20361030.5234
  -3542384.94548  -2718092.15246  21383279.6414                   21383277.7774
   3501732.20346   2729281.51643  24063538.9224                   24063539.7504
   2724752.89548   2125437.44945  21754868.2194                   21754867.2034
   1892839.91848   1480955.52345  21901187.9304                   21901184.1764
   3719131.69946   2895340.86743  23750126.0944                   23750127.5864
  -2351038.13747  -1808054.66045  22603049.8054                   22603047.3484
  -3525658.41047  -2711244.39844  23504206.7814                   23504209.6954
 11  8 11 18 23 30.0000000  0  8G11G07G08G13G19G23G28G24
  -3278725.20347  -2518521.86745  22055376.2424                   22055375.1844
  -2138632.38348  -1643713.60546  20336643.3054                   20336640.6054
  -3713089.82848  -2851108.94546  21350795.8914                   21350793.9144
   2716442.78547   2118961.93845  21753286.8674                   21753286.0984
   1865450.68448   1459613.21945  21895976.0394                   21895972.2464
   3730177.08646   2903947.39843  23752228.1024                   23752229.5984
  -2490591.19947  -1916797.27045  22576493.9844                   22576492.0394
  -3701998.38346  -2848651.99643  23470650.1954                   23470653.6024
 11  8 11 18 24  0.0000000  0  8G11G07G08G13G19G23G28G24
  -3437487.21147  -2642232.42645  22025164.7974                   22025163.1564
  -2266723.65648  -1743525.00046  20312268.2974                   20312265.8524
  -3883907.39548  -2984213.51246  21318290.1334                   21318289.0234
   2708200.84848   2112539.55545  21751718.7344                   21751718.0944
   1838220.21948   1438394.63745  21890794.4924                   21890790.2504
   3741018.95346   2912395.30543  23754291.5704                   23754292.7154
  -2630245.92647  -2025619.12945  22549918.3204                   22549916.2544
  -3878493.02346  -2986180.11744  23437064.1564                   23437067.8874
 11  8 11 18 24 30.0000000  0  8G11G07G08G13G19G23G28G24
  -2020686.25047  -1538231.58645  22294772.8364                   22294771.7504
   -819303.93448   -615665.47746  20587703.1024                   20587700.4924
  -2479402.28548  -1889793.94546  21585558.4774                   21585556.8674
   4275452.03548   3333774.15245  22049956.9384                   22049956.3324
   3386574.39548   2644904.33645  22185436.7894                   22185432.7034
   5327082.06647   4148288.35944  24056109.3674                   24056110.5474
  -1194570.76647   -906911.17645  22823118.1254                   22823116.3014
  -2479705.30946  -1896215.47344  23703243.9924                   23703247.8404
 11  8 11 18 25  0.0000000  0  8G11G07G08G13G19G23G28G24
  -2179168.32048  -1661724.02045  22264615.1724                   22264613.4964
   -947218.62148   -715339.27046  20563361.6484                   20563359.1054
  -2650422.01648  -2023056.05146  21553014.7504                   21553013.0234
   4267354.70348   3327464.45345  22048415.9064                   22048415.1294
   3359670.31648   2623940.07845  22180316.7584                   22180313.1724
   5337525.94946   4156426.11344  24058097.3284                   24058098.4964
  -1334414.25447  -1015880.10545  22796506.7344                   22796505.0204
  -2656482.29746  -2033963.64543  23669604.8364                   23669607.9414
 11  8 11 18 25 30.0000000  0  8G11G07G08G13G19G23G28G24
  -2337498.03147  -1785097.72745  22234485.4694                   22234484.3444
  -1075034.08648   -814935.73846  20539039.5784                   20539036.9304
  -2821531.75448  -2156388.32046  21520453.6724                   21520451.7384
   4259333.48848   3321214.05145  22046889.4144                   22046888.9694
   3332933.84048   2603106.42245  22175228.8594                   22175225.2584
   5347774.84446   4164411.97344  24060048.3914                   24060049.1994
  -1474345.45747  -1124917.37145  22769878.2664                   22769876.4534
  -2833387.68046  -2171811.84844  23635940.5314                   23635943.9414
 11  8 11 18 26  0.0000000  0  8G11G07G08G13G19G23G28G24
  -2495668.98448  -1908347.71145  22204386.9534                   22204384.8284
  -1202744.77048   -914450.56246  20514736.7504                   20514734.2624
  -2992725.61748  -2289786.11746  21487876.2034                   21487874.3134
   4251389.16847   3315023.57445  22045377.8984                   22045377.3404
   3306366.12147   2582404.25445  22170173.6094                   22170170.0594
   5357829.57046   4172246.54344  24061961.4224                   24061963.0434
  -1614361.28947  -1234020.57045  22743234.3754                   22743232.5474
  -3010414.85946  -2309754.96943  23602253.2114                   23602256.7624
 11  8 11 18 26 30.0000000  0  8G11G07G08G13G19G23G28G24
  -2653676.87948  -2031470.66445  22174318.3364                   22174317.4774
  -1330347.46548  -1013881.24246  20490454.7974                   20490452.1134
  -3163999.85548  -2423246.55146  21455283.8674                   21455282.4024
   4243520.39848   3308891.96545  22043880.5634                   22043879.8754
   3279965.53548   2561832.32845  22165149.6414                   22165146.1914
   5367689.02347   4179928.91844  24063837.9384                   24063839.6564
  -1754461.11347  -1343189.22345  22716574.4454                   22716572.4454
  -3187559.05147  -2447789.29344  23568544.2274                   23568547.5634
 11  8 11 18 27  0.0000000  0  8G11G07G08G13G19G23G28G24
  -2811514.65648  -2154461.03945  22144283.0234                   22144281.6454
  -1457835.26648  -1113222.38746  20466194.7114                   20466192.3364
  -3335347.62548  -2556764.28946  21422677.7034                   21422675.9844
   4235728.42648   3302820.20345  22042397.7664                   22042397.2344
   3253733.78548   2541391.96945  22160157.9064                   22160154.4734
   5377354.92247   4187460.46943  24065677.1484                   24065679.1254
  -1894641.29347  -1452420.48045  22689898.8134                   22689896.9184
  -3364812.68747  -2585908.87144  23534813.7814                   23534817.1884
 11  8 11 18 27 30.0000000  0  8G11G07G08G13G19G23G28G24
  -2969184.94948  -2277320.91445  22114279.6094                   22114278.0824
  -1585212.38748  -1212477.29346  20441955.5554                   20441952.9144
  -3506772.34448  -2690341.98846  21390056.1334                   21390054.5704
   4228005.14548   3296801.96145  22040928.3054                   22040927.7704
   3227662.93048   2521076.97345  22155196.8524                   22155193.0904
   5386818.96147   4194834.75443  24067478.6804                   24067480.4694
  -2034908.28947  -1561719.39545  22663207.1884                   22663205.3164
  -3542178.03147  -2724115.49644  23501062.4614                   23501065.3094
 11  8 11 18 28  0.0000000  0  8G11G07G08G13G19G23G28G24
  -3126680.90248  -2400044.95745  22084308.7034                   22084307.0824
  -1712472.49648  -1311641.01646  20417738.7034                   20417736.2894
  -3678267.77748  -2823974.79346  21357421.7034                   21357420.3634
   4220351.55947   3290838.03145  22039471.9454                   22039471.5434
   3201754.41847   2500888.49645  22150266.3204                   22150263.3094
   5396082.62146   4202052.86743  24069241.4774                   24069243.0664
  -2175258.58247  -1671083.20345  22636499.1564                   22636497.1644
  -3719647.67647  -2862403.42244  23467290.8914                   23467293.5434
 11  8 11 18 28 30.0000000  0  8G11G07G08G13G19G23G28G24
  -3283996.66047  -2522628.60245  22054372.6254                   22054370.9694
  -1839611.05148  -1410710.04346  20393545.3834                   20393542.8094
  -3849828.96548  -2957658.82046  21324774.7034                   21324773.3594
   4212767.38747   3284928.18445  22038029.1334                   22038028.0904
   3176008.45347   2480826.67645  22145367.4844                   22145364.2664
   5405146.00846   4209114.91443  24070966.9844                   24070968.3794
  -2315690.18747  -1780510.37545  22609776.2424                   22609773.9694
  -3897215.89547  -3000768.14543  23433500.7814                   23433503.2774
 11  8 11 18 29  0.0000000  0  8G11G07G08G13G19G23G28G24
  -3441132.38347  -2645071.95745  22024470.5004                   22024468.5434
  -1966629.00048  -1509685.07046  20369374.5944                   20369372.3444
  -4021456.68448  -3091394.68446  21292115.4924                   21292113.7274
   4205246.71547   3279067.82045  22036598.0944                   22036597.5004
   3150419.42647   2460887.12945  22140498.0554                   22140494.5554
   5414003.19947   4216016.29343  24072652.8524                   24072654.1954
  -2456206.95347  -1890003.90645  22583036.5164                   22583034.3794
  -4074882.45347  -3139209.51243  23399691.6174                   23399694.0474
 11  8 11 18 29 30.0000000  0  8G11G07G08G13G19G23G28G24
  -3598089.65647  -2767376.26245  21994602.3444                   21994600.8164
  -2093527.76248  -1608567.22746  20345226.1564                   20345223.8674
  -4193152.03148  -3225183.26646  21259442.4844                   21259441.0394
   4197783.21947   3273252.00445  22035177.4384                   22035177.1374
   3124981.00047   2441064.95345  22135657.0554                   22135653.9774
   5422648.28546   4222752.39443  24074297.5164                   24074299.1954
  -2596813.28947  -1999567.24645  22556280.0474                   22556278.0474
  -4252647.80947  -3277727.83643  23365863.7194                   23365865.4024
 11  8 11 18 30  0.0000000  0  8G11G07G08G13G19G23G28G24
  -3754865.94547  -2889539.53945  21964768.7974                   21964767.2424
  -2220306.03148  -1707355.48446  20321101.6564                   20321099.1094
  -4364913.38748  -3359023.26246  21226757.7664                   21226756.1134
   4190373.86347   3267478.37145  22033767.5234                   22033766.6684
   3099690.17247   2421357.77345  22130844.7424                   22130841.5434
   5431078.20746   4229320.83642  24075901.7114                   24075903.9024
  -2737510.20347  -2109201.14145  22529506.2114                   22529504.2704
  -4430508.84447  -3416320.73843  23332018.1484                   23332019.3134
 11  8 11 18 30 30.0000000  0  8G11G07G08G13G19G23G28G24
  -3911461.63748  -3011562.12145  21934969.7894                   21934968.3634
  -2346965.35548  -1806051.09046  20296998.8204                   20296996.3204
  -4536741.85248  -3492915.57446  21194059.4844                   21194058.2074
   4183012.01247   3261741.76245  22032367.1414                   22032366.2424
   3074540.78547   2401760.82445  22126058.6954                   22126055.5234
   5439286.55946   4235716.60943  24077464.3054                   24077466.2274
  -2878302.03147  -2218909.02345  22502714.7034                   22502712.5204
  -4608465.90247  -3554988.46143  23298153.7584                   23298155.2344
 11  8 11 18 31  0.0000000  0  8G11G07G08G13G19G23G28G24
  -4067873.73448  -3133441.64845  21905205.2424                   21905203.8404
  -2473503.37548  -1904652.14846  20272919.2734                   20272916.6254
  -4708634.26648  -3626857.70346  21161349.9844                   21161348.1254
   4175695.35247   3256040.34845  22030974.4924                   22030974.2974
   3049530.93447   2382272.59045  22121299.4304                   22121296.2074
   5447271.65646   4241938.40243  24078985.2194                   24078986.5474
  -3019188.77047  -2328690.84445  22475904.6484                   22475902.6804
  -4786515.03947  -3693727.91443  23264271.9224                   23264273.6684
 11  8 11 18 31 30.0000000  0  8G11G07G08G13G19G23G28G24
  -4224101.37547  -3255177.43745  21875476.2194                   21875474.9384
  -2599920.25448  -2003158.81246  20248863.4224                   20248860.7664
  -4880590.50448  -3760849.57046  21128627.4924                   21128625.4964
   4168418.99647   3250370.35245  22029590.0704                   22029589.7424
   3024655.22747   2362888.88345  22116566.4064                   22116562.5274
   5455028.71146   4247982.53943  24080460.2194                   24080462.3954
  -3160173.50047  -2438549.04345  22449076.1564                   22449073.8444
  -4964655.43747  -3832538.48443  23230372.8134                   23230374.6764
 11  8 11 18 32  0.0000000  0  8G11G07G08G13G19G23G28G24
  -2804708.44147  -2149156.94545  22145577.8054                   22145575.9384
  -1150781.38748   -873959.68746  20524625.0554                   20524622.6094
  -3477174.20748  -2667278.42246  21395688.5164                   21395687.2814
   5736608.20747   4472335.84845  22328006.5084                   22328006.2384
   4575340.93047   3571215.37545  22411651.6564                   22411647.9494
   7037982.90246   5481452.91443  24381686.8204                   24381689.3014
  -1725824.04347  -1320874.10245  22722023.4534                   22722021.2424
  -3567449.71947  -2743806.62543  23496252.0314                   23496254.1844
 11  8 11 18 32 30.0000000  0  8G11G07G08G13G19G23G28G24
  -2960534.78148  -2270580.05545  22115925.0234                   22115923.5314
  -1276925.38748   -972253.71546  20500620.8204                   20500618.4494
  -3649226.58248  -2801345.20346  21362948.5084                   21362946.7974
   5729428.02047   4466740.78945  22326640.3444                   22326639.6884
   4550751.53147   3552054.76245  22406972.3914                   22406968.5984
   7045300.20346   5487154.35943  24383080.1094                   24383082.1884
  -1866982.64847  -1430867.78945  22695161.9614                   22695160.0044
  -3745738.48147  -2882732.80743  23462324.5864                   23462327.1294
 11  8 11 18 33  0.0000000  0  8G11G07G08G13G19G23G28G24
  -3116154.31648  -2391842.01245  22086311.5554                   22086309.9964
  -1402928.25448  -1070437.75446  20476643.3054                   20476640.7854
  -3821321.56648  -2935445.17646  21330199.7034                   21330198.0474
   5722293.49247   4461181.29745  22325282.7664                   22325282.6844
   4526302.83247   3533003.78945  22402320.3914                   22402316.7974
   7052395.83246   5492683.10543  24384430.1804                   24384432.0944
  -2008227.24247  -1540928.46945  22668284.0314                   22668281.7974
  -3924094.51647  -3021711.39843  23428385.2504                   23428387.1604
 11  8 11 18 33 30.0000000  0  8G11G07G08G13G19G23G28G24
  -3271560.49247  -2512937.71945  22056738.7274                   22056737.0124
  -1528783.96548  -1168507.14546  20452694.0314                   20452691.5274
  -3993452.67248  -3069573.30546  21297444.2424                   21297442.7894
   5715205.77347   4455658.28545  22323934.2114                   22323933.9884
   4501996.35247   3514063.63745  22397694.4384                   22397690.8874
   7059271.18046   5498040.15643  24385739.0084                   24385741.2934
  -2149554.46547  -1651053.54345  22641390.3674                   22641388.4964
  -4102510.46146  -3160736.66443  23394433.0704                   23394435.7034
 11  8 11 18 34  0.0000000  0  8G11G07G08G13G19G23G28G24
  -3426749.22747  -2633864.00045  22027207.3364                   22027205.6604
  -1654489.07048  -1266459.16446  20428773.0004                   20428770.4224
  -4165616.06648  -3203726.58646  21264682.7034                   21264681.2304
   5708163.52747   4450170.69545  22322594.0314                   22322593.3484
   4477831.01247   3495233.44945  22393096.5474                   22393092.5394
   7065925.24646   5503224.80143  24387005.1254                   24387008.0984
  -2290963.66047  -1761242.48845  22614480.7894                   22614479.1294
  -4280981.46947  -3299804.82044  23360470.7114                   23360473.4454
 11  8 11 18 34 30.0000000  0  8G11G07G08G13G19G23G28G24
  -3581720.80947  -2754621.05545  21997717.3134                   21997716.0124
  -1780044.59048  -1364294.63346  20404880.2424                   20404877.8914
  -4337812.54348  -3337905.65646  21231914.7034                   21231912.9184
   5701160.96547   4444714.03145  22321261.4304                   22321261.0394
   4453801.40247   3476509.03145  22388524.2894                   22388519.8634
   7072352.43846   5508232.61743  24388228.4774                   24388231.0664
  -2432458.55147  -1871498.21945  22587555.4384                   22587553.3954
  -4459507.32047  -3438915.71944  23326498.0084                   23326501.0744
 11  8 11 18 35  0.0000000  0  8G11G07G08G13G19G23G28G24
  -3736470.88747  -2875205.51245  21968269.0234                   21968267.1024
  -1905447.31248  -1462011.03546  20381017.2194                   20381014.4884
  -4510038.16848  -3472107.42646  21199141.4144                   21199139.4734
   5694196.59447   4439287.13745  22319936.6174                   22319936.3984
   4429905.96547   3457889.16445  22383976.5864                   22383972.8284
   7078551.77046   5513062.91443  24389408.4844                   24389411.4414
  -2574038.25447  -1981820.03945  22560613.4924                   22560611.4884
  -4638083.40647  -3578065.80144  23292516.8754                   23292519.0704
 11  8 11 18 35 30.0000000  0  8G11G07G08G13G19G23G28G24
  -3890997.39847  -2995615.77045  21938863.5554                   21938861.6484
  -2030695.50448  -1559607.03546  20357182.9614                   20357180.4264
  -4682290.78148  -3606330.24646  21166362.5474                   21166360.2854
   5687267.63747   4433887.82845  22318618.0474                   22318617.8364
   4406141.98047   3439371.73845  22379454.4774                   22379450.7974
   7084520.28946   5517713.31643  24390545.4454                   24390547.2934
  -2715703.95347  -2092208.85545  22533655.4924                   22533652.9344
  -4816706.76247  -3717252.71144  23258525.3594                   23258527.9924
 11  8 11 18 36  0.0000000  0  8G11G07G08G13G19G23G28G24
  -4045296.07848  -3115848.48445  21909502.0004                   21909500.2424
  -2155785.66048  -1657079.88346  20333379.0474                   20333376.8134
  -4854566.44148  -3740571.00846  21133579.6414                   21133577.8634
   5680372.24247   4428514.66845  22317306.1564                   22317305.9574
   4382508.18447   3420955.76245  22374956.5394                   22374953.6414
   7090257.04346   5522183.14543  24391635.9064                   24391639.8914
  -2857454.62547  -2202663.88745  22506680.8204                   22506678.6294
  -4995372.67647  -3856472.82444  23224526.5784                   23224528.9614
 11  8 11 18 36 30.0000000  0  8G11G07G08G13G19G23G28G24
  -4199365.56647  -3235902.61745  21880183.3284                   21880181.4964
  -2280717.22748  -1754429.16046  20309605.5634                   20309603.1484
  -5026863.90648  -3874828.76246  21100792.3444                   21100790.6764
   5673506.45747   4423164.58644  22315999.6094                   22315999.1134
   4359000.63347   3402638.14845  22370483.5554                   22370480.1484
   7095758.36746   5526469.53943  24392683.0164                   24392686.7734
  -2999292.42647  -2313186.82045  22479690.2114                   22479687.9734
  -5174078.76647  -3995724.23444  23190519.9774                   23190521.4384
 11  8 11 18 37  0.0000000  0  7G11G07G08G13G19G28G24
  -4353197.56647  -3355771.68445  21850910.2894                   21850908.4454
  -2405482.91048  -1851649.18046  20285863.5634                   20285861.0704
  -5199174.99648  -4009097.13746  21068002.8594                   21068001.1844
   5666672.93447   4417839.65645  22314699.6484                   22314698.8984
   4335622.42647   3384421.33245  22366035.2344                   22366031.4344
  -3141212.28547  -2423773.68045  22452683.8134                   22452681.6414
  -5352816.26247  -4135000.09844  23156506.8444                   23156509.4884
 11  8 11 18 37 30.0000000  0  7G11G07G08G13G19G28G24
  -4506795.39148  -3475458.27745  21821681.3284                   21821679.5044
  -2530086.26248  -1948742.71146  20262152.0474                   20262149.6524
  -5371503.02348  -4143378.70346  21035209.8444                   21035207.9574
   5659862.60547   4412532.77344  22313404.1174                   22313403.2114
   4312364.93447   3366298.57845  22361609.2504                   22361606.4104
  -3283220.89147  -2534429.70745  22425660.2034                   22425658.2034
  -5531587.88747  -4274302.60244  23122488.5474                   23122490.5824
 11  8 11 18 38  0.0000000  0  7G11G07G08G13G19G28G24
  -4660150.96547  -3594956.10945  21792498.2274                   21792496.6994
  -2654519.96948  -2045704.05546  20238473.3834                   20238470.8524
  -5543840.05148  -4277667.28146  21002415.2274                   21002413.4184
   5653078.60547   4407246.43444  22312112.4384                   22312112.3954
   4289231.73847   3348272.68845  22357207.2974                   22357203.6024
  -3425313.50447  -2645151.20345  22398620.9534                   22398618.8594
  -5710384.70747  -4413624.73444  23088464.2114                   23088466.7074
 11  8 11 18 38 30.0000000  0  7G11G07G08G13G19G28G24
  -4813256.78147  -3714259.32045  21763363.6724                   21763361.3634
  -2778777.40648  -2142528.04347  20214827.8914                   20214825.3524
  -5716178.76648  -4411957.18746  20969620.0474                   20969618.1414
   5646322.72747   4401982.00444  22310826.8054                   22310826.5314
   4266224.56647   3330344.96945  22352829.0704                   22352825.7304
  -3567485.73047  -2755934.73845  22371566.5554                   22371564.5084
  -5889198.39547  -4552959.99244  23054437.0554                   23054439.1374
 11  8 11 18 39  0.0000000  0  7G11G07G08G13G19G28G24
  -3390686.60547  -2605763.03945  22034069.3834                   22034067.6174
  -1327433.96548  -1011611.09047  20491009.1094                   20491006.9574
  -4313092.51648  -3318643.21546  21236618.6254                   21236616.7734
   7215010.82447   5624336.23844  22609338.3674                   22609338.3554
   5818760.08647   4540112.86745  22648267.2114                   22648263.3754
  -2134314.90247  -1639178.22745  22644289.7894                   22644287.8404
  -4492601.30547  -3464702.46144  23320200.9384                   23320202.4964
 11  8 11 18 39 30.0000000  0  7G11G07G08G13G19G28G24
  -3543289.75448  -2724674.55145  22005030.2894                   22005028.3014
  -1451337.54348  -1108159.34847  20467431.3754                   20467428.5124
  -4485431.97348  -3452933.68446  21203823.6094                   21203821.7074
   7208298.29347   5619105.56344  22608061.1484                   22608061.2974
   5795992.58247   4522371.92245  22643934.3834                   22643931.0434
  -2276653.12947  -1750091.11345  22617203.9774                   22617202.2384
  -4671443.77047  -3604060.19144  23286168.1024                   23286169.8204
 11  8 11 18 40  0.0000000  0  7G11G07G08G13G19G28G24
  -3695644.32448  -2843392.36345  21976037.6174                   21976036.3874
  -1575067.48048  -1204572.28546  20443886.0554                   20443883.6954
  -4657774.09448  -3587226.23446  21171027.8284                   21171026.0204
   7201597.05947   5613883.68844  22606786.1414                   22606786.3524
   5773334.69147   4504716.39145  22639622.5084                   22639618.9804
  -2419081.53947  -1861074.27045  22590100.6414                   22590098.5904
  -4850301.70747  -3743429.99644  23252132.8284                   23252134.5664
 11  8 11 18 40 30.0000000  0  8G11G07G08G26G13G19G28G24
  -3847746.17647  -2961913.24645  21947094.0234                   21947091.8954
  -1698620.89548  -1300847.68446  20420374.5784                   20420372.0084
  -4830115.16048  -3721517.96546  21138232.4924                   21138230.2424
   7506936.01656   5896274.43053  24311221.6174                   24311221.1024
   7194904.93847   5608668.91444  22605512.9064                   22605512.8014
   5750784.99647   4487145.16845  22635331.6024                   22635328.6764
  -2561599.79747  -1972127.42645  22562980.2344                   22562978.1484
  -5029170.76247  -3882808.44543  23218094.5314                   23218096.0664
 11  8 11 18 41  0.0000000  0  8G11G07G08G26G13G19G28G24
  -3999597.11348  -3080238.60245  21918197.5234                   21918195.6094
  -1822000.08248  -1396987.32047  20396896.4454                   20396893.8754
  -5002456.86348  -3855810.18746  21105437.1094                   21105435.0204
   7307490.73846   5740862.60243  24273267.6724                   24273269.1094
   7188215.12147   5603455.93444  22604239.8984                   22604239.8204
   5728336.72347   4469652.98845  22631059.7664                   22631056.4264
  -2704212.82847  -2083254.43045  22535841.7974                   22535840.2194
  -5208051.84447  -4022196.26644  23184054.7664                   23184056.1994
 11  8 11 18 41 30.0000000  0  8G11G07G08G26G13G19G28G24
  -4151200.49247  -3198371.05145  21889348.5004                   21889346.4344
  -1945209.27748  -1492994.50046  20373450.4614                   20373447.8754
  -5174802.55548  -3990105.53146  21072640.6644                   21072639.2894
   7108209.49646   5585578.54742  24235346.9924                   24235347.0594
   7181518.84847   5598237.92644  22602965.6724                   22602965.8134
   5705980.96147   4452232.88745  22626806.0394                   22626802.3714
  -2846926.92647  -2194460.18445  22508684.1644                   22508682.4534
  -5386947.52347  -4161595.48844  23150012.3834                   23150013.6024
 11  8 11 18 42  0.0000000  0  8G11G07G08G26G13G19G28G24
  -4302556.59847  -3316310.82445  21860546.1564                   21860544.3794
  -2068248.97348  -1588869.59446  20350036.9454                   20350034.3484
  -5347152.14548  -4124403.89546  21039843.9454                   21039841.6804
   6909092.71546   5430422.61342  24197455.3914                   24197456.6414
   7174810.70747   5593010.68044  22601689.7504                   22601689.5704
   5683713.15647   4434881.32845  22622568.4614                   22622564.9884
  -2989745.25047  -2305747.15645  22481506.5634                   22481504.3014
  -5565856.89847  -4301005.37544  23115966.9774                   23115968.3914
 11  8 11 18 42 30.0000000  0  8G11G07G08G26G13G19G28G24
  -4453658.78547  -3434052.72745  21831792.4844                   21831790.6294
  -2191113.14148  -1684607.92646  20326656.5234                   20326654.2734
  -5519498.78548  -4258699.96946  21007047.3594                   21007045.0164
   6710147.71946   5275400.62542  24159597.0944                   24159597.9614
   7168091.65647   5587774.92245  22600411.0704                   22600411.2464
   5661534.80947   4417599.46945  22618348.4454                   22618344.7814
  -3132664.62547  -2417112.87145  22454309.6804                   22454307.3134
  -5744772.70347  -4440420.25844  23081920.1094                   23081921.8524
 11  8 11 18 43  0.0000000  0  8G11G07G08G26G13G19G28G24
  -4604501.76247  -3551592.65645  21803087.7344                   21803086.1414
  -2313797.22748  -1780205.92246  20303310.8364                   20303308.1134
  -5691837.50448  -4392989.85946  20974252.1174                   20974250.2934
   6511379.86746   5120516.62142  24121773.5944                   24121773.6454
   7161362.02347   5582530.91844  22599130.2424                   22599130.7584
   5639445.56647   4400387.03945  22614144.7894                   22614141.5474
  -3275683.29347  -2528555.95745  22427094.5634                   22427091.7504
  -5923689.07847  -4579835.58644  23047873.6804                   23047875.7074
 11  8 11 18 43 30.0000000  0  8G11G07G08G26G13G19G28G24
  -4755078.77747  -3668925.34045  21774434.1254                   21774431.9534
  -2436295.01648  -1875658.75446  20280000.2664                   20279997.5514
  -5864161.69948  -4527268.44146  20941459.9304                   20941457.6954
   6312796.67246   4965776.55543  24083984.3984                   24083983.8634
   7154622.97347   5577279.56644  22597848.2114                   22597848.3794
   5617447.19147   4383245.42645  22609958.6024                   22609955.2114
  -3418796.93447  -2640073.03145  22399860.8204                   22399858.4264
  -6102597.91847  -4719245.04344  23013828.5704                   23013829.5634
 11  8 11 18 44  0.0000000  0  8G11G07G08G26G13G19G28G24
  -4905380.78947  -3786043.73845  21745832.3444                   21745830.7424
  -2558598.08648  -1970959.85546  20256726.9844                   20256724.0594
  -6036461.78948  -4661528.24646  20908672.4454                   20908670.6604
   6114407.77346   4811187.86743  24046232.0704                   24046231.8204
   7147878.73847   5572024.18444  22596564.8984                   22596565.2154
   5595544.05147   4366178.01645  22605790.6804                   22605787.4184
  -3561999.90647  -2751659.72745  22372609.8914                   22372607.7774
  -6281489.56647  -4858641.06644  22979786.1724                   22979787.8954
 11  8 11 18 44 30.0000000  0  8G11G07G08G26G13G19G28G24
  -5055407.21147  -3902947.39845  21717283.6484                   21717281.5594
  -2680706.55948  -2066109.32846  20233490.1414                   20233487.9844
  -6208736.93748  -4795768.61346  20875889.6564                   20875887.1054
   5916214.48446   4656751.57443  24008516.7194                   24008517.3834
   7141124.23447   5566760.80144  22595279.8054                   22595279.7194
   5573731.20747   4349180.96145  22601639.9454                   22601636.1914
  -3705294.13747  -2863317.53545  22345342.0784                   22345339.7074
  -6460362.47747  -4998022.47344  22945747.8914                   22945749.9844
 11  8 11 18 45  0.0000000  0  8G11G07G08G26G13G19G28G24
  -5205150.88347  -4019630.73445  21688788.1414                   21688786.0984
  -2802613.36748  -2161101.65646  20210292.2584                   20210289.5354
  -6380979.14148  -4929983.32046  20843112.8134                   20843111.0124
   5718224.46946   4502473.71943  23970840.8284                   23970840.7464
   7134361.48847   5561490.98844  22593992.9454                   22593993.3164
   5552011.81347   4332256.72345  22597506.2584                   22597502.9804
  -3848676.14547  -2975043.75045  22318057.8054                   22318055.4734
  -6639208.01647  -5137382.54344  22911714.7584                   22911716.7304
 11  8 11 18 45 30.0000000  0  8G11G07G08G26G13G19G28G24
  -5354606.96947  -4136089.98845  21660347.9694                   21660345.6764
  -2924314.75448  -2255933.91846  20187132.8054                   20187130.6564
  -6553183.98848  -5064168.91046  20810343.2194                   20810341.0274
   5520443.36746   4348358.60543  23933204.6334                   23933204.6094
   7127590.45747   5556214.72344  22592703.9384                   22592704.4534
   5530385.03947   4315404.64145  22593391.4774                   22593387.8364
  -3992143.62147  -3086836.56645  22290756.7274                   22290754.2114
  -6818020.69947  -5276716.98044  22877687.3524                   22877689.3204
 11  8 11 18 46  0.0000000  0  8G11G07G08G26G13G19G28G24
  -3928346.55148  -3024718.19545  21931755.7114                   21931753.9454
  -1470383.09048  -1123000.17647  20463807.0164                   20463804.5474
  -5149921.62948  -3970717.71946  21077375.1954                   21077373.7424
   6898301.73047   5422014.53144  24195402.4384                   24195402.2464
   8696229.67647   6778530.85944  22891206.0864                   22891206.7344
   7084270.54347   5526224.46945  22889085.9064                   22889082.8874
  -2560271.30547  -1971091.87145  22563232.8834                   22563230.5634
  -5421370.00047  -4188417.61344  23143461.2274                   23143462.6724
 11  8 11 18 46 30.0000000  0  8G11G07G08G26G13G19G28G24
  -4077219.05547  -3140722.71545  21903426.0164                   21903424.2234
  -1591666.34048  -1217506.62146  20440727.5784                   20440725.0904
  -5322042.89548  -4104838.18446  21044621.7974                   21044619.4964
   6700948.08647   5268232.52044  24157847.0164                   24157847.3834
   8689434.05147   6773235.41444  22889913.0474                   22889914.1764
   7062822.89147   5509511.96945  22885004.6334                   22885001.6954
  -2703910.66047  -2083018.62545  22535899.3204                   22535896.8284
  -5600106.06647  -4327692.32444  23109448.9534                   23109450.7154
 11  8 11 18 47  0.0000000  0  8G11G07G08G26G13G19G28G24
  -4225789.94147  -3256492.19945  21875153.8054                   21875152.2774
  -1712731.64148  -1311843.23046  20417689.7504                   20417687.1334
  -5494112.04748  -4238918.05146  21011877.8284                   21011875.6454
   6503819.12147   5114625.55544  24120335.0864                   24120334.2464
   8682628.54747   6767932.28544  22888618.5164                   22888619.2584
   7041467.04747   5492870.99645  22880941.0314                   22880937.4614
  -2847630.57447  -2195008.14845  22508550.1724                   22508547.8364
  -5778792.27347  -4466928.16844  23075445.7274                   23075447.6214
 11  8 11 18 47 30.0000000  0  8G11G07G08G26G13G19G28G24
  -4374052.18747  -3372021.18745  21846940.5164                   21846938.8054
  -1833572.48848  -1406004.93446  20394694.3594                   20394691.7504
  -5666121.55548  -4372951.43446  20979145.5704                   20979142.8244
   6306922.25847   4961199.51644  24082866.2344                   24082865.8714
   8675814.66047   6762622.61744  22887321.7424                   22887322.9144
   7020205.04747   5476303.15645  22876894.5084                   22876891.7274
  -2991427.29347  -2307057.51245  22481186.6174                   22481184.6644
  -5957421.07047  -4606119.29344  23041453.8284                   23041455.6454
 11  8 11 18 48  0.0000000  0  8G11G07G08G26G13G19G28G24
  -4522010.18747  -3487313.10545  21818785.2114                   21818783.5124
  -1954193.82048  -1499995.59046  20371741.1024                   20371738.4184
  -5838075.11748  -4506941.21546  20946424.0634                   20946421.7704
   6110253.91847   4807951.50843  24045441.5084                   24045440.7934
   8668983.00847   6757299.09844  22886022.3284                   22886022.6414
   6999028.07447   5459801.56645  22872864.8134                   22872861.7074
  -3135307.51247  -2419171.94545  22453806.9064                   22453804.6524
  -6135995.54347  -4745268.08244  23007472.1094                   23007473.5004
 11  8 11 18 48 30.0000000  0  8G11G07G08G26G13G19G28G24
  -4669653.72348  -3602359.98845  21790689.7734                   21790687.5984
  -2074585.44548  -1593807.25447  20348831.1884                   20348828.3244
  -6009962.49648  -4640879.43446  20913714.5634                   20913711.9104
   5913825.03546   4654890.10943  24008061.7584                   24008062.2974
   8662138.85947   6751965.83644  22884720.0474                   22884720.8404
   6977940.92247   5443369.96945  22868851.8914                   22868848.9734
  -3279264.03147  -2531345.82445  22426412.8284                   22426410.6644
  -6314504.44947  -4884365.75444  22973503.1644                   22973504.3634
 11  8 11 18 49  0.0000000  0  8G11G07G08G26G13G19G28G24
  -4816979.67647  -3717159.40245  21762654.5314                   21762652.6484
  -2194745.25848  -1687438.26647  20325965.5784                   20325962.8524
  -6181780.25048  -4774763.37946  20881019.1414                   20881017.2074
   5717639.30346   4502018.11343  23970728.8204                   23970728.9144
   8655280.13747   6746621.23844  22883414.9304                   22883415.4654
   6956942.30547   5427007.35945  22864856.7034                   22864853.7344
  -3423296.95747  -2643579.25045  22399004.4844                   22399001.8834
  -6492943.63746  -5023409.10944  22939546.7424                   22939548.3984
 11  8 11 18 49 30.0000000  0  8G11G07G08G26G13G19G28G24
  -4963996.30547  -3831717.80945  21734677.9694                   21734676.1884
  -2314681.98448  -1780895.45346  20303142.3754                   20303139.8484
  -6353536.37148  -4908599.31646  20848334.8284                   20848332.6994
   5521689.01646   4349329.66843  23933441.0314                   23933440.7854
   8648393.29347   6741254.70744  22882104.8594                   22882104.7114
   6936019.07047   5410703.51645  22860874.7734                   22860871.2234
  -3567417.19547  -2755880.72345  22371579.1174                   22371576.8714
  -6671320.58647  -5162403.96944  22905602.5704                   22905604.4144
 11  8 11 18 50  0.0000000  0  8G11G07G08G26G13G19G28G24
  -5110696.22747  -3946029.40645  21706762.0554                   21706760.1724
  -2434388.52348  -1874173.27047  20280362.8054                   20280360.5354
  -6525222.67248  -5042380.84046  20815663.9614                   20815662.1134
   5325982.53946   4196831.19143  23896198.6414                   23896199.7544
   8641480.71947   6735868.13744  22880789.4694                   22880789.8714
   6915174.03147   5394460.59445  22856908.1174                   22856904.8444
  -3711620.06247  -2868246.57445  22344138.1174                   22344135.8364
  -6849626.40247  -5301343.41444  22871672.0234                   22871673.7384
 11  8 11 18 50 30.0000000  0  8G11G07G08G26G13G19G28G24
  -5257070.77347  -4060087.47745  21678907.8134                   21678905.8014
  -2553856.71148  -1967265.35947  20257629.0004                   20257626.1174
  -6696829.84048  -5176100.71546  20783008.2344                   20783006.3134
   5130529.12946   4044529.85242  23859005.1724                   23859006.4454
   8634546.50447   6730464.69144  22879470.1564                   22879470.6414
   6894411.05547   5378281.61745  22852956.7274                   22852954.1844
  -3855899.65647  -2980672.21145  22316682.9384                   22316680.7034
  -7027851.38747  -5440219.89144  22837757.1484                   22837758.1764
 11  8 11 18 51  0.0000000  0  8G11G07G08G26G13G19G28G24
  -5403107.97747  -4173882.67245  21651117.7734                   21651115.7894
  -2673075.05948  -2060162.76646  20234942.4144                   20234939.2734
  -6868345.77748  -5309749.49246  20750370.0474                   20750367.9844
   4935341.33646   3892435.55142  23821861.4064                   23821863.3324
   8627597.31347   6725049.59044  22878147.1724                   22878147.7034
   6873737.09847   5362172.01245  22849022.6414                   22849019.5234
  -4000247.09447  -3093150.71145  22289214.1094                   22289212.1294
  -7205982.51647  -5579023.19544  22803859.4064                   22803860.2544
 11  8 11 18 51 30.0000000  0  8G11G07G08G26G13G19G28G24
  -5548799.79747  -4287408.74645  21623393.5474                   21623391.4184
  -2792036.28148  -2152859.82447  20212304.7344                   20212302.1214
  -7039762.10548  -5443320.64846  20717750.4454                   20717748.2424
   4740427.86346   3740554.92642  23784771.3284                   23784771.6524
   8620636.04747   6719625.05944  22876822.9384                   22876823.3204
   6853155.35547   5346134.26645  22845106.6174                   22845103.1604
  -4144656.83648  -3205677.76245  22261734.0164                   22261731.6174
  -7384010.75447  -5717746.35244  22769981.8594                   22769983.0554
 11  8 11 18 52  0.0000000  0  8G11G07G08G26G13G19G28G24
  -5694139.01247  -4400660.05145  21595736.2194                   21595734.5044
  -2910733.46548  -2245351.12146  20189717.4304                   20189714.7194
  -7211070.96948  -5576808.06646  20685151.4534                   20685149.3484
   4545796.73047   3588894.39843  23747733.8914                   23747734.5784
   8613665.07847   6714192.96544  22875496.3674                   22875497.0744
   6832668.16047   5330170.18045  22841208.0864                   22841204.5004
  -4289124.49647  -3318249.95345  22234242.9144                   22234240.0004
  -7561927.71947  -5856382.82844  22736125.1724                   22736125.6644
 11  8 11 18 52 30.0000000  0  8G11G07G08G26G13G19G28G24
  -5839123.78547  -4513635.18045  21568146.8204                   21568144.7344
  -3029165.24648  -2337635.62546  20167180.4384                   20167178.0234
  -7382269.67248  -5710209.64846  20652573.4614                   20652571.2814
   4351450.18847   3437455.55143  23710751.9144                   23710751.2304
   8606681.22747   6708750.84844  22874167.1564                   22874168.4804
   6812273.03947   5314277.85545  22837327.0394                   22837323.6644
  -4433650.84447  -3430867.86345  22206740.4304                   22206737.9184
  -7739730.47347  -5994930.32044  22702290.4534                   22702291.9774
 11  8 11 18 53  0.0000000  0  8G11G07G08G26G13G19G28G24
  -4408327.64547  -3398729.07045  21840418.1484                   21840415.9304
  -1571906.01248  -1202108.95346  20444488.1334                   20444485.3204
  -5977930.11348  -4615919.06246  20919810.1644                   20919808.3054
   5732817.75847   4513845.89544  23973617.2194                   23973616.7974
  10175102.00047   7930896.72744  23172628.4614                   23172629.0124
   8367387.67647   6526055.48045  23133255.0004                   23133251.9224
  -3002812.04747  -2315928.53145  22479020.0704                   22479017.4264
  -6341989.85947  -4905781.68044  22968271.6644                   22968272.8244
 11  8 11 18 53 30.0000000  0  8G11G07G08G26G13G19G28G24
  -4552592.84047  -3511143.47345  21812964.7814                   21812962.8954
  -1689796.70348  -1293971.82847  20422054.0234                   20422051.5784
  -6148895.86348  -4749139.11746  20887276.5234                   20887274.0704
   5539054.34847   4362861.46144  23936745.0944                   23936745.3634
  10168089.35547   7925432.16444  23171293.7424                   23171294.5984
   8347173.83647   6510304.39845  23129408.7734                   23129405.1844
  -3147452.92247  -2428635.68445  22451495.4304                   22451493.4144
  -6519549.12947  -5044139.48844  22934482.6174                   22934484.0744
 11  8 11 18 54  0.0000000  0  8G11G07G08G26G13G19G28G24
  -4696494.62147  -3623274.69545  21785581.8054                   21785579.6214
  -1807414.28547  -1385621.90246  20399672.2114                   20399669.8484
  -6319740.94948  -4882265.15646  20854765.8984                   20854764.0004
   5345586.85547   4212107.60244  23899929.1804                   23899929.2544
  10161057.73847   7919952.79744  23169955.9844                   23169956.5314
   8327047.09047   6494621.19145  23125579.0634                   23125575.7854
  -3292151.70747  -2541387.95745  22423960.3984                   22423958.0124
  -6696981.77046  -5182398.60544  22900718.3134                   22900720.0514
 11  8 11 18 54 30.0000000  0  8G11G07G08G26G13G19G28G24
  -4840031.35547  -3735121.46145  21758267.5164                   21758265.3204
  -1924757.48048  -1477058.17247  20377342.4694                   20377339.9384
  -6490462.84448  -5015295.18446  20822278.4924                   20822276.8794
   5152417.81647   4061586.34844  23863170.2424                   23863171.0274
  10154004.49647   7914456.60244  23168613.8444                   23168614.7234
   8307004.58647   6479003.60945  23121764.9774                   23121761.3284
  -3436909.25447  -2654186.02045  22396413.8204                   22396411.3754
  -6874284.72747  -5320556.69944  22866979.2504                   22866980.4414
 11  8 11 18 55  0.0000000  0  8G11G07G08G26G13G19G28G24
  -4983201.76647  -3846682.77745  21731023.5084                   21731021.1764
  -2041825.37548  -1568279.91446  20355065.1954                   20355062.6644
  -6661059.64848  -5148227.75046  20789815.1884                   20789813.0824
   4959549.29347   3911299.21544  23826468.5234                   23826469.1414
  10146926.04347   7908940.74244  23167267.5084                   23167267.8094
   8287042.82047   6463448.95745  23117966.3914                   23117962.5314
  -3581726.80147  -2767030.82045  22368855.4224                   22368853.7974
  -7051455.45347  -5458611.74644  22833264.7814                   22833266.2704
 11  8 11 18 55 30.0000000  0  8G11G07G08G26G13G19G28G24
  -5126004.44947  -3957957.55945  21703848.6954                   21703846.1914
  -2158616.86748  -1659286.28147  20332840.5944                   20332838.0514
  -6831529.08248  -5281061.07046  20757375.8594                   20757373.9774
   4766983.47347   3761248.00044  23789824.8134                   23789825.4064
  10139819.15247   7903402.73844  23165914.5554                   23165915.9534
   8267158.79747   6447954.87545  23114182.7424                   23114179.0204
  -3726605.60947  -2879923.36345  22341286.7344                   22341283.7894
  -7228491.17647  -5596561.62144  22799575.8754                   22799576.9804
 11  8 11 18 56  0.0000000  0  8G11G07G08G26G13G19G28G24
  -5268439.85547  -4068946.14145  21676744.2424                   21676741.9454
  -2275132.66848  -1750077.81646  20310668.5234                   20310665.8444
  -7001870.56248  -5413794.69146  20724960.6254                   20724959.1414
   4574720.76247   3611432.94944  23753238.7424                   23753238.4804
  10132678.39847   7897838.32044  23164556.1094                   23164556.9224
   8247347.88347   6432517.75045  23110413.0314                   23110409.5824
  -3871548.45347  -2992865.81245  22313704.8754                   22313702.3714
  -7405390.95347  -5734405.56244  22765912.6564                   22765913.6994
 11  8 11 18 56 30.0000000  0  8G11G07G08G26G13G19G28G24
  -5410504.00847  -4179645.44545  21649710.4454                   21649708.3954
  -2391369.22348  -1840651.77346  20288549.3594                   20288546.7304
  -7172079.95748  -5546425.37546  20692571.2194                   20692569.1884
   4382765.88747   3461857.73044  23716710.4694                   23716710.8054
  10125503.25447   7892247.10944  23163190.6484                   23163191.7384
   8227609.16047   6417136.88345  23106656.1094                   23106653.1884
  -4016554.02048  -3105857.12145  22286110.8914                   22286108.9964
  -7582149.68347  -5872139.60944  22732276.5634                   22732277.2194
 11  8 11 18 57  0.0000000  0  8G11G07G08G26G13G19G28G24
  -5552197.47747  -4290055.89845  21622746.7664                   21622744.8634
  -2507327.50848  -1931008.89147  20266483.0944                   20266480.5634
  -7342156.96148  -5678952.90246  20660206.6884                   20660204.9774
   4191119.21147   3312522.69544  23680241.5704                   23680241.6024
  10118288.06647   7886624.69144  23161818.0004                   23161818.5904
   8207937.53947   6401808.30145  23102913.6254                   23102909.9184
  -4161625.39548  -3218899.70745  22258504.3984                   22258502.5434
  -7758766.44147  -6009763.02744  22698667.6804                   22698668.1724
 11  8 11 18 57 30.0000000  0  8G11G07G08G26G13G19G28G24
  -5693517.90247  -4400175.67245  21595854.2734                   21595852.4024
  -2623005.72748  -2021147.77047  20244470.1644                   20244467.8204
  -7512098.63348  -5811374.97746  20627867.8984                   20627865.9804
   3999783.38747   3163429.88743  23643830.8054                   23643831.7934
  10111030.53547   7880969.27744  23160437.2664                   23160438.4534
   8188331.08247   6386530.49244  23099182.2034                   23099178.6214
  -4306762.52748  -3331993.53545  22230886.1414                   22230883.9734
  -7935237.89847  -6147273.20344  22665086.1094                   22665087.3554
 11  8 11 18 58  0.0000000  0  8G11G07G08G26G13G19G28G24
  -5834465.23848  -4510004.72745  21569032.8364                   21569030.8754
  -2738403.92648  -2111068.45746  20222510.3984                   20222508.2504
  -7681903.86348  -5943690.73046  20595554.9454                   20595552.8094
   3808759.43846   3014580.10243  23607481.2114                   23607481.0084
  10103726.26247   7875277.42644  23159046.9064                   23159048.5744
   8168785.32447   6371300.00045  23095462.6484                   23095459.5554
  -4451968.13747  -3445140.71945  22203254.9064                   22203252.1254
  -8111562.61347  -6284669.05944  22631532.7974                   22631533.3284
 11  8 11 18 58 30.0000000  0  8G11G07G08G26G13G19G28G24
  -5975040.93747  -4619544.20345  21542281.9064                   21542279.8954
  -2853523.48048  -2200772.02047  20200603.9924                   20200601.8054
  -7851572.81248  -6075900.30146  20563267.8364                   20563265.6914
   3618047.08646   2865973.15243  23571188.8754                   23571189.3164
  10096369.29347   7869544.53143  23157647.4774                   23157648.2154
   8149295.07447   6356112.73445  23091753.9304                   23091750.6484
  -4597245.52048  -3558343.84845  22175608.9694                   22175606.3754
  -8287740.47747  -6421950.46944  22598007.0164                   22598008.3634
 11  8 11 18 59  0.0000000  0  8G11G07G08G26G13G19G28G24
  -6115244.56648  -4728793.76245  21515602.4924                   21515599.9654
  -2968364.87547  -2290258.85247  20178750.5474                   20178747.9574
  -8021104.54348  -6208002.95346  20531007.0084                   20531005.7934
   3427647.41046   2717609.79343  23534956.7274                   23534957.1564
  10088954.96947   7863766.96944  23156236.5394                   23156237.8714
   8129855.63347   6340965.07445  23088054.6564                   23088051.2304
  -4742596.84047  -3671604.59045  22147949.2734                   22147947.5314
  -8463769.73447  -6559116.09444  22564509.6174                   22564510.2774
 11  8 11 18 59 30.0000000  0  8G11G07G08G26G13G19G28G24
  -6255075.38748  -4837752.82845  21488993.3054                   21488991.1914
  -3082927.59048  -2379528.51646  20156950.0634                   20156947.5744
  -8190497.31648  -6339997.31646  20498772.6024                   20498770.7664
   3237562.13346   2569491.43843  23498784.6804                   23498784.7424
  10081479.77747   7857941.92244  23154814.1484                   23154815.5634
   8110463.94147   6325854.61344  23084364.8054                   23084361.2114
  -4888023.67247  -3784924.17645  22120275.6414                   22120273.2544
  -8639648.23047  -6696164.20344  22531041.6724                   22531041.6294
 11  8 11 19  0  0.0000000  0  8G11G07G08G26G13G19G28G24
  -4819107.82448  -3718817.05145  21762249.0704                   21762246.8714
  -1621786.75848  -1240977.23447  20434995.9774                   20434993.6644
  -6784323.81648  -5244277.71146  20766358.8754                   20766356.7114
   4623218.93046   3649224.02743  23762466.2974                   23762466.7504
  11649360.03547   9079666.59444  23453172.1644                   23453173.3094
   9666537.15647   7538379.15644  23380475.8444                   23380472.3484
  -3458102.75847  -2670700.06645  22392380.4694                   22392378.2234
  -7239947.94547  -5605488.59044  22797395.3204                   22797395.9844
 11  8 11 19  0 30.0000000  0  8G11G07G08G26G13G19G28G24
  -4958191.12148  -3827193.63345  21735782.0784                   21735780.1564
  -1735791.21548  -1329811.88347  20413301.3754                   20413299.4224
  -6953434.55148  -5376052.30946  20734177.8984                   20734175.5704
   4433766.13347   3501598.48843  23726415.2194                   23726414.6054
  11641750.25847   9073736.70743  23451724.7194                   23451725.4924
   9647229.41847   7523334.10544  23376801.8674                   23376798.2624
  -3603686.49247  -2784141.92645  22364676.4774                   22364674.7034
  -7415519.48447  -5742297.53944  22763985.2664                   22763985.0394
 11  8 11 19  1  0.0000000  0  8G11G07G08G26G13G19G28G24
  -5096902.65648  -3935280.52745  21709386.1334                   21709384.0514
  -1849518.69548  -1418430.72346  20391659.9844                   20391657.4184
  -7122404.44548  -5507717.16046  20702023.5554                   20702021.8204
   4244629.23847   3354219.09043  23690423.5864                   23690423.6374
  11634065.38347   9067748.26243  23450262.5164                   23450263.4924
   9627955.11747   7508315.09844  23373134.4534                   23373130.8204
  -3749353.64547  -2897648.77745  22336957.0394                   22336954.9884
  -7590936.92647  -5878986.38344  22730604.2114                   22730604.4924
 11  8 11 19  1 30.0000000  0  8G11G07G08G26G13G19G28G24
  -5235244.82848  -4043079.60545  21683060.5394                   21683058.2664
  -1962971.93448  -1506835.86346  20370070.7114                   20370068.2074
  -7291234.87148  -5639273.33646  20669896.6724                   20669894.6414
   4055806.65647   3207084.66843  23654491.8204                   23654491.6994
  11626298.28947   9061695.75043  23448784.3284                   23448785.6484
   9608708.04347   7493317.32444  23369470.8364                   23369467.7814
  -3895108.95347  -3011224.32045  22309221.3284                   22309218.6724
  -7766201.42247  -6015556.03144  22697252.3054                   22697253.5394
 11  8 11 19  2  0.0000000  0  8G11G07G08G26G13G19G28G24
  -5373214.01248  -4150588.04345  21656805.8984                   21656803.7274
  -2076147.48848  -1595024.62147  20348533.9224                   20348531.5234
  -7459921.00048  -5770717.05946  20637796.6724                   20637794.4304
   3867302.93447   3060198.70743  23618620.7114                   23618620.6294
  11618447.84047   9055578.30944  23447290.4534                   23447291.6884
   9589487.80147   7478340.46544  23365813.7344                   23365810.8914
  -4040951.05947  -3124867.51245  22281468.0554                   22281465.9654
  -7941307.83647  -6152002.50044  22663930.5004                   22663931.3754
 11  8 11 19  2 30.0000000  0  8G11G07G08G26G13G19G28G24
  -5510812.00048  -4257807.23445  21630622.0474                   21630619.5904
  -2189047.57048  -1682998.73047  20327050.2584                   20327047.6804
  -7628464.12948  -5902049.37146  20605724.0474                   20605722.1724
   3679117.00847   2913560.37943  23582810.1954                   23582809.7074
  11610507.60247   9049390.89144  23445779.8054                   23445781.4734
   9570287.77347   7463379.36344  23362160.4614                   23362156.6764
  -4186884.13347  -3238581.59045  22253697.7114                   22253695.4964
  -8116256.80947  -6288326.28144  22630639.3364                   22630639.6804
 11  8 11 19  3  0.0000000  0  8G11G07G08G26G13G19G28G24
  -5648039.35548  -4364737.62545  21604508.4384                   21604506.4264
  -2301673.26648  -1770759.02746  20305618.2504                   20305615.7234
  -7796863.60548  -6033269.75046  20573678.3914                   20573677.0704
   3491248.84047   2767169.63743  23547060.7584                   23547059.2664
  11602472.37147   9043129.46943  23444250.8204                   23444252.4574
   9551103.46547   7448430.49244  23358509.9064                   23358506.9534
  -4332910.92247  -3352368.68745  22225910.0864                   22225907.9654
  -8291047.29747  -6424526.56644  22597377.2814                   22597378.5164
 11  8 11 19  3 30.0000000  0  8G11G07G08G26G13G19G28G24
  -5784893.84048  -4471377.46545  21578466.0944                   21578463.4224
  -2414022.34048  -1858303.78146  20284238.8054                   20284236.0164
  -7965115.84448  -6164375.38746  20541661.4924                   20541659.2274
   3303702.15647   2621029.39844  23511371.4534                   23511370.2664
  11594340.56347   9036792.77743  23442703.2734                   23442704.5634
   9531932.99247   7433492.39844  23354861.6254                   23354858.3554
  -4479031.00447  -3466228.48445  22198104.2974                   22198101.6994
  -8465675.50047  -6560600.38744  22564146.5084                   22564147.4964
 11  8 11 19  4  0.0000000  0  8G11G07G08G26G13G19G28G24
  -5921377.88347  -4577728.64545  21552493.7274                   21552491.4694
  -2526097.18748  -1945634.85546  20262911.5394                   20262909.1254
  -8133222.33248  -6295367.45346  20509672.0944                   20509670.1214
   3116474.99647   2475138.13744  23475742.9694                   23475741.8874
  11586105.34447   9030375.49243  23441136.6024                   23441138.4304
   9512769.79347   7418559.99644  23351215.5314                   23351211.7304
  -4625249.13348  -3580164.68445  22170279.7274                   22170276.9734
  -8640142.25447  -6696548.40244  22530946.0004                   22530947.6764
 11  8 11 19  4 30.0000000  0  8G11G07G08G26G13G19G28G24
  -6057488.27748  -4683788.67645  21526592.6024                   21526590.4494
  -2637894.93448  -2032750.00046  20241636.9844                   20241634.6724
  -8301178.62948  -6426242.49646  20477710.8284                   20477708.4304
   2929571.81347   2329499.33243  23440176.3054                   23440175.3364
  11577765.71847   9023876.84743  23439549.8674                   23439551.3634
   9493613.66846   7403633.10944  23347569.4064                   23347566.9104
  -4771564.05148  -3694176.29745  22142436.6414                   22142434.8404
  -8814442.89547  -6832366.99244  22497778.1804                   22497779.0784
 11  8 11 19  5  0.0000000  0  8G11G07G08G26G13G19G28G24
  -6193226.50048  -4789558.69545  21500762.8674                   21500760.4264
  -2749417.51648  -2119650.73047  20220415.0164                   20220412.9144
  -8468985.29748  -6557000.94146  20445778.0634                   20445776.2934
   2742991.57446   2184112.16443  23404671.0004                   23404670.6524
  11569315.63347   9017292.11343  23437942.4614                   23437943.7544
   9474458.37546   7388706.88344  23343924.2034                   23343922.1884
  -4917979.46548  -3808266.21545  22114575.3674                   22114572.2234
  -8988577.45347  -6968056.16044  22464641.5864                   22464642.4884
 11  8 11 19  5 30.0000000  0  8G11G07G08G26G13G19G28G24
  -6328589.37548  -4895036.23445  21475003.8674                   21475001.3484
  -2860661.73448  -2206334.55947  20199245.9924                   20199243.5554
  -8636638.01248  -6687639.41846  20413874.8134                   20413872.8204
   2556739.00447   2038980.34843  23369228.4614                   23369228.3674
  11560754.03947   9010620.54743  23436312.7584                   23436314.7854
   9455303.55947   7373781.02044  23340278.9614                   23340276.0784
  -5064493.97348  -3922433.35245  22086694.6094                   22086691.5904
  -9162541.25047  -7103612.27044  22431537.1884                   22431538.0124
 11  8 11 19  6  0.0000000  0  8G11G07G08G26G13G19G28G24
  -6463582.09048  -5000225.32845  21449315.8054                   21449313.5824
  -2971633.08248  -2292805.75446  20178128.9304                   20178126.5744
  -8804140.80148  -6818161.07846  20382000.5704                   20381998.5314
   2370809.52747   1894100.28943  23333847.2424                   23333846.5864
  11552071.54747   9003854.73043  23434660.9454                   23434662.8204
   9436139.69546   7358848.11344  23336633.0004                   23336629.9884
  -5211114.91848  -4036683.41045  22058793.0004                   22058790.4494
  -9336337.60247  -7239037.93444  22398464.7424                   22398465.2854
 11  8 11 19  6 30.0000000  0  8G11G07G08G26G13G19G28G24
  -5022781.08648  -3877523.21945  21723491.0474                   21723488.4694
  -1506909.11748  -1151462.42247  20456856.5164                   20456854.2734
  -7396067.41048  -5720961.02346  20649947.6174                   20649945.9104
   3760629.15647   2977076.66444  23598321.6334                   23598320.8874
  13118682.92647  10224590.64843  23732777.2114                   23732778.9264
  10992382.67246   8571504.94144  23632776.1334                   23632773.1174
  -3782420.50048  -2923415.02045  22330664.8754                   22330662.1954
  -7934540.33247  -6146728.30544  22665217.6334                   22665218.3014
 11  8 11 19  7  0.0000000  0  8G11G07G08G26G13G19G28G24
  -5157038.18748  -3982139.10545  21697942.5314                   21697940.0514
  -1617340.10548  -1237512.55946  20435842.1564                   20435839.8284
  -7563270.79348  -5851249.36746  20618130.0554                   20618127.8204
   3575343.66047   2832698.40244  23563063.0704                   23563061.6374
  13109740.83247  10217622.53143  23731075.7344                   23731077.3404
  10973184.60546   8556545.35544  23629122.8984                   23629119.6604
  -3929265.20347  -3037839.44145  22302720.9224                   22302718.2814
  -8108002.23847  -6281893.35544  22632209.3054                   22632209.6994
 11  8 11 19  7 30.0000000  0  8G11G07G08G26G13G19G28G24
  -5290925.52748  -4086466.87545  21672464.6804                   21672462.3134
  -1727499.23448  -1323350.85946  20414879.5554                   20414876.9774
  -7730320.50848  -5981417.97746  20586341.5004                   20586338.9924
   3390383.87147   2688573.91444  23527865.5314                   23527865.4264
  13100664.99247  10210550.20743  23729348.4454                   23729351.0784
  10953965.65246   8541569.49644  23625465.8524                   23625462.4384
  -4076222.56648  -3152351.64145  22274755.9614                   22274753.3444
  -8281292.47347  -6416924.65244  22599233.1954                   22599233.8594
 11  8 11 19  8  0.0000000  0  8G11G07G08G26G13G19G28G24
  -5424443.61747  -4190506.91045  21647057.3674                   21647054.5514
  -1837387.06648  -1408977.75046  20393968.9384                   20393966.5474
  -7897215.94148  -6111466.37146  20554582.3444                   20554580.3794
   3205749.77046   2544703.23044  23492730.3364                   23492731.0044
  13091450.68047  10203369.97343  23727595.7584                   23727598.0204
  10934721.33246   8526573.86744  23621803.4144                   23621800.9494
  -4223294.96148  -3266953.48445  22246769.3054                   22246766.5984
  -8454410.15247  -6551821.48044  22566290.0474                   22566290.2734
 11  8 11 19  8 30.0000000  0  8G11G07G08G26G13G19G28G24
  -5557592.69148  -4294259.40645  21621719.4144                   21621717.0784
  -1947004.05548  -1494393.59447  20373109.5004                   20373106.9844
  -8063956.11348  -6241393.78546  20522852.6644                   20522850.5274
   3021442.26246   2401087.07844  23457658.0394                   23457658.6724
  13082093.80146  10196078.64843  23725815.1484                   23725817.4774
  10915447.38347   8511555.13344  23618135.9144                   23618132.7154
  -4370484.32848  -3381646.47745  22218760.1414                   22218757.5864
  -8627353.62547  -6686582.60245  22533379.8594                   22533379.9344
 11  8 11 19  9  0.0000000  0  8G11G07G08G26G13G19G28G24
  -5690369.72348  -4397721.99645  21596453.1954                   21596450.7624
  -2056346.96148  -1579595.88346  20352302.0234                   20352299.8204
  -8230536.64548  -6371196.80146  20491153.4534                   20491151.8554
   2837465.42246   2257728.53544  23422648.3754                   23422648.5784
  13072592.63746  10188674.89843  23724007.3984                   23724009.6024
  10896143.58646   8496513.16044  23614461.8984                   23614459.5274
  -4517789.67248  -3496429.83245  22190728.8674                   22190726.2154
  -8800118.19947  -6821204.28944  22500503.8594                   22500504.1254
 11  8 11 19  9 30.0000000  0  8G11G07G08G26G13G19G28G24
  -5822782.62548  -4500900.85945  21571255.7344                   21571253.2544
  -2165424.14148  -1664591.09447  20331545.4064                   20331542.7274
  -8396963.94948  -6500880.41446  20459483.2734                   20459481.4184
   2653812.17646   2114622.13744  23387700.4304                   23387700.9384
  13062935.40246  10181149.52043  23722169.9774                   23722172.3054
  10876798.18446   8481438.75044  23610780.6884                   23610778.5864
  -4665220.67648  -3611311.11745  22162673.2734                   22162670.8554
  -8972710.18447  -6955691.51244  22467660.6024                   22467661.0704
 11  8 11 19 10  0.0000000  0  8G11G07G08G26G13G19G28G24
  -5954823.35248  -4603789.71145  21546129.1954                   21546126.6294
  -2274227.75448  -1749373.14846  20310841.0634                   20310838.2814
  -8563228.47348  -6630437.17646  20427844.3754                   20427842.4844
   2470491.74646   1971775.07044  23352815.7894                   23352815.3954
  13053126.48447  10173505.95343  23720303.8284                   23720306.1024
  10857415.43846   8466335.21144  23607092.3674                   23607090.3284
  -4812771.21948  -3726285.53945  22134595.4064                   22134592.6454
  -9145119.77047  -7090036.58244  22434851.7894                   22434852.4924
 11  8 11 19 10 30.0000000  0  8G11G07G08G26G13G19G28G24
  -6086495.31648  -4706391.22345  21521072.3594                   21521070.2774
  -2382761.39148  -1833944.83646  20290187.7034                   20290185.2934
  -8729332.47348  -6759868.86746  20396236.0084                   20396233.5664
   2287501.35546   1829185.19944  23317993.3754                   23317993.7544
  13043158.27347  10165738.27043  23718407.0084                   23718409.4964
  10837987.95746   8451196.85944  23603394.8134                   23603392.6134
  -4960446.28948  -3841357.00445  22106493.8524                   22106491.7034
  -9317348.87147  -7224241.02345  22402077.8594                   22402077.8794
 11  8 11 19 11  0.0000000  0  8G11G07G08G26G13G19G28G24
  -6217794.23448  -4808702.05545  21496087.1954                   21496085.1254
  -2491020.83648  -1918302.86347  20269586.5004                   20269584.1094
  -8895269.88748  -6889170.75446  20364659.2814                   20364657.1524
   2104846.67646   1686856.93443  23283236.1254                   23283235.8954
  13033031.43447  10157846.96143  23716479.5474                   23716482.8524
  10818516.79746   8436024.42644  23599691.5394                   23599687.5904
  -5108243.14848  -3956523.37145  22078368.9454                   22078366.3914
  -9489391.15647  -7358299.88345  22369339.3284                   22369339.9224
 11  8 11 19 11 30.0000000  0  8G11G07G08G26G13G19G28G24
  -6348718.10548  -4910720.64545  21471173.1484                   21471170.6054
  -2599003.39848  -2002445.14146  20249037.9454                   20249035.5634
  -9061037.21548  -7018340.11746  20333114.6484                   20333112.5004
   1922530.89146   1544792.74644  23248541.9224                   23248541.5234
  13022744.28147  10149830.71143  23714522.7504                   23714525.6844
  10799000.46946   8420816.84044  23595977.5234                   23595974.0274
  -5256161.19948  -4071784.18745  22050221.3054                   22050218.6804
  -9661242.82847  -7492210.21944  22336636.7114                   22336637.2504
 11  8 11 19 12  0.0000000  0  8G11G07G08G26G13G19G28G24
  -6479267.16448  -5012447.18045  21446330.7664                   21446328.3134
  -2706710.87948  -2086373.07046  20228541.8834                   20228539.9654
  -9226633.98048  -7147376.56646  20301602.4844                   20301600.6414
   1740553.75047   1402992.38744  23213913.2424                   23213912.7704
  13012291.58647  10141685.48043  23712533.6804                   23712536.5394
  10779434.30146   8405570.44544  23592253.7194                   23592250.4414
  -5404203.33248  -4187141.68745  22022049.7114                   22022047.0204
  -9832903.34847  -7625971.57844  22303970.8364                   22303971.2894
 11  8 11 19 12 30.0000000  0  8G11G07G08G26G13G19G28G24
  -6609440.19948  -5113880.71545  21421559.6884                   21421556.8754
  -2814141.11748  -2170084.95746  20208098.6564                   20208096.2464
  -9392056.64548  -7276277.34846  20270123.7814                   20270122.0664
   1558918.22347   1261458.23844  23179349.2194                   23179348.8554
  13001671.25446  10133409.63343  23710512.5784                   23710515.8324
  10759816.55947   8390283.87944  23588521.6024                   23588517.4614
  -5552369.25048  -4302595.64845  21993854.3364                   21993851.9264
 -10004368.87147  -7759580.99645  22271342.4534                   22271342.7154
 11  8 11 19 13  0.0000000  0  8G11G07G08G26G13G19G28G24
  -5163813.46948  -3987418.32445  21696653.4694                   21696650.4844
  -1345871.06248  -1025978.44546  20487501.3364                   20487499.4104
  -7981878.95348  -6177437.60246  20538471.4304                   20538469.8594
   2953050.80547   2347795.31644  23444644.3134                   23444642.8484
  14566299.64846  11352600.28943  24008252.0084                   24008254.7584
  12315564.14547   9602554.70344  23884569.5394                   23884566.5314
  -4125235.91848  -3190543.68045  22265428.7664                   22265426.7934
  -8600212.58647  -6665433.14845  22538543.4454                   22538544.0744
 11  8 11 19 13 30.0000000  0  8G11G07G08G26G13G19G28G24
  -5293229.89548  -4088262.29345  21672026.2894                   21672023.5984
  -1452742.72348  -1109255.07846  20467164.0634                   20467161.8014
  -8146944.91448  -6306060.43446  20507060.4614                   20507058.3284
   2772105.91847   2206799.33644  23410211.5084                   23410209.9064
  14555337.41046  11344058.01243  24006166.4224                   24006169.5274
  12295837.32447   9587183.11744  23880816.3524                   23880813.4064
  -4273649.32047  -3306190.48045  22237186.8134                   22237184.0744
  -8771278.57847  -6798731.23845  22505991.5234                   22505991.6844
 11  8 11 19 14  0.0000000  0  8G11G07G08G26G13G19G28G24
  -5422259.79348  -4188805.06645  21647472.4454                   21647469.7274
  -1559327.34048  -1192308.05146  20446881.8914                   20446879.5474
  -8311822.28548  -6434536.30946  20475685.4694                   20475683.6804
   2591515.94146   2066079.89844  23375845.5234                   23375845.6254
  14544206.70346  11335384.43843  24004047.5784                   24004051.6134
  12276058.76647   9571771.20744  23877052.7424                   23877049.4264
  -4422180.98447  -3421929.42245  22208922.0474                   22208919.8524
  -8942134.11747  -6931865.32444  22473478.3674                   22473478.7894
 11  8 11 19 14 30.0000000  0  8G11G07G08G26G13G19G28G24
  -5550904.72748  -4289047.85245  21622991.9774                   21622989.6804
  -1665625.89548  -1275138.10946  20426654.1174                   20426652.0234
  -8476510.33248  -6562864.66446  20444346.1414                   20444344.4924
   2411280.59047   1925636.78544  23341548.4144                   23341547.3674
  14532902.52046  11326575.69943  24001897.1484                   24001900.9614
  12256223.85947   9556315.39844  23873278.2034                   23873275.1334
  -4570833.39148  -3537762.44146  22180634.4534                   22180632.2344
  -9112778.43047  -7064834.81644  22441005.6484                   22441005.7624
 11  8 11 19 15  0.0000000  0  8G11G07G08G26G13G19G28G24
  -5679163.31648  -4388989.60245  21598585.5704                   21598582.7234
  -1771637.25448  -1357744.38746  20406480.6724                   20406478.2034
  -8641006.33248  -6691043.36746  20413043.8984                   20413042.0944
   2231402.27047   1785471.87544  23307318.4844                   23307317.5354
  14521422.48046  11317629.92643  23999713.2734                   23999716.2734
  12236330.44546   9540813.97744  23869492.0234                   23869490.2304
  -4719606.88348  -3653689.81645  22152324.0084                   22152321.9144
  -9283208.60547  -7197637.44945  22408573.7424                   22408574.0704
 11  8 11 19 15 30.0000000  0  8G11G07G08G26G13G19G28G24
  -5807032.59047  -4488627.98045  21574252.5474                   21574250.0594
  -1877358.78148  -1440124.81646  20386362.5394                   20386360.1914
  -8805306.09048  -6819069.16446  20381778.3754                   20381776.7934
   2051884.52347   1645587.93443  23273157.0474                   23273157.1174
  14509765.49246  11308546.25843  23997494.9534                   23997497.9924
  12216378.05146   9525266.57044  23865694.3524                   23865692.9414
  -4868499.90648  -3769710.34445  22123990.4614                   22123987.7894
  -9453420.14847  -7330269.69944  22376183.5864                   22376183.5044
 11  8 11 19 16  0.0000000  0  8G11G07G08G26G13G19G28G24
  -5934505.94948  -4587957.84845  21549995.2894                   21549992.6914
  -1982783.77748  -1522274.18746  20366301.0634                   20366298.6994
  -8969401.32048  -6946935.58246  20350552.1884                   20350550.5474
   1872735.24247   1505991.12543  23239065.6254                   23239065.2504
  14497934.72746  11299327.18043  23995243.8054                   23995246.7274
  12196369.73446   9509675.60943  23861887.1724                   23861885.5004
  -5017507.50048  -3885820.14145  22095635.1414                   22095632.8874
  -9623404.43747  -7462724.88744  22343836.6564                   22343836.5744
 11  8 11 19 16 30.0000000  0  8G11G07G08G26G13G19G28G24
  -6061582.93448  -4686978.85945  21525813.2424                   21525810.9884
  -2087911.68448  -1604192.05546  20346295.7584                   20346293.0824
  -9133289.70348  -7074640.82046  20319365.3284                   20319363.4304
   1693955.99646   1366682.63743  23205045.5704                   23205044.4924
  14485927.02746  11289970.23443  23992959.3754                   23992962.6374
  12176303.15646   9494039.18844  23858068.3914                   23858066.8164
  -5166630.47748  -4002019.84445  22067258.0234                   22067255.7154
  -9793159.09847  -7595001.14545  22311533.2274                   22311533.5314
 11  8 11 19 17  0.0000000  0  8G11G07G08G26G13G19G28G24
  -6188264.56648  -4785691.79345  21501706.5784                   21501704.3524
  -2192743.66048  -1685879.32446  20326346.9924                   20326344.5354
  -9296970.30948  -7202184.15246  20288217.8204                   20288216.0354
   1515546.74247   1227662.41844  23171095.1484                   23171094.6094
  14473737.90646  11280471.90643  23990639.7274                   23990643.5904
  12156173.87146   9478353.92244  23854238.7274                   23854236.2464
  -5315871.19948  -4118311.31645  22038858.1954                   22038855.7894
  -9962683.47747  -7727097.94945  22279274.0164                   22279274.3834
 11  8 11 19 17 30.0000000  0  8G11G07G08G26G13G19G28G24
  -6314544.53948  -4884091.75045  21477676.4384                   21477673.8714
  -2297273.13748  -1767330.87946  20306455.3524                   20306453.1724
  -9460435.19148  -7329559.39146  20257111.3054                   20257109.5084
   1337514.85247   1088936.26644  23137217.6174                   23137216.0124
  14461370.18446  11270834.41843  23988286.6644                   23988290.1644
  12135984.86347   9462622.17644  23850397.4844                   23850394.3484
  -5465224.16448  -4234690.23445  22010437.7814                   22010435.0514
 -10131969.18447  -7859008.81645  22247059.9224                   22247059.7854
 11  8 11 19 18  0.0000000  0  8G11G07G08G26G13G19G28G24
  -6440424.37148  -4982179.89845  21453722.1334                   21453719.5164
  -2401501.77748  -1848548.02346  20286621.6884                   20286619.1214
  -9623684.45748  -7456766.60946  20226046.2504                   20226044.5784
   1159859.66047    950503.68043  23103410.7034                   23103410.1294
  14448818.41446  11261053.48043  23985898.4064                   23985901.7704
  12115731.30547   9446840.09844  23846543.4694                   23846540.8324
  -5614692.62548  -4351159.16445  21981994.5004                   21981991.9104
 -10301016.16047  -7990733.65644  22214890.8834                   22214891.0124
 11  8 11 19 18 30.0000000  0  8G11G07G08G26G13G19G28G24
  -6565902.95748  -5079955.38745  21429844.2814                   21429841.7464
  -2505428.42248  -1929529.84847  20266845.0004                   20266842.7274
  -9786715.02748  -7583803.41846  20195022.4774                   20195020.6564
    982583.75447    812366.63344  23069676.3834                   23069675.7814
  14436080.64846  11251127.64143  23983474.2114                   23983477.9774
  12095411.30147   9431006.27744  23842676.5864                   23842673.6564
  -5764276.60548  -4467718.09845  21953529.5554                   21953526.7034
 -10469820.98047  -8122269.81245  22182768.0554                   22182768.8284
 11  8 11 19 19  0.0000000  0  8G11G07G08G26G13G19G28G24
  -6690978.88347  -5177417.11345  21406043.2974                   21406040.9454
  -2609051.85948  -2010275.39846  20247126.1804                   20247123.7544
  -9949523.35948  -7710667.04346  20164041.0864                   20164039.2734
    805689.30146    674526.81344  23036014.2194                   23036013.7274
  14423154.69946  11241055.18043  23981014.7734                   23981019.2424
  12075022.86347   9415119.15244  23838797.2344                   23838794.0004
  -5913975.76648  -4584366.79345  21925042.9144                   21925040.4734
 -10638380.60547  -8253614.91045  22150692.7274                   22150692.6294
 11  8 11 19 19 30.0000000  0  8G11G07G08G26G13G19G28G24
  -5240229.26648  -4046962.83645  21682111.4844                   21682108.7624
  -1136949.72348   -863182.85546  20527257.6724                   20527255.4024
  -8536683.85248  -6609753.14146  20432895.4694                   20432893.4804
   2204601.96547   1764588.64144  23302218.2664                   23302217.7934
  15985456.44546  12458432.84843  24278310.9384                   24278315.8594
  13629982.64547  10626776.12143  24134696.1334                   24134692.2854
  -4488367.71548  -3473503.36345  22196327.1024                   22196324.2814
  -9231268.92647  -7157164.18444  22418457.0394                   22418457.2664
 11  8 11 19 20  0.0000000  0  8G11G07G08G26G13G19G28G24
  -5364511.73847  -4143806.29745  21658461.4614                   21658458.9224
  -1239978.09048   -943464.71946  20507652.3674                   20507649.9224
  -8699055.25448  -6736276.30146  20401997.3524                   20401995.6174
   2028461.76647   1627336.56344  23268700.5084                   23268699.4654
  15972132.07446  12448049.91443  24275776.4224                   24275780.0084
  13609436.84047  10610766.35243  24130786.1804                   24130782.8874
  -4638313.11347  -3590343.93445  22167793.3914                   22167790.9774
  -9399344.57047  -7288132.18045  22386473.1174                   22386473.0204
 11  8 11 19 20 30.0000000  0  8G11G07G08G26G13G19G28G24
  -5488410.67248  -4240350.90245  21634883.9454                   21634881.5784
  -1342722.08248  -1023524.98846  20488100.9844                   20488098.5164
  -8861218.31648  -6862637.13746  20371138.6484                   20371136.9064
   1852687.18047   1490369.40244  23235251.4224                   23235250.6524
  15958590.27746  12437497.56643  24273200.0314                   24273203.4344
  13588794.60946  10594681.44544  24126858.2114                   24126855.2274
  -4788396.15248  -3707291.73846  22139233.5944                   22139231.0554
  -9567188.35247  -7418919.50045  22354533.5004                   22354533.5234
 11  8 11 19 21  0.0000000  0  8G11G07G08G26G13G19G28G24
  -5611918.36348  -4336590.64145  21611381.0634                   21611378.6414
  -1445173.85548  -1103357.55146  20468605.0084                   20468602.2304
  -9023163.60948  -6988828.27746  20340321.6414                   20340319.2894
   1677286.92647   1353693.90244  23201873.8594                   23201873.1804
  15944835.41046  12426779.20743  24270582.6254                   24270585.7344
  13568060.91846  10578525.24644  24122912.2894                   24122910.1414
  -4938610.15648  -3824341.60245  22110648.6024                   22110646.1414
  -9734790.29747  -7549518.38345  22322639.9064                   22322640.5434
 11  8 11 19 21 30.0000000  0  8G11G07G08G26G13G19G28G24
  -5735025.32047  -4432518.12945  21587954.6804                   21587952.2704
  -1547323.62148  -1182954.79746  20449166.4144                   20449164.0744
  -9184879.69148  -7114840.81246  20309547.9384                   20309546.3324
   1502271.82047   1217318.51244  23168568.4774                   23168568.7894
  15930874.00046  12415899.90643  24267925.9534                   24267929.6414
  13547242.04746  10562302.68443  24118951.5864                   24118948.6024
  -5088946.82848  -3941487.05145  22082040.6254                   22082038.5124
  -9902138.82447  -7679919.79745  22290794.2114                   22290794.8244
 11  8 11 19 22  0.0000000  0  8G11G07G08G26G13G19G28G24
  -5857729.69548  -4528131.94145  21564605.3444                   21564602.3284
  -1649170.12948  -1262315.75846  20429785.6094                   20429783.3674
  -9346363.00048  -7240671.96946  20278818.8204                   20278816.7814
   1327644.30147   1081245.13744  23135338.8984                   23135338.0274
  15916704.22746  12404858.21543  24265229.3284                   24265233.2704
  13526336.85546  10546012.80944  24114972.5864                   24114970.4494
  -5239405.72747  -4058727.73845  22053409.3674                   22053406.7704
 -10069230.81247  -7810121.31245  22258998.2974                   22258998.2774
 11  8 11 19 22 30.0000000  0  8G11G07G08G26G13G19G28G24
  -5980030.30947  -4623431.12945  21541331.8054                   21541329.6294
  -1750711.67248  -1341439.05546  20410463.2664                   20410460.6374
  -9507610.44548  -7366319.33246  20248134.7034                   20248132.6134
   1153406.85547    945475.70744  23102182.2974                   23102181.8244
  15902324.24646  12393652.79343  24262493.3834                   24262497.1994
  13505343.72746  10529654.42844  24110978.2034                   24110975.9104
  -5389986.15247  -4176063.12545  22024754.8914                   22024752.2464
 -10236063.03547  -7940120.41045  22227250.6334                   22227251.0984
 11  8 11 19 23  0.0000000  0  8G11G07G08G26G13G19G28G24
  -6101930.28547  -4718418.13345  21518135.1334                   21518132.6054
  -1851951.27048  -1420327.07846  20391197.9454                   20391195.6884
  -9668623.21948  -7491783.83246  20217494.5314                   20217492.6724
    979557.57047    810008.72344  23069100.3524                   23069099.9104
  15887727.71946  12382278.57043  24259714.7424                   24259720.0084
  13484256.80946  10513222.98844  24106965.2504                   24106963.3284
  -5540692.26648  -4293496.44545  21996076.5234                   21996073.5944
 -10402636.33647  -8069917.74645  22195553.2194                   22195552.9144
 11  8 11 19 23 30.0000000  0  8G11G07G08G26G13G19G28G24
  -6223434.93048  -4813097.08645  21495013.5084                   21495011.4304
  -1952894.45348  -1498984.12946  20371989.0084                   20371986.8284
  -9829404.90248  -7617068.27046  20186898.8134                   20186896.9654
    806091.72747    674840.54344  23036090.1174                   23036090.0164
  15872905.64146  12370728.62542  24256896.2274                   24256900.2384
  13463067.48047  10496711.73444  24102933.2664                   24102930.8674
  -5691530.53948  -4411032.75445  21967372.7344                   21967370.2234
 -10568954.41447  -8199516.19945  22163903.7194                   22163903.8594
 11  8 11 19 24  0.0000000  0  8G11G07G08G26G13G19G28G24
  -6344543.87947  -4907467.69545  21471967.5084                   21471965.4494
  -2053539.96548  -1577409.19946  20352836.6644                   20352834.3484
  -9989952.28148  -7742170.12146  20156347.8364                   20156346.0354
    633011.69147    539972.99644  23003154.2504                   23003153.9184
  15857856.42246  12359001.68442  24254030.8754                   24254037.2464
  13441774.13347  10480119.44544  24098882.0004                   24098879.0394
  -5842501.29748  -4528672.30145  21938643.9454                   21938640.9614
 -10735014.04347  -8328913.27745  22132304.3134                   22132304.2704
 11  8 11 19 24 30.0000000  0  8G11G07G08G26G13G19G28G24
  -6465249.53548  -5001524.07445  21448997.8524                   21448995.2974
  -2153880.93048  -1655597.00046  20333742.4144                   20333740.2274
 -10150256.65648  -7867082.62546  20125842.9144                   20125841.1914
    460325.49647    405412.35544  22970293.1724                   22970293.0044
  15842583.90646  12347100.74642  24251126.0004                   24251131.5904
  13420381.11347  10463449.49244  24094811.3914                   24094808.3404
  -5993597.48848  -4646409.59045  21909891.2274                   21909888.1804
 -10900806.05547  -8458101.81245  22100754.6254                   22100754.2194
 11  8 11 19 25  0.0000000  0  8G11G07G08G26G13G19G28G24
  -6585549.93048  -5095264.64545  21426105.4924                   21426102.9804
  -2253914.76248  -1733545.47347  20314706.6564                   20314704.1454
 -10310313.45748  -7991802.21946  20095385.1484                   20095382.9414
    288036.44547    271161.15244  22937507.7664                   22937507.3634
  15827087.62146  12335025.46942  24248177.6804                   24248182.8094
  13398888.24247  10446701.75844  24090721.1414                   24090718.1724
  -6144818.00448  -4764243.75845  21881114.9384                   21881112.4614
 -11066326.33647  -8587078.59845  22069256.7584                   22069257.3164
 11  8 11 19 25 30.0000000  0  8G11G07G08G26G13G19G28G24
  -5130028.27048  -3961091.92645  21703081.8524                   21703079.2584
   -778225.41848   -583657.69946  20595521.0784                   20595518.7114
  -8894702.73048  -6888728.91846  20364766.7664                   20364764.7934
   1691563.76247   1364818.82044  23204590.2194                   23204589.5824
  17386777.03546  13550367.48043  24544977.2344                   24544982.0904
  14952705.86347  11657468.66443  24386402.5864                   24386399.5474
  -4720746.16048  -3654577.37545  22152107.0474                   22152104.3404
  -9656154.90247  -7488243.66045  22337603.7274                   22337603.5704
 11  8 11 19 26  0.0000000  0  8G11G07G08G26G13G19G28G24
  -5249531.02747  -4054210.94945  21680341.6954                   21680339.1294
   -877657.78948   -661137.49646  20576599.9844                   20576597.4774
  -9054272.03948  -7013068.64846  20334401.4694                   20334399.8714
   1520058.71947   1231178.55944  23171954.1024                   23171953.6884
  17370809.93046  13537925.27742  24541938.4614                   24541943.7304
  14930991.21547  11640548.10243  24382270.7504                   24382267.4804
  -4872230.94947  -3772617.47346  22123280.3444                   22123277.7504
  -9821139.01248  -7616802.65245  22306208.2734                   22306208.2234
 11  8 11 19 26 30.0000000  0  8G11G07G08G26G13G19G28G24
  -5368632.79748  -4147017.51245  21657677.1644                   21657674.6524
   -976787.17248   -738381.20346  20557736.0554                   20557733.6374
  -9213592.20748  -7137214.23846  20304084.2894                   20304082.1524
   1348949.71147   1097846.88744  23139392.9144                   23139392.0274
  17354605.09446  13525297.83643  24538855.3444                   24538859.9654
  14909164.01646  11623539.81643  24378116.5864                   24378113.9614
  -5023846.95347  -3890759.80145  22094428.8284                   22094425.9224
  -9985849.79347  -7745148.66445  22274864.5704                   22274864.5984
 11  8 11 19 27  0.0000000  0  8G11G07G08G26G13G19G28G24
  -5487323.37548  -4239503.67645  21635090.6804                   21635088.4224
  -1075602.81648   -815380.43046  20538931.9064                   20538929.5234
  -9372650.93048  -7261156.11346  20273816.4774                   20273814.6764
   1178248.14847    964832.68844  23106909.9304                   23106908.6564
  17338170.44546  13512491.27343  24535727.7894                   24535732.5124
  14887232.02346  11606449.91843  24373943.4304                   24373940.1604
  -5175584.37148  -4008996.73845  22065553.8204                   22065551.4184
 -10150274.60547  -7873271.82045  22243575.1174                   22243575.5234
 11  8 11 19 27 30.0000000  0  8G11G07G08G26G13G19G28G24
  -5605604.37548  -4331670.67645  21612582.5004                   21612580.2424
  -1174106.66448   -892136.71146  20520187.5084                   20520185.4304
  -9531447.76648  -7384893.91446  20243598.2504                   20243596.7934
   1007953.30547    832135.35944  23074503.7894                   23074502.5124
  17321500.84447  13499501.69543  24532556.0944                   24532561.1024
  14865191.17646  11589275.14543  24369748.3364                   24369746.0984
  -5327445.79348  -4127330.30145  22036655.5944                   22036652.8204
 -10314413.41847  -8001172.12945  22212340.6804                   22212341.0004
 11  8 11 19 28  0.0000000  0  8G11G07G08G26G13G19G28G24
  -5723469.41048  -4423513.56245  21590153.9614                   21590151.3954
  -1272292.05148   -968644.83246  20501503.4304                   20501500.8134
  -9689974.34048  -7508421.12546  20213431.3054                   20213429.9064
    838072.65647    699760.88344  23042176.8134                   23042176.1254
  17304599.94146  13486331.84843  24529340.0634                   24529345.8674
  14843045.09846  11572018.41843  24365534.8284                   24365532.6994
  -5479425.14848  -4245755.75845  22007735.2424                   22007732.5204
 -10478257.67247  -8128842.91845  22181162.4224                   22181161.7934
 11  8 11 19 28 30.0000000  0  8G11G07G08G26G13G19G28G24
  -5840915.07048  -4515029.65645  21567804.7504                   21567802.1094
  -1370154.99648  -1044901.69946  20482881.0554                   20482878.3914
  -9848225.07448  -7631733.39146  20183317.4774                   20183315.5784
    668610.82047    567712.73044  23009928.5704                   23009928.4924
  17287468.50047  13472982.36743  24526080.6724                   24526085.1994
  14820794.92646  11554680.50443  24361301.1024                   24361298.7544
  -5631519.46148  -4364270.79345  21978792.2034                   21978790.2504
 -10641801.81247  -8256279.85945  22150040.8914                   22150041.1334
 11  8 11 19 29  0.0000000  0  8G11G07G08G26G13G19G28G24
  -5957933.78548  -4606213.07045  21545537.0004                   21545534.3834
  -1467687.91048  -1120901.40646  20464321.0164                   20464318.5124
 -10006190.08648  -7754823.02046  20153257.9534                   20153255.9344
    499576.51247    435997.69944  22977762.3984                   22977761.7734
  17270111.09447  13459456.80543  24522777.1884                   24522782.2344
  14798445.92646  11537265.61743  24357047.9064                   24357045.9024
  -5783721.89848  -4482870.07845  21949829.1804                   21949826.3954
 -10805036.05547  -8383475.31645  22118978.3834                   22118978.4924
 11  8 11 19 29 30.0000000  0  8G11G07G08G26G13G19G28G24
  -6074521.29348  -4697060.48445  21523350.7504                   21523348.2814
  -1564886.62948  -1196640.70346  20445824.7344                   20445822.3834
 -10163863.00448  -7877685.03946  20123253.7584                   20123252.0634
    330974.96947    304619.86344  22945679.0084                   22945677.4414
  17252529.48846  13445756.57043  24519431.9224                   24519437.9774
  14775999.85946  11519775.13743  24352777.0314                   24352774.8404
  -5936028.59048  -4601550.61345  21920846.5234                   21920843.6484
 -10967954.07047  -8510424.37145  22087976.2974                   22087975.7894
 11  8 11 19 30  0.0000000  0  8G11G07G08G26G13G19G28G24
  -6190669.63748  -4787565.69545  21501248.2734                   21501246.1254
  -1661742.92248  -1272113.16046  20427393.5004                   20427391.2704
 -10321233.61348  -8000311.49246  20093307.1804                   20093305.5864
    162815.28947    173586.31343  22913678.8834                   22913676.9844
  17234729.09046  13431885.77043  24516044.5394                   24516050.4064
  14753462.56646  11502213.51644  24348488.4224                   24348486.4104
  -6088432.20348  -4720306.65645  21891844.6564                   21891842.0784
 -11130545.88347  -8637119.23045  22057035.9224                   22057035.9494
 11  8 11 19 30 30.0000000  0  8G11G07G08G26G13G19G28G24
  -6306369.17648  -4877721.19545  21479231.9224                   21479229.3054
  -1758246.92648  -1347311.11746  20409029.3284                   20409027.1484
 -10478290.32048  -8122693.34446  20063419.9144                   20063418.3164
     -4891.81247     42905.45744  22881765.5164                   22881765.1214
  17216716.43046  13417849.62142  24512617.0634                   24512622.9414
  14730840.64547  11484585.93844  24344183.4924                   24344181.3094
  -6240923.69947  -4839131.19145  21862826.6414                   21862824.1684
 -11292799.67647  -8763550.70345  22026159.9694                   22026160.0164
 11  8 11 19 31  0.0000000  0  8G11G07G08G26G13G19G28G24
  -6421616.47748  -4967524.29745  21457300.7894                   21457298.5204
  -1854394.93048  -1422231.68046  20390732.8364                   20390730.6844
 -10635027.50048  -8244826.21546  20033593.9144                   20033592.1214
   -172141.76647    -87419.16844  22849938.8364                   22849938.4384
  17198492.52746  13403648.82842  24509149.3204                   24509156.2894
  14708135.81646  11466893.80544  24339863.1094                   24339860.4494
  -6393499.67248  -4958021.55145  21833792.2734                   21833789.3524
 -11454709.66447  -8889714.28545  21995349.7664                   21995349.4024
 11  8 11 19 31 30.0000000  0  8G11G07G08G26G13G19G28G24
  -6536406.88748  -5056971.37945  21435457.0004                   21435454.9534
  -1950181.83248  -1496870.86346  20372505.2584                   20372502.7814
 -10791437.90248  -8366704.45346  20003830.0864                   20003828.0704
   -338928.71947   -217382.98444  22818199.9144                   22818199.5434
  17180059.76246  13389285.33242  24505642.1884                   24505648.8324
  14685350.79746  11449139.14144  24335527.4304                   24335525.4694
  -6546155.85948  -5076974.42245  21804742.7974                   21804739.9144
 -11616269.12147  -9015604.71145  21964605.7584                   21964605.4614
 11  8 11 19 32  0.0000000  0  8G11G07G08G26G13G19G28G24
  -5075308.64848  -3918453.28545  21713495.1484                   21713492.2854
   -470176.37548   -343619.89846  20654140.7734                   20654138.9224
  -9372086.48848  -7260716.33246  20273923.8914                   20273921.9694
   1070181.84447    880625.24644  23086345.2664                   23086343.6484
  18736843.72346  14602363.34442  24801887.7894                   24801895.9964
  16237911.65246  12658926.76643  24630969.6414                   24630967.5164
  -5123459.65247  -3968379.96145  22075472.7894                   22075470.3754
 -10202042.53148  -7913609.93045  22233724.1414                   22233723.3484
 11  8 11 19 32 30.0000000  0  7G11G07G08G26G19G28G24
  -5189166.12948  -4007173.41045  21691828.3524                   21691826.3444
   -565221.60548   -417681.15246  20636054.4924                   20636052.4534
  -9527817.99648  -7382065.56246  20244288.9144                   20244287.4024
    904343.32447    751400.38344  23054787.4774                   23054785.9024
  16214978.05946  12641056.33243  24626605.9774                   24626603.3554
  -5276258.50448  -4087444.00045  22046396.3914                   22046393.2934
 -10362875.54747  -8038934.30545  22203118.3834                   22203118.3244
 11  8 11 19 33  0.0000000  0  7G11G07G08G26G19G28G24
  -5302548.73048  -4095523.50445  21670252.5704                   21670250.2074
   -659887.37148   -491446.72746  20618040.4614                   20618038.0474
  -9683198.36748  -7503141.18746  20214721.2114                   20214719.3404
    738988.87547    622552.75044  23023321.7664                   23023320.8324
  16191975.17246  12623131.92643  24622227.7034                   24622226.6724
  -5429120.71948  -4206557.41845  22017307.1804                   22017304.5084
 -10523333.92647  -8163966.77345  22172583.9454                   22172584.3914
 11  8 11 19 33 30.0000000  0  7G11G07G08G26G19G28G24
  -5415436.08248  -4183487.67645  21648770.7344                   21648768.1334
   -754152.88348   -564900.40246  20600102.2504                   20600100.1024
  -9838204.98848  -7623925.57446  20185224.1644                   20185222.8134
    574140.39847    494099.42244  22991951.6334                   22991951.6024
  16168921.52046  12605167.97743  24617840.4774                   24617839.6334
  -5582025.85248  -4325704.27345  21988210.6254                   21988207.8134
 -10683394.85947  -8288689.53945  22142125.6254                   22142125.2584
 11  8 11 19 34  0.0000000  0  7G11G07G08G26G19G28G24
  -5527823.27348  -4271062.11345  21627384.0234                   21627382.1334
   -848013.11748   -638038.28546  20582241.1644                   20582239.4224
  -9992830.46548  -7744412.96146  20155800.3444                   20155798.8014
    409803.12547    366044.44944  22960679.6644                   22960677.7704
  16145819.96146  12587166.67643  24613444.9534                   24613444.1524
  -5734969.57047  -4444881.19545  21959106.4924                   21959103.8794
 -10843051.22747  -8413097.05145  22111744.0864                   22111743.6174
 11  8 11 19 34 30.0000000  0  7G11G07G08G26G19G28G24
  -5639710.87548  -4358247.26645  21606092.4924                   21606090.3444
   -941468.35548   -710860.57846  20564457.3984                   20564455.2304
 -10147073.10248  -7864602.03946  20126448.8754                   20126446.8484
    245978.12547    238388.55144  22929504.2274                   22929502.4734
  16122667.92246  12569126.06643  24609039.8054                   24609037.6764
  -5887952.44148  -4564088.63345  21929994.8834                   21929992.2664
 -11002301.57447  -8537188.19545  22081439.3444                   22081439.0864
 11  8 11 19 35  0.0000000  0  7G11G07G08G26G19G28G24
  -5751099.90248  -4445043.90245  21584895.3204                   21584893.4304
  -1034519.48848   -783367.98446  20546750.4924                   20546748.1174
 -10300931.71148  -7984491.87546  20097170.2034                   20097168.6684
     82665.46147    111131.88344  22898426.9384                   22898426.0354
  16099462.14546  12551043.59043  24604623.5864                   24604622.5944
  -6040975.55947  -4683327.40645  21900875.4774                   21900872.8054
 -11161144.57847  -8660961.93445  22051212.5004                   22051212.3404
 11  8 11 19 35 30.0000000  0  7G11G07G08G26G19G28G24
  -5861990.66848  -4531452.27745  21563794.2504                   21563791.5904
  -1127166.25048   -855560.30546  20529120.3674                   20529118.2074
 -10454404.40648  -8104080.99646  20067965.7734                   20067963.7304
    -80134.21547    -15724.96944  22867446.6334                   22867447.1374
  16076200.67246  12532917.69143  24600197.8054                   24600195.9804
  -6194039.58247  -4802598.06245  21871748.2734                   21871745.5904
 -11319578.39847  -8784416.82045  22021063.4774                   22021063.4804
 11  8 11 19 36  0.0000000  0  7G11G07G08G26G19G28G24
  -5972387.19148  -4617475.55145  21542786.2424                   21542784.0984
  -1219412.08648   -927440.20746  20511566.4774                   20511564.2894
 -10607492.50448  -8223370.43446  20038834.0474                   20038831.9884
   -242423.61347   -142184.22344  22836564.8914                   22836564.7464
  16052877.54346  12514743.77044  24595759.2584                   24595757.7504
  -6347148.18447  -4921903.46145  21842612.3054                   21842609.4614
 -11477604.80147  -8907554.25045  21990992.1334                   21990992.1374
 11  8 11 19 36 30.0000000  0  7G11G07G08G26G19G28G24
  -6082293.73448  -4703117.00845  21521872.1174                   21521869.5434
  -1311261.33248   -999011.08246  20494088.2034                   20494086.2624
 -10760198.05948  -8342361.78546  20009775.2504                   20009773.1684
   -404205.80947   -268248.28144  22805779.2194                   22805777.8164
  16029486.43446  12496516.86743  24591308.3364                   24591306.3914
  -6500306.10247  -5041247.28945  21813467.7344                   21813465.0664
 -11635226.08247  -9030376.00845  21960997.9694                   21960997.7934
 11  8 11 19 37  0.0000000  0  7G11G07G08G26G19G28G24
  -6191712.17248  -4788378.11745  21501050.3444                   21501047.7424
  -1402716.04748  -1070274.53946  20476685.2194                   20476682.8284
 -10912520.55548  -8461054.64546  19980788.7814                   19980787.5514
   -565481.97347   -393918.05944  22775088.5004                   22775087.5824
  16006023.71946  12478234.15644  24586843.4454                   24586841.6094
  -6653515.10248  -5160630.91845  21784312.7424                   21784310.2774
 -11792441.96947  -9152881.85245  21931080.6094                   21931079.9144
 11  8 11 19 37 30.0000000  0  7G11G07G08G26G19G28G24
  -6300652.06648  -4873266.34845  21480319.8284                   21480317.5634
  -1493784.99248  -1141237.39846  20459355.2344                   20459353.1024
 -11064467.02748  -8579454.50446  19951874.4844                   19951872.7544
   -726260.31647   -519199.89544  22744493.5084                   22744492.6804
  15982478.21547  12459886.96543  24582363.3754                   24582360.9064
  -6806784.40247  -5280061.54345  21755146.9924                   21755143.9654
 -11949259.39847  -9275077.24245  21901239.5394                   21901238.9304
 11  8 11 19 38  0.0000000  0  7G11G07G08G26G19G28G24
  -4833695.91048  -3730183.63745  21759472.4384                   21759469.9024
     -9050.92648     15698.19946  20741891.1024                   20741888.4694
  -9640616.08648  -7469960.26646  20222824.1254                   20222822.8954
    688879.50847    583506.47344  23013785.4454                   23013784.7934
  17534262.64146  13669069.55143  24877658.4694                   24877655.9924
  -5384694.98447  -4171939.89845  22025761.6174                   22025758.5864
 -10530257.31247  -8169361.31245  22171266.7584                   22171266.2504
 11  8 11 19 38 30.0000000  0  7G11G07G08G26G19G28G24
  -4941692.48848  -3814336.81645  21738921.1024                   21738919.1844
    -99361.67248    -54673.85546  20724705.2194                   20724702.9454
  -9791817.21148  -7587779.33646  20194051.8594                   20194049.8754
    529086.03147    458992.06344  22983377.4924                   22983377.6724
  17510531.74246  13650577.83243  24873142.3364                   24873140.6844
  -5538098.95748  -4291475.44545  21996569.3054                   21996566.8834
 -10686285.80147  -8290941.93445  22141575.8284                   22141575.1724
 11  8 11 19 39  0.0000000  0  7G11G07G08G26G19G28G24
  -5049229.38748  -3898131.81245  21718457.5474                   21718455.4304
   -189304.59448   -124759.29346  20707589.6804                   20707587.5314
  -9942654.28548  -7705314.73046  20165348.8524                   20165346.6524
    369774.97347    334853.60544  22953061.6484                   22953061.6174
  17486693.84446  13632002.73043  24868606.2344                   24868604.0474
  -5691582.05948  -4411072.66046  21967362.2974                   21967360.2734
 -10841928.03547  -8412221.58245  22111957.1724                   22111957.2974
 11  8 11 19 39 30.0000000  0  7G11G07G08G26G19G28G24
  -5156311.10248  -3981572.10945  21698080.5634                   21698078.2424
   -278883.88748   -194561.38346  20690543.4844                   20690541.3754
 -10093129.33648  -7822568.02746  20136714.1804                   20136712.4024
    210942.59047    211088.11744  22922837.4304                   22922836.9534
  17462743.03145  13613339.65643  24864047.0704                   24864046.7194
  -5845148.48447  -4530734.81246  21938140.0084                   21938137.6484
 -10997186.24247  -8533201.99245  22082412.6884                   22082412.6604
 11  8 11 19 40  0.0000000  0  6G11G07G08G26G28G24
  -5262946.19948  -4064664.40245  21677788.7034                   21677786.6454
   -368107.82448   -264086.55946  20673564.7114                   20673562.3404
 -10243248.09848  -7939543.68746  20108147.1094                   20108145.3554
     52581.52047     87689.88744  22892702.2424                   22892701.5744
  -5998806.70348  -4650468.47745  21908899.7344                   21908897.2664
 -11152066.91847  -8653888.22345  22052940.1884                   22052939.9654
 11  8 11 19 40 30.0000000  0  6G11G07G08G26G28G24
  -5369137.04348  -4147410.52745  21657581.2504                   21657578.5434
   -456978.09048   -333336.15646  20656653.0944                   20656650.8404
 -10393010.48048  -8056241.66046  20079648.7584                   20079646.9264
   -105309.07847    -35341.75044  22862656.8674                   22862656.2274
  -6152558.43448  -4770275.02046  21879641.4534                   21879638.9064
 -11306569.95747  -8774280.18045  22023538.8444                   22023538.9924
 11  8 11 19 41  0.0000000  0  6G11G07G08G26G28G24
  -5474882.13348  -4229809.30945  21637458.7504                   21637456.1914
   -545493.43748   -402309.19146  20639809.2814                   20639807.3404
 -10542412.76648  -8172659.02746  20051218.3364                   20051216.3674
   -262727.55147   -158005.48444  22832700.4694                   22832700.3874
  -6306402.53148  -4890153.51646  21850366.1564                   21850363.3984
 -11460692.26647  -8894375.45745  21994210.6414                   21994210.2624
 11  8 11 19 41 30.0000000  0  6G11G07G08G26G28G24
  -5580179.84848  -4311859.48045  21617421.4454                   21617419.1454
   -633651.59848   -471003.89146  20623033.6484                   20623031.2074
 -10691450.75048  -8288792.52346  20022857.2114                   20022855.3914
   -419670.77747   -280298.89544  22802835.4924                   22802835.7114
  -6460336.84448  -5010102.32846  21821073.3984                   21821070.9144
 -11614429.67647  -9014170.80545  21964955.1414                   21964954.9344
 11  8 11 19 42  0.0000000  0  6G11G07G08G26G28G24
  -5685034.25048  -4393564.21945  21597467.8364                   21597465.9384
   -721456.41448   -539423.27346  20606324.7664                   20606322.2934
 -10840126.40248  -8404643.68746  19994565.4224                   19994562.9534
   -576141.89847   -402224.40644  22773060.1254                   22773059.6994
  -6614365.13748  -5130124.36346  21791762.9694                   21791760.3634
 -11767784.04347  -9133667.69145  21935772.9384                   21935772.6804
 11  8 11 19 42 30.0000000  0  6G11G07G08G26G28G24
  -5789445.88348  -4474923.93045  21577599.2344                   21577596.6414
   -808908.01248   -607567.40246  20589683.1954                   20589681.1414
 -10988437.27748  -8520210.61346  19966342.8134                   19966340.8554
   -732139.91847   -523781.32044  22743375.2734                   22743373.6024
  -6768487.60948  -5250219.78546  21762434.8134                   21762431.7304
 -11920753.37947  -9252864.53545  21906663.9144                   21906663.2894
 11  8 11 19 43  0.0000000  0  6G11G07G08G26G28G24
  -5893422.60247  -4555944.75845  21557812.6254                   21557810.7934
   -896014.00848   -675442.24246  20573107.4774                   20573105.3284
 -11136388.74648  -8635497.47746  19938188.1954                   19938186.3524
   -887671.64547   -644974.90644  22713778.2194                   22713777.1484
  -6922711.59047  -5370394.31646  21733086.6484                   21733083.4144
 -12073343.33247  -9371765.76245  21877626.3444                   21877626.8874
 11  8 11 19 43 30.0000000  0  6G11G07G08G26G28G24
  -5996970.46948  -4636631.41845  21538108.5234                   21538106.4344
   -982779.90248   -743052.07046  20556596.5314                   20556594.4884
 -11283984.38348  -8750507.05946  19910101.7344                   19910100.2704
  -1042742.51247   -765809.31244  22684268.9844                   22684268.4414
  -7077042.64548  -5490652.28945  21703718.3754                   21703715.4104
 -12225557.90248  -9490374.49245  21848661.3134                   21848661.0044
 11  8 11 19 44  0.0000000  0  6G11G07G08G26G28G24
  -4524660.89848  -3489377.21545  21818279.9144                   21818277.2304
    506222.60948    417209.59846  20839944.1484                   20839942.1804
  -9855791.99248  -7637629.87146  20181877.9614                   20181875.9654
    378079.12947    341324.43844  22954642.0084                   22954641.5234
  -5656050.02048  -4383385.30946  21974124.4224                   21974121.5234
 -10801964.64548  -8381081.00445  22119561.4694                   22119561.8914
 11  8 11 19 44 30.0000000  0  6G11G07G08G26G28G24
  -4627343.69148  -3569389.78945  21798739.9694                   21798737.1564
    420145.12948    350136.17646  20823564.4774                   20823562.4844
 -10002661.74648  -7752073.83646  20153929.7274                   20153927.6724
    223940.84447    221216.66444  22925311.2504                   22925310.0634
  -5810586.71147  -4503803.50045  21944717.1564                   21944713.7734
 -10953414.45347  -8499093.81645  22090742.3674                   22090741.7544
 11  8 11 19 45  0.0000000  0  6G11G07G08G26G28G24
  -4729588.80948  -3649061.31645  21779283.1094                   21779280.5704
    334417.43848    283335.33246  20807250.8204                   20807248.7464
 -10149159.48448  -7866227.91846  20126051.8134                   20126049.9344
     70275.57447    101477.48444  22896068.5634                   22896067.9064
  -5965220.63748  -4624297.46146  21915290.8594                   21915288.5004
 -11104473.37148  -8616802.03145  22061996.5704                   22061996.1804
 11  8 11 19 45 30.0000000  0  6G11G07G08G26G28G24
  -4831395.16048  -3728390.96145  21759910.8524                   21759907.9144
    249041.29748    216808.43046  20791004.3594                   20791001.9144
 -10295281.43048  -7980089.17646  20098246.1804                   20098244.1684
    -82914.41846    -17891.35244  22866917.8674                   22866917.3714
  -6119949.59848  -4744865.48845  21885847.2734                   21885844.3284
 -11255137.86348  -8734202.90245  22033326.1024                   22033325.3554
 11  8 11 19 46  0.0000000  0  6G11G07G08G26G28G24
  -4932756.93748  -3807374.16845  21740622.0084                   21740618.9774
    164022.90248    150560.31646  20774826.1024                   20774824.0594
 -10441019.00448  -8093650.92646  20070512.8444                   20070510.7584
   -235622.54747   -136884.69544  22837859.1804                   22837858.1954
  -6274767.22748  -4865502.60546  21856386.4534                   21856383.5904
 -11405399.94148  -8851290.21945  22004731.7114                   22004731.8054
 11  8 11 19 46 30.0000000  0  6G11G07G08G26G28G24
  -5033671.34448  -3886008.78545  21721418.1024                   21721415.8524
     79365.24248     84593.25846  20758716.5084                   20758713.9694
 -10586367.21148  -8206909.27346  20042853.8984                   20042852.5004
   -387844.51247   -255499.23044  22808892.0704                   22808891.3984
  -6429670.19148  -4986206.19946  21826909.2894                   21826906.2274
 -11555254.41847  -8968059.92245  21976215.8754                   21976215.3324
 11  8 11 19 47  0.0000000  0  6G11G07G08G26G28G24
  -5134133.12148  -3964290.70345  21702301.0864                   21702298.4344
     -4925.99648     18911.72746  20742676.3364                   20742674.1724
 -10731318.15248  -8319858.07846  20015270.5394                   20015269.2974
   -539574.46147   -373730.38344  22780018.6484                   22780018.3794
  -6584652.56248  -5106971.67646  21797417.0234                   21797414.2974
 -11704693.69948  -9084506.09845  21947778.6254                   21947777.8484
 11  8 11 19 47 30.0000000  0  6G11G07G08G26G28G24
  -5234137.53947  -4042216.24645  21683271.0634                   21683268.3014
    -88845.57048    -46480.19546  20726706.8834                   20726704.5784
 -10875864.78148  -8432491.82046  19987764.6484                   19987762.9344
   -690806.44147   -491573.51644  22751239.8364                   22751239.6174
  -6739709.01248  -5227794.88346  21767910.7194                   21767908.1414
 -11853710.85547  -9200623.34845  21919421.1724                   21919421.1254
 11  8 11 19 48  0.0000000  0  6G11G07G08G26G28G24
  -5333682.55548  -4119783.80145  21664327.7974                   21664325.5124
   -172391.25848   -111580.77046  20710808.8134                   20710806.4344
 -11020002.50048  -8544806.94146  19960336.0554                   19960334.0084
   -841537.66447   -609026.42644  22722556.9224                   22722556.1564
  -6894836.91848  -5348673.77346  21738390.6094                   21738388.3484
 -12002301.84848  -9316408.52345  21891145.6254                   21891144.8714
 11  8 11 19 48 30.0000000  0  6G11G07G08G26G28G24
  -5432768.66047  -4196993.77745  21645472.4304                   21645470.4734
   -255562.70748   -176389.74246  20694981.6414                   20694979.8324
 -11163728.35248  -8656801.12946  19932985.9064                   19932984.1334
   -991767.14547   -726088.40244  22693969.3204                   22693968.7304
  -7050035.55148  -5469607.76646  21708857.4454                   21708854.7584
 -12150464.46947  -9431859.89545  21862951.0784                   21862950.4734
 11  8 11 19 49  0.0000000  0  6G11G07G08G26G28G24
  -5531401.82847  -4273850.80145  21626703.5004                   21626701.3984
   -338365.77348   -240911.66046  20679224.8284                   20679222.7664
 -11307046.16048  -8768477.35546  19905713.4224                   19905711.5784
  -1141499.71547   -842763.15244  22665475.9614                   22665475.2894
  -7205310.16048  -5590600.96146  21679309.8134                   21679307.0204
 -12298202.41047  -9546980.34845  21834837.3364                   21834836.6914
 11  8 11 19 49 30.0000000  0  6G11G07G08G26G28G24
  -5629584.31647  -4350356.63345  21608019.5084                   21608017.5864
   -420802.51648   -305148.12946  20663537.7424                   20663535.6054
 -11449955.94948  -8879835.64846  19878518.5314                   19878516.9344
  -1290737.20347   -959052.10544  22637076.7734                   22637076.6644
  -7360662.57448  -5711654.77746  21649747.2114                   21649744.4064
 -12445516.14147  -9661770.23845  21806804.1954                   21806803.9774
 11  8 11 19 50  0.0000000  0  6G11G07G08G26G28G24
  -4151892.80547  -3198908.70745  21889215.3134                   21889212.8714
   1072550.58648    858503.57846  20947713.1484                   20947711.5354
 -10017030.39548  -7763270.29746  20151195.4844                   20151193.4344
    135946.77347    152649.66044  22908565.9064                   22908564.9654
  -5940666.27748  -4605164.14846  21919963.6564                   21919960.6094
 -11016978.47348  -8548623.98445  22078646.1564                   22078645.8324
 11  8 11 19 50 30.0000000  0  6G11G07G08G26G28G24
  -4249187.75447  -3274722.95745  21870700.7424                   21870698.1484
    990834.67248    794828.79346  20932163.4304                   20932161.6174
 -10159129.59048  -7873996.95746  20124154.7504                   20124152.4844
    -12310.57447     37124.43444  22880353.9694                   22880353.0434
  -6096184.68748  -4726347.31646  21890369.2034                   21890366.7544
 -11163450.27748  -8662757.83645  22050773.6414                   22050772.9884
 11  8 11 19 51  0.0000000  0  6G11G07G08G26G28G24
  -4346040.91448  -3350192.94145  21852270.1094                   21852267.8794
    909477.58248    731433.62146  20916681.8674                   20916680.0944
 -10300821.56648  -7984406.30146  20097191.7344                   20097189.9304
   -160078.29747    -78019.26244  22852234.4384                   22852233.6954
  -6251787.14848  -4847595.98046  21860759.2424                   21860756.4344
 -11309499.59847  -8776562.47745  22022981.5234                   22022980.7114
 11  8 11 19 51 30.0000000  0  6G11G07G08G26G28G24
  -4442442.69548  -3425311.22345  21833925.4534                   21833922.5784
    828489.28548    668325.81346  20901270.2034                   20901268.4804
 -10442094.38348  -8094489.02346  20070308.3364                   20070306.4924
   -307346.36347   -192773.61744  22824209.9614                   22824209.5394
  -6407462.91848  -4968901.77346  21831134.8524                   21831132.4104
 -11455115.08648  -8890029.07445  21995271.3834                   21995271.1644
 11  8 11 19 52  0.0000000  0  6G11G07G08G26G28G24
  -4538391.49248  -3500076.53145  21815666.6564                   21815664.5944
    747872.53948    605507.53146  20885929.1414                   20885927.3364
 -10582943.64148  -8204241.70746  20043505.6724                   20043503.4654
   -454111.67647   -307136.20744  22796281.9224                   22796281.3914
  -6563209.27048  -5090262.56646  21801497.7034                   21801494.6484
 -11600292.36347  -9003154.20345  21967645.6334                   21967644.6414
 11  8 11 19 52 30.0000000  0  6G11G07G08G26G28G24
  -4633889.65248  -3574490.68045  21797494.4924                   21797491.6134
    667624.75048    542976.74646  20870658.9144                   20870657.0864
 -10723368.68448  -8313663.83246  20016783.3204                   20016781.3794
   -600375.50047   -421108.02344  22768448.6094                   22768448.5124
  -6719027.67248  -5211679.50846  21771846.2274                   21771843.6094
 -11745031.53147  -9115937.94145  21940102.3674                   21940101.4694
 11  8 11 19 53  0.0000000  0  6G11G07G08G26G28G24
  -4728939.92647  -3648555.83645  21779406.6484                   21779404.2234
    587743.69948    480731.73046  20855457.9774                   20855455.9774
 -10863369.72748  -8422755.57846  19990142.4064                   19990140.5044
   -746139.78147   -534690.59444  22740710.9064                   22740709.8404
  -6874919.54748  -5333153.70346  21742180.7194                   21742178.1454
 -11889333.08648  -9228380.69145  21912642.5704                   21912642.1604
 11  8 11 19 53 30.0000000  0  6G11G07G08G26G28G24
  -4823543.35547  -3722272.80145  21761404.5394                   21761401.8404
    508228.85248    418772.07046  20840326.3284                   20840324.8484
 -11002945.36748  -8531515.83646  19963582.1804                   19963580.2704
   -891404.42647   -647883.85244  22713067.7814                   22713067.1334
  -7030884.93048  -5454685.16846  21712502.0084                   21712499.2304
 -12033195.91448  -9340481.57445  21885266.1804                   21885265.8244
 11  8 11 19 54  0.0000000  0  6G11G07G08G26G28G24
  -4917702.34847  -3795643.45745  21743486.4774                   21743484.1214
    429078.21148    357096.23446  20825265.0164                   20825262.8014
 -11142095.44148  -8639944.48046  19937102.6174                   19937100.7504
  -1036170.87147   -760688.87544  22685519.6724                   22685519.1024
  -7186925.27048  -5576275.03946  21682808.1484                   21682805.5204
 -12176620.14148  -9452240.69145  21857973.4454                   21857973.3594
 11  8 11 19 54 30.0000000  0  6G11G07G08G26G28G24
  -5011418.99647  -3868669.42245  21725652.8364                   21725650.3754
    350290.13348    295702.88746  20810272.2274                   20810269.9924
 -11280819.46548  -8748041.14846  19910704.3054                   19910702.2074
  -1180440.58647   -873106.83244  22658065.8914                   22658065.3284
  -7343041.37148  -5697923.94546  21653100.4534                   21653097.6454
 -12319605.80547  -9563658.06645  21830764.6334                   21830763.4454
 11  8 11 19 55  0.0000000  0  6G11G07G08G26G28G24
  -5104691.28547  -3941349.13745  21707903.3674                   21707901.1644
    271867.23848    234594.10246  20795348.7274                   20795346.5164
 -11419112.57448  -8855802.03146  19884387.7894                   19884385.8014
  -1324210.49647   -985135.34444  22630707.6724                   22630706.8554
  -7499230.27348  -5819629.59046  21623378.8524                   21623375.8914
 -12462148.50047  -9674730.27045  21803638.7344                   21803638.5704
 11  8 11 19 55 30.0000000  0  6G11G07G08G26G28G24
  -3622094.95747  -2786079.28945  21990032.1094                   21990030.2074
   1769233.73848   1401373.16446  21080287.9384                   21080285.9844
  -9981546.48848  -7735620.68746  20157947.6724                   20157945.8364
    107946.22747    130830.91044  22903238.1414                   22903236.9414
  -6080064.20348  -4713785.88746  21893436.9694                   21893434.3554
 -11028820.21947  -8557851.07445  22076392.2814                   22076391.7114
 11  8 11 19 56  0.0000000  0  6G11G07G08G26G28G24
  -3714472.74648  -2858062.00445  21972453.3204                   21972450.6764
   1691548.23048   1340838.95746  21065505.2344                   21065502.9774
 -10118964.14548  -7842699.39846  20131798.0944                   20131796.0984
    -34815.09447     19588.31344  22876071.4924                   22876070.8984
  -6236388.84848  -4835597.29346  21863689.4304                   21863686.5984
 -11170464.66047  -8668223.35945  22049438.2114                   22049437.6884
 11  8 11 19 56 30.0000000  0  6G11G07G08G26G28G24
  -3806399.53948  -2929693.30145  21954960.4924                   21954957.7424
   1614236.13748   1280595.73846  21050793.2504                   21050791.1914
 -10255936.53148  -7949431.14846  20105733.2504                   20105731.0984
   -177067.13347    -91257.44944  22849001.3984                   22849001.2074
  -6392775.71948  -4957457.18746  21833930.0554                   21833927.4024
 -11311652.48848  -8778239.82845  22022571.3284                   22022570.7734
 11  8 11 19 57  0.0000000  0  6G11G07G08G26G28G24
  -3897865.82848  -3000965.77045  21937554.9064                   21937552.4414
   1537307.19947   1220651.07846  21036153.9774                   21036152.3484
 -10392451.79348  -8055806.69146  20079755.0084                   20079753.3014
   -318799.29347   -201698.10544  22822031.0634                   22822030.9534
  -6549214.16848  -5079357.27346  21804160.5394                   21804157.8714
 -11452371.94147  -8887891.33645  21995793.3984                   21995792.8714
 11  8 11 19 57 30.0000000  0  6G11G07G08G26G28G24
  -3988869.09048  -3071877.43045  21920237.3674                   21920235.5044
   1460764.10548   1161007.06646  21021588.3984                   21021586.7424
 -10528504.21148  -8161821.58246  20053865.1334                   20053863.1454
   -460008.46547   -311731.22744  22795159.8524                   22795159.6844
  -6705700.28148  -5201294.49246  21774382.5944                   21774379.6844
 -11592618.64547  -8997174.47745  21969105.1174                   21969104.8094
 11  8 11 19 58  0.0000000  0  6G11G07G08G26G28G24
  -4079393.71148  -3142416.12945  21903011.5784                   21903009.2974
   1384622.94948   1101676.25446  21007099.4694                   21007097.2664
 -10664075.51248  -8267461.57446  20028067.3914                   20028065.1764
   -600678.07047   -421343.93444  22768391.6884                   22768390.5314
  -6862217.31648  -5323255.81646  21744598.1174                   21744595.3164
 -11732374.94547  -9106075.48045  21942510.7584                   21942510.0944
 11  8 11 19 58 30.0000000  0  6G11G07G08G26G28G24
  -4169432.19948  -3212576.03145  21885878.0084                   21885875.3524
   1308892.14848   1042665.20346  20992688.0704                   20992686.2544
 -10799155.55948  -8372718.77346  20002362.3054                   20002359.9454
   -740799.30547   -530529.34044  22741727.0944                   22741726.2974
  -7018755.93048  -5445233.94546  21714809.7664                   21714806.8134
 -11871630.49648  -9214586.29345  21916011.3364                   21916010.4024
 11  8 11 19 59  0.0000000  0  6G11G07G08G26G28G24
  -4258978.43748  -3282352.33645  21868837.4534                   21868835.3914
   1233578.29348    983979.05546  20978356.6174                   20978354.4304
 -10933735.68748  -8477586.42246  19976752.6254                   19976750.8284
   -880365.18447   -639282.01244  22715168.8054                   22715168.5394
  -7175308.62548  -5567223.05546  21685018.4144                   21685016.0204
 -12010377.10948  -9322700.53545  21889608.4224                   21889607.4264
 11  8 11 19 59 30.0000000  0  6G11G07G08G26G28G24
  -4348025.15648  -3351739.40245  21851892.6174                   21851890.4804
   1158688.78548    925623.54746  20964105.9924                   20964103.4224
 -11067805.99648  -8582056.81246  19951239.3134                   19951237.6374
  -1019367.85547   -747595.77344  22688717.4304                   22688716.8014
  -7331866.87948  -5689216.50446  21655226.8594                   21655224.0594
 -12148605.47747  -9430410.94945  21863304.1884                   21863304.1844
 11  8 11 20  0  0.0000000  0  6G11G07G08G26G28G24
  -4436569.70348  -3420735.18445  21835043.6174                   21835040.3954
   1084227.12548    867601.44146  20949936.0234                   20949934.1684
 -11201361.26648  -8686125.86346  19925825.0394                   19925822.8674
  -1157803.57047   -855467.78544  22662373.5084                   22662372.9694
  -7488426.53148  -5811211.03946  21625433.9454                   21625431.5824
 -12286310.53947  -9537713.59445  21837100.1254                   21837099.5124
 11  8 11 20  0 30.0000000  0  6G11G07G08G26G28G24
  -4524607.80948  -3489336.32045  21818290.1254                   21818287.9024
   1010197.98448    809916.34846  20935848.7894                   20935847.1054
 -11334394.51248  -8789788.14846  19900509.3524                   19900507.3324
  -1295667.25047   -962894.04745  22636138.8914                   22636138.9454
  -7644981.72748  -5933202.09046  21595642.7274                   21595640.4184
 -12423486.10547  -9644603.64845  21810995.9144                   21810995.8984
 11  8 11 20  1  0.0000000  0  6G11G07G08G26G28G24
  -4612136.15248  -3557540.25445  21801634.5474                   21801631.9344
    936605.09048    752571.18046  20921844.4534                   20921842.4694
 -11466899.89848  -8893039.11746  19875294.5944                   19875292.6334
  -1432954.78547  -1069871.37144  22610014.1804                   22610014.0204
  -7801527.64848  -6055185.92646  21565853.1954                   21565850.8244
 -12560126.46147  -9751076.64545  21784994.4774                   21784994.0164
 11  8 11 20  1 30.0000000  0  6G11G07G08G26G28G24
  -3123732.30148  -2397745.05145  22084868.2034                   22084865.4844
   2438870.75848   1923167.75846  21207716.1564                   21207714.2464
 -10023450.84448  -7768273.63746  20149973.9534                   20149971.8134
      5758.77347     51204.14144  22883792.6414                   22883792.4774
  -6382637.81648  -4949557.47746  21835859.3594                   21835856.2704
 -11120805.38747  -8629527.75445  22058888.5864                   22058887.5314
 11  8 11 20  2  0.0000000  0  6G11G07G08G26G28G24
  -3210237.15648  -2465151.43745  22068406.5164                   22068404.2344
   2366155.48048   1866506.45746  21193879.0704                   21193877.0824
 -10154888.54348  -7870692.64546  20124962.0864                   20124960.1644
   -130369.79747    -54870.09044  22857888.2894                   22857887.5514
  -6539156.38348  -5071519.99646  21806074.5634                   21806071.8284
 -11256365.03547  -8735158.63745  22033091.8204                   22033091.8134
 11  8 11 20  2 30.0000000  0  6G11G07G08G26G28G24
  -3296230.75048  -2532159.43745  22052042.4454                   22052040.4224
   2293879.10548   1810187.18046  21180125.1094                   21180123.6484
 -10285788.89548  -7972692.93746  20100052.5084                   20100050.5514
   -265918.18747   -160492.25044  22832093.9924                   22832093.3484
  -6695659.55948  -5193470.52046  21776293.0634                   21776290.2464
 -11391381.57447  -8840366.33245  22007399.0554                   22007398.6134
 11  8 11 20  3  0.0000000  0  6G11G07G08G26G28G24
  -3381709.33648  -2598766.14545  22035776.6804                   22035774.2974
   2222046.44547   1754213.63746  21166456.2344                   21166454.3094
 -10416145.14548  -8074269.25046  20075246.6024                   20075244.5904
   -400881.58247   -265658.55945  22806411.6254                   22806411.0474
  -6852141.46948  -5315404.48446  21746515.3284                   21746512.6844
 -11525848.70347  -8945145.89845  21981810.9144                   21981810.2424
 11  8 11 20  3 30.0000000  0  6G11G07G08G26G28G24
  -3466671.50848  -2664970.43445  22019608.4534                   22019606.6174
   2150659.30948   1698587.26646  21152871.3284                   21152869.4734
 -10545953.30148  -8175418.48046  20050544.5634                   20050543.1134
   -535257.83647   -370367.34444  22780840.6644                   22780841.0204
  -7008599.26248  -5437319.64546  21716742.5474                   21716739.8094
 -11659762.92647  -9049494.62545  21956327.5314                   21956327.5274
 11  8 11 20  4  0.0000000  0  6G11G07G08G26G28G24
  -3551123.34448  -2730777.07845  22003537.9304                   22003536.2464
   2079712.01248   1643303.61346  21139370.6884                   21139369.0634
 -10675217.28948  -8276143.68446  20025947.0234                   20025944.8834
   -669052.11346   -474622.64544  22755379.9694                   22755380.0164
  -7165037.14848  -5559219.28946  21686973.3204                   21686970.5434
 -11793128.18447  -9153415.60245  21930949.5634                   21930948.6844
 11  8 11 20  4 30.0000000  0  6G11G07G08G26G28G24
  -3635064.31647  -2796185.65245  21987564.3284                   21987562.0634
   2009205.39148   1588363.35546  21125954.0164                   21125951.8594
 -10803933.94948  -8376442.39546  20001452.3914                   20001451.0274
   -802263.26647   -578423.57044  22730030.9614                   22730030.2034
  -7321452.89548  -5681101.69146  21657208.3754                   21657205.1884
 -11925942.03547  -9256906.91445  21905675.8054                   21905675.0434
 11  8 11 20  5  0.0000000  0  6G11G07G08G26G28G24
  -3718497.44548  -2861198.50045  21971688.0634                   21971685.8244
   1939137.11347   1533764.65246  21112620.4304                   21112618.8324
 -10932103.60948  -8476314.87546  19977063.0314                   19977061.2034
   -934893.51247   -681771.86344  22704792.3284                   22704791.9924
  -7477848.13748  -5802968.10246  21627447.4614                   21627444.8094
 -12058205.31247  -9359969.19945  21880506.6564                   21880506.3244
 11  8 11 20  5 30.0000000  0  6G11G07G08G26G28G24
  -3801433.32848  -2925823.88745  21955905.7814                   21955903.9454
   1869497.21547   1479499.74646  21099368.1804                   21099366.1724
 -11059733.93748  -8575767.09046  19952775.8754                   19952773.8524
  -1066952.55947   -784675.03144  22679662.6334                   22679662.1684
  -7634231.19948  -5924825.03146  21597688.6334                   21597686.0084
 -12189926.26247  -9462608.89145  21855440.9844                   21855440.7464
 11  8 11 20  6  0.0000000  0  6G11G07G08G26G28G24
  -3883873.94547  -2990063.33645  21940217.4614                   21940215.5274
   1800283.85248   1425567.21546  21086197.6484                   21086195.5554
 -11186824.31248  -8674798.56646  19928590.9384                   19928589.3324
  -1198441.64147   -887134.07444  22654640.7424                   22654640.2974
  -7790602.07848  -6046672.47346  21567932.4384                   21567929.3554
 -12321104.70347  -9564825.85245  21830479.1094                   21830478.3094
 11  8 11 20  6 30.0000000  0  6G11G07G08G26G28G24
  -3965830.96948  -3053925.97345  21924621.9774                   21924619.7664
   1731486.04348   1371958.49246  21073105.8594                   21073104.1094
 -11313383.69548  -8773416.28546  19904507.9844                   19904506.3014
  -1329371.62947   -989157.48044  22629726.5084                   22629725.5434
  -7946971.12548  -6168518.47346  21538176.4694                   21538173.2234
 -12451750.21947  -9666627.54745  21805617.7974                   21805617.0824
 11  8 11 20  7  0.0000000  0  6G11G07G08G26G28G24
  -4047305.06247  -3117412.29345  21909118.2424                   21909115.7504
   1663103.52047   1318673.37946  21060092.7664                   21060090.7664
 -11439410.60948  -8871619.09046  19880525.9384                   19880523.9574
  -1459742.51646  -1090745.21944  22604916.2974                   22604915.7344
  -8103337.15247  -6290362.12146  21508420.7344                   21508418.3834
 -12581861.68447  -9768013.10945  21780858.3594                   21780857.9104
 11  8 11 20  7 30.0000000  0  6G11G07G08G26G28G24
  -2552883.42647  -1952927.92245  22193496.5784                   22193494.1684
   3170549.39147   2493306.48446  21346950.2504                   21346948.8834
  -9989487.78548  -7741809.10946  20156437.2034                   20156435.1024
    -14138.97747     35699.08644  22880006.3594                   22880005.6414
  -6684282.37148  -5184605.15246  21778458.1094                   21778455.0634
 -11136022.25047  -8641384.98045  22055992.7584                   22055991.7584
 11  8 11 20  8  0.0000000  0  6G11G07G08G26G28G24
  -2633416.28947  -2015680.80545  22178172.0634                   22178169.4384
   3102974.83247   2440650.94146  21334091.2894                   21334089.6374
 -10114465.99648  -7839194.75046  20132654.3984                   20132652.5904
   -143413.65247    -65034.46944  22855406.4144                   22855405.8914
  -6840660.42247  -5306458.17646  21748700.3054                   21748697.6134
 -11265083.22347  -8741951.95745  22031432.8674                   22031432.1414
 11  8 11 20  8 30.0000000  0  6G11G07G08G26G28G24
  -2713481.45347  -2078069.24645  22162936.2814                   22162933.8754
   3035801.92247   2388308.38746  21321308.4614                   21321306.8914
 -10238919.08648  -7936171.20746  20108971.8754                   20108970.0744
   -272142.16047   -165342.42644  22830909.9774                   22830909.4924
  -6997044.56648  -5428315.94146  21718941.2114                   21718938.7894
 -11393618.78147  -8842109.54345  22006973.2974                   22006972.7854
 11  8 11 20  9  0.0000000  0  6G11G07G08G26G28G24
  -2793089.83247  -2140101.76245  22147786.9774                   22147784.2304
   2969020.57048   2336270.92646  21308600.6334                   21308599.0204
 -10362854.64848  -8032744.39146  20085387.4304                   20085385.5354
   -400334.38347   -265232.48044  22806515.8984                   22806515.1254
  -7153443.37148  -5550185.13346  21689179.7974                   21689176.5704
 -11521637.48847  -8941864.38745  21982612.8984                   21982611.7154
 11  8 11 20  9 30.0000000  0  6G11G07G08G26G28G24
  -2872251.11747  -2201785.89145  22132722.9774                   22132720.7734
   2902621.25047   2284531.17646  21295965.5634                   21295963.4884
 -10486280.60548  -8128920.48446  20061900.3204                   20061898.5164
   -527999.47747   -364711.80544  22782222.1644                   22782221.5704
  -7309865.23048  -5672072.31646  21659413.3364                   21659410.4924
 -11649147.14147  -9041222.55945  21958348.1334                   21958347.5944
 11  8 11 20 10  0.0000000  0  6G11G07G08G26G28G24
  -2950966.17647  -2263122.31645  22117744.6414                   22117741.7424
   2836603.54348   2233088.77046  21283403.0864                   21283401.1094
 -10609195.77048  -8224698.55546  20038510.4614                   20038508.4614
   -655137.73847   -463780.62945  22758028.1884                   22758028.2544
  -7466308.55948  -5793976.19946  21629643.5944                   21629640.1604
 -11776146.71947  -9140183.27345  21934180.6884                   21934180.0314
 11  8 11 20 10 30.0000000  0  6G11G07G08G26G28G24
  -3029239.11747  -2324114.23445  22102849.7424                   22102847.2504
   2770964.02748   2181941.05146  21270911.7424                   21270910.1454
 -10731600.74248  -8320079.07846  20015217.5704                   20015216.0044
   -781752.42647   -562441.42644  22733934.2194                   22733933.9024
  -7622775.22348  -5915898.27746  21599868.6804                   21599866.5744
 -11902638.10547  -9238747.98845  21910110.0314                   21910109.5744
 11  8 11 20 11  0.0000000  0  6G11G07G08G26G28G24
  -3107080.45347  -2384769.82845  22088036.5314                   22088034.0514
   2705692.58648   2131080.14546  21258491.0394                   21258489.6214
 -10853503.81248  -8415068.50046  19992020.1414                   19992018.3404
   -907853.31647   -660701.89544  22709938.1644                   22709937.5474
  -7779273.80148  -6037845.22346  21570087.9454                   21570085.5234
 -12028629.46148  -9336923.07045  21886135.0944                   21886134.6644
 11  8 11 20 11 30.0000000  0  6G11G07G08G26G28G24
  -3184492.37147  -2445090.82045  22073305.3204                   22073303.2584
   2640787.80148   2080504.93846  21246140.3284                   21246138.6884
 -10974904.30948  -8509666.31246  19968918.4844                   19968916.8524
  -1033442.09847   -758563.32444  22686039.3674                   22686039.0004
  -7935804.45348  -6159817.16046  21540301.1174                   21540298.3484
 -12154121.34048  -9434708.94545  21862254.6724                   21862253.7584
 11  8 11 20 12  0.0000000  0  6G11G07G08G26G28G24
  -3261479.92247  -2505081.14845  22058655.2974                   22058652.9144
   2576244.79747   2030211.64546  21233858.3594                   21233856.7034
 -11095804.96148  -8603874.62546  19945911.8204                   19945909.7734
  -1158523.09847   -856029.05944  22662237.2114                   22662236.8404
  -8092369.87147  -6281816.18446  21510508.0474                   21510504.7854
 -12279116.61747  -9532107.84845  21838468.7664                   21838468.3134
 11  8 11 20 12 30.0000000  0  6G11G07G08G26G28G24
  -3338049.14847  -2564745.51245  22044084.8984                   22044082.8094
   2512058.47747   1980196.28146  21221643.9144                   21221642.5634
 -11216209.23048  -8697696.15646  19922999.9144                   19922997.9694
  -1283101.39847   -953103.07844  22638531.1334                   22638530.7504
  -8248973.88348  -6403845.30546  21480706.9224                   21480704.3094
 -12403619.21947  -9629122.85245  21814777.0864                   21814776.2504
 11  8 11 20 13  0.0000000  0  6G11G07G08G26G28G24
  -1838773.78547  -1396479.01645  22329387.7734                   22329385.5354
   4023654.98048   3158063.64146  21509291.1484                   21509289.7774
  -9760686.69548  -7563522.76646  20199976.5394                   20199974.7624
    168251.30947    177821.07444  22914713.9224                   22914713.8284
  -6830185.65247  -5298296.03546  21750693.5394                   21750690.6484
 -10952199.39547  -8498146.37145  22090973.0864                   22090972.2664
 11  8 11 20 13 30.0000000  0  6G11G07G08G26G28G24
  -1914502.94147  -1455488.78145  22314976.5864                   22314974.3444
   3960186.41048   3108607.56346  21497213.8834                   21497212.2234
  -9880087.02348  -7656562.00446  20177255.5394                   20177253.6914
     44683.35947     81534.32844  22891200.0314                   22891199.3594
  -6986857.27748  -5420377.82446  21720879.8914                   21720877.0664
 -11075707.30947  -8594386.30545  22067469.7664                   22067469.1684
 11  8 11 20 14  0.0000000  0  6G11G07G08G26G28G24
  -1989822.50447  -1514179.37145  22300643.9454                   22300641.8284
   3897067.14548   3059423.65646  21485202.1804                   21485201.0274
  -9998992.11348  -7749215.34046  20154628.7504                   20154627.0634
    -78388.82447    -14366.09044  22867779.8134                   22867780.2974
  -7143569.21148  -5542491.02746  21691058.5084                   21691055.7624
 -11198725.25848  -8690244.44145  22044060.6334                   22044059.6454
 11  8 11 20 14 30.0000000  0  6G11G07G08G26G28G24
  -2064730.98047  -1572549.65245  22286389.3754                   22286387.0274
   3834299.11348   3010513.44546  21473258.2664                   21473256.5744
 -10117398.23048  -7841479.86346  20132096.9304                   20132094.9454
   -200963.22347   -109878.64144  22844454.7194                   22844454.9884
  -7300318.04748  -5664632.97746  21661230.4064                   21661227.4384
 -11321249.93447  -8785718.21545  22020744.7664                   22020744.2344
 11  8 11 20 15  0.0000000  0  6G11G07G08G26G28G24
  -2139231.55547  -1630602.07445  22272212.6804                   22272209.9654
   3771879.87148   2961875.01246  21461380.0634                   21461378.7344
 -10235305.91448  -7933356.00446  20109659.4144                   20109657.6334
   -323042.42247   -205005.33244  22821223.8984                   22821224.0514
  -7457104.50048  -5786804.23846  21631394.9774                   21631392.0274
 -11443282.50847  -8880808.53145  21997522.5084                   21997522.5474
 11  8 11 20 15 30.0000000  0  6G11G07G08G26G28G24
  -2213321.30947  -1688334.38745  22258114.0944                   22258111.9844
   3709812.50848   2913510.78146  21449569.2194                   21449567.8674
 -10352709.72748  -8024839.52046  20087318.3984                   20087316.3834
   -444622.88747   -299743.37544  22798088.2034                   22798087.8874
  -7613923.32848  -5909000.72746  21601553.2344                   21601550.5124
 -11564817.96547  -8975511.48845  21974395.4144                   21974394.7464
 11  8 11 20 16  0.0000000  0  6G11G07G08G26G28G24
  -2287004.83247  -1745750.14145  22244092.5084                   22244090.1684
   3648093.08248   2865417.66046  21437824.3524                   21437822.6454
 -10469611.28948  -8115931.66846  20065072.5944                   20065071.0204
   -565708.33247   -394095.72344  22775046.2424                   22775045.4844
  -7770777.03148  -6031224.39846  21571704.6954                   21571702.0124
 -11685858.79347  -9069829.02045  21951362.1334                   21951361.5634
 11  8 11 20 16 30.0000000  0  6G11G07G08G26G28G24
  -2360281.77747  -1802849.10545  22230148.2194                   22230146.5204
   3586722.41848   2817596.29746  21426146.0474                   21426144.6914
 -10586008.52748  -8206630.84446  20042922.9384                   20042921.2814
   -686298.18747   -488061.87144  22752099.3914                   22752099.4344
  -7927662.74248  -6153473.00046  21541850.7114                   21541848.1094
 -11806402.99647  -9163759.56645  21928423.0394                   21928422.7074
 11  8 11 20 17  0.0000000  0  6G11G07G08G26G28G24
  -2433152.21547  -1859631.29744  22216281.0314                   22216278.8244
   3525700.80948   2770046.93046  21414534.2814                   21414532.5824
 -10701898.67248  -8296934.88346  20020870.0084                   20020868.2274
   -806391.87147   -581641.40244  22729245.7894                   22729245.5474
  -8084578.00448  -6275744.61746  21511990.5474                   21511987.4104
 -11926448.58647  -9257301.57445  21905579.0944                   21905578.5784
 11  8 11 20 17 30.0000000  0  6G11G07G08G26G28G24
  -2505612.17647  -1916093.64145  22202492.5864                   22202490.4384
   3465032.76248   2722773.06346  21402989.5394                   21402987.8244
 -10817275.68448  -8386839.07446  19998914.3674                   19998912.6644
   -925984.74247   -674830.65644  22706487.8914                   22706486.8134
  -8241516.83648  -6398034.61746  21482126.2504                   21482123.2734
 -12045989.74247  -9350450.52045  21882831.5234                   21882830.9844
 11  8 11 20 18  0.0000000  0  6G11G07G08G26G28G24
  -2577650.64547  -1972227.55544  22188784.3754                   22188782.4104
   3404730.01248   2675783.84446  21391514.4144                   21391512.7544
 -10932125.81248  -8476332.71146  19977059.2424                   19977057.4964
  -1045065.28947   -767620.75844  22683827.9064                   22683827.2704
  -8398465.49248  -6520332.27046  21452259.7424                   21452256.8834
 -12165013.52347  -9443196.32045  21860181.9304                   21860181.4924
 11  8 11 20 18 30.0000000  0  6G11G07G08G26G28G24
  -2649259.78147  -2028026.91045  22175157.5004                   22175155.2894
   3344800.85548   2629085.74246  21380110.0234                   21380108.2814
 -11046438.69548  -8565407.71546  19955306.2974                   19955304.5664
  -1163625.24647   -860005.17244  22661266.6094                   22661266.1094
  -8555413.49248  -6642629.41446  21422393.2734                   21422391.1254
 -12283510.00447  -9535531.23845  21837632.9614                   21837631.8404
 11  8 11 20 19  0.0000000  0  6G11G07G08G26G28G24
  -1145002.13747   -855878.14544  22461408.3674                   22461406.3134
   4860682.96548   3810292.52346  21668573.0394                   21668571.3594
  -9584773.23048  -7426447.64146  20233451.8524                   20233450.3984
    293775.25047    275631.52344  22938600.6024                   22938600.7344
  -7136917.80948  -5537308.09846  21692324.2034                   21692321.7774
 -10826038.12147  -8399838.84445  22114980.7344                   22114979.9024
 11  8 11 20 19 30.0000000  0  6G11G07G08G26G28G24
  -1215708.08647   -910973.71145  22447953.0704                   22447951.2584
   4801547.18448   3764212.62946  21657319.7344                   21657318.6024
  -9697960.22348  -7514645.31646  20211913.1334                   20211911.3594
    176303.12147    184094.75444  22916246.8754                   22916245.9844
  -7293812.52348  -5659563.71146  21662468.0234                   21662465.2114
 -10943429.70747  -8491312.80545  22092641.7424                   22092640.9574
 11  8 11 20 20  0.0000000  0  6G11G07G08G26G28G24
  -1285952.81647   -965709.89844  22434586.6174                   22434583.8284
   4742818.29348   3718449.78946  21646143.8754                   21646142.7464
  -9810570.92248  -7602393.93746  20190484.0314                   20190482.7344
     59385.02047     92989.67644  22893997.3134                   22893996.6484
  -7450667.25048  -5781788.17246  21632619.6724                   21632617.3134
 -11060256.66047  -8582346.78945  22070410.3054                   22070409.6604
 11  8 11 20 20 30.0000000  0  6G11G07G08G26G28G24
  -1355727.69547  -1020079.95345  22421308.8754                   22421306.2544
   4684505.66048   3673011.30946  21635047.3284                   21635046.3524
  -9922594.23848  -7689684.85546  20169166.7274                   20169165.2034
    -56969.66847      2323.64544  22871856.2194                   22871856.2344
  -7607470.40248  -5903972.44546  21602780.8054                   21602778.7034
 -11176508.10247  -8672932.32045  22048288.2274                   22048287.5784
 11  8 11 20 21  0.0000000  0  6G11G07G08G26G28G24
  -1425021.07847  -1074074.81644  22408122.7734                   22408120.6054
   4626621.07047   3627906.37146  21624032.6414                   21624031.3284
 -10034016.36348  -7776507.31646  20147963.8054                   20147962.1884
   -172748.91847    -87893.96544  22849824.2894                   22849824.9654
  -7764208.11748  -6026105.73446  21572954.7894                   21572951.9344
 -11292170.89147  -8763059.17245  22026278.1334                   22026278.0234
 11  8 11 20 21 30.0000000  0  6G11G07G08G26G28G24
  -1493818.11347  -1127682.91844  22395030.8204                   22395028.1804
   4569180.41047   3583147.34846  21613101.9924                   21613100.8524
 -10144820.12948  -7862847.93446  20126878.6724                   20126876.9454
   -287937.22747   -177651.14144  22827905.1174                   22827904.4964
  -7920862.68048  -6148174.23046  21543144.2504                   21543141.6564
 -11407228.12147  -8852714.15245  22004383.6724                   22004383.1994
 11  8 11 20 22  0.0000000  0  6G11G07G08G26G28G24
  -1562099.76647  -1180889.42244  22382037.8204                   22382034.4774
   4512202.56648   3538748.95746  21602259.4304                   21602258.7154
 -10254984.32448  -7948690.18046  20105914.9774                   20105913.5164
   -402515.41447   -266932.89844  22806101.5004                   22806100.8054
  -8077412.60248  -6270161.18046  21513353.9224                   21513351.6914
 -11521659.14847  -8941881.21545  21982608.3204                   21982607.6564
 11  8 11 20 22 30.0000000  0  6G11G07G08G26G28G24
  -1629855.09047  -1233685.79745  22369143.8914                   22369141.5514
   4455699.21547   3494720.30546  21591507.4304                   21591506.0594
 -10364495.46948  -8034023.55946  20085075.8754                   20085074.3404
   -516472.06247   -355730.32444  22784416.6334                   22784416.3914
  -8233844.24248  -6392055.95746  21483586.2194                   21483583.4264
 -11635451.20347  -9030550.35545  21960954.3134                   21960953.5434
 11  8 11 20 23  0.0000000  0  6G11G07G08G26G28G24
  -1697077.16047  -1286066.64545  22356352.0234                   22356349.4654
   4399677.78548   3451067.18846  21580847.1644                   21580845.7854
 -10473344.13348  -8118840.72746  20064362.5944                   20064361.2624
   -629799.38747   -444037.35244  22762850.6724                   22762850.7664
  -8390147.74248  -6513850.89146  21453842.7274                   21453839.6214
 -11748595.32447  -9118714.60545  21939423.4534                   21939423.2774
 11  8 11 20 23 30.0000000  0  6G11G07G08G26G28G24
  -1763756.75047  -1338024.79344  22343663.1724                   22343661.1844
   4344148.16447   3407797.27746  21570279.9774                   21570278.8984
 -10581519.10948  -8203132.94146  20043777.4454                   20043775.9804
   -742488.30547   -531846.93044  22741406.7504                   22741406.0744
  -8546311.56248  -6635536.98046  21424125.5234                   21424122.8094
 -11861080.69147  -9206365.56645  21918018.5704                   21918017.8794
 11  8 11 20 24  0.0000000  0  6G11G07G08G26G28G24
  -1829891.39147  -1389558.32444  22331078.0944                   22331076.2734
   4289113.63347   3364913.16446  21559807.8594                   21559806.3954
 -10689015.50448  -8286896.39546  20023321.6334                   20023320.1884
   -854535.19947   -619156.25444  22720085.0944                   22720084.7624
  -8702330.30148  -6757110.02046  21394436.2274                   21394433.3634
 -11972902.95347  -9293499.80545  21896739.3204                   21896738.6994
 11  8 11 20 24 30.0000000  0  6G11G07G08G26G28G24
  -1895479.10947  -1440665.68444  22318597.3984                   22318595.1334
   4234576.05548   3322416.28946  21549429.2114                   21549427.7624
 -10795829.07848  -8370127.77746  20002996.1094                   20002994.2074
   -965938.23847   -705963.85244  22698885.8984                   22698885.7584
  -8858199.10548  -6878566.23446  21364775.6884                   21364772.4184
 -12084058.43747  -9380114.47745  21875587.4144                   21875586.6254
 11  8 11 20 25  0.0000000  0  6G11G07G08G26G28G24
   -385094.51647   -263742.66044  22606014.1414                   22606011.8834
   5755960.88347   4507910.88346  21838939.3594                   21838938.4064
  -9326530.89848  -7225220.13346  20282593.7034                   20282592.5704
    498730.09447    435336.11344  22977602.7344                   22977602.9654
  -7438486.79748  -5772296.91046  21634937.5864                   21634934.7624
 -10619118.39147  -8238602.76245  22154356.0944                   22154355.4064
 11  8 11 20 25 30.0000000  0  6G11G07G08G26G28G24
   -449581.68447   -313992.44544  22593742.7664                   22593740.4534
   5702425.48448   4466194.92246  21828751.9144                   21828750.6374
  -9431965.47348  -7307376.97346  20262530.6484                   20262528.8754
    388623.02747    349538.34844  22956650.7194                   22956649.8754
  -7594040.96148  -5893507.93746  21605336.7584                   21605334.1024
 -10728928.36747  -8324168.97745  22133460.2664                   22133459.5514
 11  8 11 20 26  0.0000000  0  6G11G07G08G26G28G24
   -513524.40247   -363817.98444  22581574.7664                   22581572.5984
   5649386.35548   4424865.64846  21818659.0554                   21818657.8914
  -9536712.84848  -7388998.33246  20242597.8594                   20242596.6764
    279159.02347    264241.67244  22935820.0314                   22935819.8444
  -7749439.12548  -6014597.40246  21575765.6804                   21575762.4024
 -10838068.83647  -8409213.49245  22112691.1254                   22112690.3164
 11  8 11 20 26 30.0000000  0  7G11G07G08G26G04G28G24
   -576931.14847   -413225.87544  22569508.5164                   22569506.9844
   5596835.31347   4383916.71946  21808658.6414                   21808657.8204
  -9640779.63748  -7470089.36346  20222794.6484                   20222792.9104
    170329.36347    179439.32044  22915110.7974                   22915111.0274
  34199475.08256  26706998.26253  24623116.3984                   24623123.4804
  -7904686.90648  -6135569.70346  21546222.6174                   21546219.5124
 -10946546.77347  -8493741.75845  22092048.3594                   22092048.1524
 11  8 11 20 27  0.0000000  0  7G11G07G08G26G04G28G24
   -639816.58247   -462227.54344  22557542.4304                   22557540.1844
   5544758.10948   4343337.00446  21798748.9694                   21798747.5004
  -9744178.05948  -7550659.59446  20203118.5394                   20203117.1954
     62120.19147     95120.46544  22894518.9224                   22894518.8674
  33951196.59446  26513534.91043  24575870.2274                   24575877.2304
  -8059796.52348  -6256434.33646  21516706.3444                   21516703.6644
 -11054374.98447  -8577763.74245  22071529.4614                   22071528.9064
 11  8 11 20 27 30.0000000  0  7G11G07G08G26G04G28G24
   -702194.61747   -510833.83244  22545672.0944                   22545670.2664
   5493141.51647   4303116.21546  21788926.6484                   21788925.7894
  -9846919.89148  -7630718.19146  20183567.2424                   20183565.7274
    -45482.48047     11274.18044  22874042.7194                   22874042.5434
  33702932.49246  26320082.78143  24528626.8674                   24528632.9184
  -8214778.87948  -6377199.79746  21487214.3054                   21487211.5664
 -11161565.72347  -8661289.00445  22051131.6564                   22051130.9924
 11  8 11 20 28  0.0000000  0  7G11G07G08G26G04G28G24
   -764073.78147   -559051.39544  22533896.5084                   22533894.9694
   5441977.34847   4263247.95346  21779190.6564                   21779189.6914
  -9949011.59448  -7710270.19546  20164140.0704                   20164138.3204
   -152486.52047    -72105.62944  22853680.6884                   22853680.6564
  33454679.29346  26126639.16043  24481385.6024                   24481392.0944
  -8369639.44548  -6497870.36346  21457745.1804                   21457742.2154
 -11268125.71147  -8744322.75845  22030853.9304                   22030853.3094
 11  8 11 20 28 30.0000000  0  7G11G07G08G26G04G28G24
   -825468.06647   -606891.13744  22522213.9844                   22522212.3754
   5391252.28947   4223721.86345  21769537.9064                   21769536.9064
 -10050464.55148  -7789324.47746  20144834.2894                   20144832.5274
   -258905.56647   -155029.59444  22833429.9924                   22833430.3834
  33206427.90646  25933196.91843  24434144.5704                   24434151.1604
  -8524389.23848  -6618454.62146  21428297.0084                   21428294.5744
 -11374067.13747  -8826874.53145  22010694.1334                   22010693.9224
 11  8 11 20 29  0.0000000  0  7G11G07G08G26G04G28G24
   -886379.63347   -654354.72344  22510622.4924                   22510620.8954
   5340964.25847   4184536.30146  21759968.3754                   21759967.6524
 -10151279.29348  -7867881.45346  20125649.7974                   20125648.0204
   -364741.53147   -237499.23044  22813289.7664                   22813289.7704
  32958180.84046  25739758.02343  24386904.1884                   24386911.1174
  -8679027.45748  -6738951.92246  21398870.6644                   21398867.8594
 -11479390.82447  -8908944.94545  21990651.4694                   21990650.9654
 11  8 11 20 29 30.0000000  0  7G11G07G08G26G04G28G24
   -946813.89547   -701446.38344  22499122.5314                   22499120.4304
   5291108.55547   4145687.62945  21750481.7734                   21750480.2384
 -10251458.98048  -7945943.57846  20106586.0944                   20106584.2194
   -469999.46947   -319518.44944  22793260.1094                   22793259.5474
  32709937.66046  25546322.17643  24339664.7894                   24339671.0824
  -8833556.72748  -6859364.33646  21369464.3984                   21369461.4224
 -11584100.46547  -8990536.88345  21970726.0784                   21970725.4844
 11  8 11 20 30  0.0000000  0  7G11G07G08G26G04G28G24
  -1006779.69147   -748173.01644  22487711.3284                   22487709.7624
   5241677.02347   4107169.46946  21741074.5084                   21741073.6134
 -10351010.15648  -8023515.95746  20087642.3134                   20087640.5594
   -574687.89547   -401093.88344  22773339.0554                   22773338.6214
  32461694.61746  25352886.42643  24292425.5554                   24292432.0164
  -8987982.94548  -6979696.46546  21340078.1254                   21340075.3094
 -11688203.25847  -9071655.94945  21950915.9384                   21950915.3834
 11  8 11 20 30 30.0000000  0  7G11G07G08G26G04G28G24
    509139.34047    433062.55944  22776181.6254                   22776179.6484
   6768085.93447   5296578.92646  22031540.7424                   22031539.9384
  -8874513.00048  -6872998.72346  20368610.2814                   20368609.0274
    896611.35947    745373.03544  23053317.6484                   23053318.1054
  33788879.29746  26387056.65643  24544980.0474                   24544986.6604
  -7566883.49648  -5872346.24246  21610504.4774                   21610501.8714
 -10216279.62947  -7924702.47345  22231013.4384                   22231012.9454
 11  8 11 20 31  0.0000000  0  7G11G07G08G26G04G28G24
    450092.09047    387051.67244  22764945.3284                   22764943.0594
   6719485.18847   5258708.12546  22022292.7974                   22022291.3674
  -8972819.61348  -6949601.31246  20349903.6094                   20349901.9224
    793044.06347    664671.21144  23033609.6484                   23033609.5704
  33540632.66046  26193618.05143  24497740.9774                   24497746.0634
  -7721112.53548  -5992524.71946  21581155.8284                   21581152.5634
 -10319182.23047  -8004886.32445  22211432.2734                   22211431.4774
 11  8 11 20 31 30.0000000  0  7G11G07G08G26G04G28G24
    391490.59047    341388.14844  22753794.0084                   22753791.7934
   6671286.81647   5221150.87545  22013121.1564                   22013119.5084
  -9070514.37548  -7025727.12546  20331312.5004                   20331311.2974
    690024.19147    584395.93844  23014005.3284                   23014005.6524
  33292378.03146  26000173.20743  24450498.5554                   24450504.7194
  -7875252.33248  -6112633.64846  21551824.0314                   21551821.1524
 -10421496.32447  -8084611.59845  22191962.5234                   22191961.7624
 11  8 11 20 32  0.0000000  0  7G11G07G08G26G04G28G24
    333333.83247    296071.16844  22742727.2894                   22742724.9264
   6623490.65648   5183907.03146  22004025.6334                   22004024.3244
  -9167596.46948  -7101375.54346  20312838.3754                   20312837.1134
    587551.12947    504546.76244  22994504.9924                   22994505.3754
  33044119.84846  25806725.61742  24403256.6564                   24403262.2624
  -8029300.45748  -6232671.14546  21522509.4844                   21522506.6134
 -10523221.11747  -8163877.67245  22172605.0004                   22172604.4264
 11  8 11 20 32 30.0000000  0  7G11G07G08G26G04G28G24
    275614.40247    251094.96144  22731743.3284                   22731741.3134
   6576089.30147   5146970.81645  21995005.8364                   21995004.3594
  -9264071.12948  -7176550.63746  20294480.0784                   20294478.9264
    485617.60947    425118.00444  22975108.3984                   22975107.3754
  32795855.44146  25613273.15242  24356012.3984                   24356018.9304
  -8183261.50848  -6352640.79346  21493211.8674                   21493208.8634
 -10624362.50847  -8242689.14545  22153357.6724                   22153357.9384
 11  8 11 20 33  0.0000000  0  7G11G07G08G26G04G28G24
    218325.10947    206453.91844  22720841.1564                   22720839.3554
   6529076.39547   5110337.29345  21986059.4224                   21986058.6054
  -9359943.10248  -7251256.10546  20276236.3204                   20276234.8754
    384216.77347    346104.33244  22955812.6174                   22955811.9804
  32547582.85546  25419814.31343  24308767.6724                   24308773.6134
  -8337139.34448  -6472545.59446  21463929.8834                   21463926.7934
 -10724925.69947  -8321050.06645  22134221.3524                   22134221.1374
 11  8 11 20 33 30.0000000  0  7G11G07G08G26G04G28G24
    161460.30947    162143.64544  22710020.4694                   22710018.3364
   6482446.49647   5074002.22345  21977186.0944                   21977185.1054
  -9455216.41448  -7325495.08246  20258106.5004                   20258104.9384
    283343.00047    267501.34844  22936616.8754                   22936616.4774
  32299301.47346  25226348.63343  24261521.3444                   24261527.6054
  -8490936.43448  -6592387.49246  21434663.1024                   21434660.5044
 -10824915.25847  -8398964.02745  22115194.3674                   22115193.5314
 11  8 11 20 34  0.0000000  0  7G11G07G08G26G04G28G24
    105024.27747    118167.47744  22699281.4694                   22699279.3754
   6436204.47347   5037969.38345  21968386.1804                   21968385.2624
  -9549884.87948  -7399262.75046  20240091.5704                   20240089.9414
    183001.13747    189312.84444  22917522.1024                   22917522.6334
  32051020.70746  25032883.44943  24214274.7424                   24214280.6844
  -8644645.55548  -6712160.83646  21405413.0944                   21405410.1334
 -10924325.43047  -8476426.51645  22096276.7894                   22096276.3054
 11  8 11 20 34 30.0000000  0  7G11G07G08G26G04G28G24
     49014.62947     74523.57844  22688622.9064                   22688620.6844
   6390348.23847   5002237.16845  21959660.4534                   21959659.2734
  -9643948.84848  -7472559.37946  20222191.2504                   20222190.2304
     83188.40647    111536.64544  22898528.8054                   22898528.5984
  31802742.98046  24839420.61343  24167029.1954                   24167034.5784
  -8798266.03148  -6831865.10246  21376180.4304                   21376177.2344
 -11023156.91447  -8553438.07445  22077469.6644                   22077469.6054
 11  8 11 20 35  0.0000000  0  7G11G07G08G26G04G28G24
     -6574.07847     31207.65244  22678044.6644                   22678042.9344
   6344872.98447   4966801.81645  21951006.7894                   21951005.6454
  -9737411.80548  -7545387.69946  20204406.6024                   20204404.7814
    -16099.82847     34169.14544  22879634.7114                   22879634.6524
  31554468.20346  24645960.10943  24119782.9304                   24119789.3054
  -8951799.80148  -6951501.80946  21346963.8134                   21346960.9384
 -11121413.72747  -8630001.85245  22058772.0944                   22058771.9344
 11  8 11 20 35 30.0000000  0  7G11G07G08G26G04G28G24
    -61734.05147    -11774.18044  22667547.8364                   22667546.2734
   6299786.86347   4931669.66845  21942426.8284                   21942426.4384
  -9830264.05548  -7617740.13746  20186737.5474                   20186735.9964
   -114856.02747    -42783.79744  22860842.1954                   22860841.8484
  31306209.30546  24452511.97343  24072540.7734                   24072546.7584
  -9105236.03948  -7071062.50846  21317765.8834                   21317763.0434
 -11219086.73447  -8706110.70345  22040185.8364                   22040185.4104
 11  8 11 20 36  0.0000000  0  7G11G07G08G26G04G28G24
   -116463.00047    -54420.16844  22657133.2194                   22657131.8834
   6255092.40647   4896842.74645  21933921.9534                   21933921.2704
  -9922501.30148  -7689613.34846  20169185.3134                   20169183.4104
   -213077.65247   -119320.17244  22842150.7974                   22842151.0434
  31057973.49246  24259081.82043  24025303.3834                   24025308.8094
  -9258569.28148  -7190542.96146  21288587.1094                   21288584.4884
 -11316172.40647  -8781761.89545  22021711.1414                   22021710.5314
 11  8 11 20 36 30.0000000  0  7G11G07G08G26G04G28G24
   1404663.26647   1130872.99244  22946594.0164                   22946592.8364
   7786214.00047   6089924.39845  22225285.1174                   22225284.2934
  -8438696.36348  -6533401.75046  20451543.7974                   20451542.5594
   1264661.23447   1032164.62144  23123355.6254                   23123355.1604
  32385196.63346  25293282.00443  24277865.2814                   24277870.5634
  -7836368.80948  -6082334.79746  21559223.4224                   21559220.4804
  -9837243.53947  -7629349.81245  22303141.8364                   22303141.3984
 11  8 11 20 37  0.0000000  0  7G11G07G08G26G04G28G24
   1350806.23847   1088906.42244  22936345.2664                   22936343.4414
   7742314.23447   6055716.70745  22216931.5634                   22216930.2114
  -8529688.32048  -6604304.60546  20434228.7734                   20434227.1254
   1167519.17647    956469.47744  23104870.2894                   23104870.3054
  32137032.62546  25099907.77043  24230640.4774                   24230646.4414
  -7989476.68748  -6201639.63346  21530087.5704                   21530084.9024
  -9933140.03547  -7704074.37545  22284893.4694                   22284892.6884
 11  8 11 20 37 30.0000000  0  7G11G07G08G26G04G28G24
   1297390.78547   1047283.94944  22926181.2584                   22926179.2894
   7698818.09847   6021823.51245  22208654.3984                   22208653.7664
  -8620049.66448  -6674716.07046  20417033.3984                   20417032.2664
   1070922.63747    881199.41844  23086488.3444                   23086488.7774
  31888917.69846  24906571.79343  24183425.7424                   24183431.1644
  -8142461.06648  -6320848.24646  21500975.5784                   21500973.1174
 -10028434.37147  -7778329.71145  22266759.6024                   22266758.7304
 11  8 11 20 38  0.0000000  0  7G11G07G08G26G04G28G24
   1244415.52347   1006004.49244  22916099.9534                   22916098.1134
   7655724.60547   5988244.07045  22200454.1644                   22200452.9384
  -8709779.55148  -6744635.50846  20399958.3204                   20399957.1604
    974870.59047    806353.61744  23068210.1954                   23068209.7664
  31640855.62546  24713276.96943  24136220.9924                   24136225.7464
  -8295320.12548  -6439959.19546  21471887.6024                   21471884.6214
 -10123126.26647  -7852115.60545  22248740.2034                   22248739.5944
 11  8 11 20 38 30.0000000  0  7G11G07G08G26G04G28G24
   1191878.76247    965066.71144  22906103.4454                   22906100.8014
   7613032.47347   5954977.38745  22192329.8914                   22192329.0704
  -8798877.55148  -6814062.55946  20383003.6414                   20383002.4224
    879361.01247    731930.52744  23050035.7734                   23050035.6564
  31392850.19546  24520026.30943  24089026.6954                   24089031.8554
  -8448052.52748  -6558971.46546  21442823.7584                   21442820.9734
 -10217216.28547  -7925432.51245  22230835.7664                   22230835.4654
 11  8 11 20 39  0.0000000  0  7G11G07G08G26G04G28G24
   1139775.74647    924466.93044  22896187.7814                   22896186.3524
   7570737.23847   5922019.94945  22184281.3984                   22184280.4574
  -8887346.72348  -6882999.60946  20366168.7424                   20366167.4924
    784389.65247    657926.83644  23031962.5864                   23031962.8714
  31144901.98846  24326820.20343  24041843.5634                   24041848.2234
  -8600659.51248  -6677885.99646  21413783.2424                   21413780.5474
 -10310707.60947  -7998282.91045  22213045.2504                   22213044.3914
 11  8 11 20 39 30.0000000  0  7G11G07G08G26G04G28G24
   1088106.14147    884204.86344  22886355.7034                   22886353.7544
   7528839.02047   5889371.89545  22176308.6334                   22176307.5704
  -8975185.90248  -6951445.77346  20349453.2194                   20349452.0354
    689956.10247    584342.21144  23013993.0164                   23013992.9104
  30897015.64146  24133662.30143  23994672.2274                   23994676.8874
  -8753138.25448  -6796700.59846  21384767.8204                   21384765.1954
 -10403599.44947  -8070666.15645  22195367.6414                   22195367.5354
 11  8 11 20 40  0.0000000  0  7G11G07G08G26G04G28G24
   1036854.36347    844268.36744  22876603.0784                   22876601.1884
   7487322.89847   5857021.56645  22168408.6954                   22168407.4344
  -9062408.73448  -7019411.66046  20332855.8284                   20332854.3204
    596044.62147    511164.36744  22996121.9144                   22996122.0594
  30649180.77346  23940544.53143  23947510.3984                   23947515.3324
  -8905501.02048  -6915424.83246  21355774.1414                   21355771.5704
 -10495905.94147  -8142593.31245  22177802.3364                   22177802.1294
 11  8 11 20 40 30.0000000  0  7G11G07G08G26G04G28G24
    986022.23447    804658.87144  22866929.6024                   22866927.9924
   7446190.60547   5824970.32845  22160581.5234                   22160580.8014
  -9149011.89848  -7086894.68446  20316375.4064                   20316373.7814
    502657.44947    438395.10944  22978351.7194                   22978351.3794
  30401404.45746  23747472.31343  23900360.2034                   23900364.2814
  -9057742.66848  -7034054.68746  21326803.6724                   21326800.7034
 -10587624.25847  -8214062.13745  22160349.6564                   22160348.4224
 11  8 11 20 41  0.0000000  0  7G11G07G08G26G04G28G24
    935595.87147    765365.57044  22857334.3834                   22857332.5314
   7405429.10947   5793208.01645  22152824.7274                   22152824.1024
  -9235007.31648  -7153904.14546  20300011.1254                   20300009.6804
    409780.52347    366023.44944  22960677.7274                   22960677.6414
  30153678.19546  23554439.10243  23853219.4454                   23853223.8594
  -9209873.60948  -7152598.27746  21297853.8594                   21297851.1764
 -10678766.59447  -8285082.14545  22143005.3524                   22143004.9804
 11  8 11 20 41 30.0000000  0  7G11G07G08G26G04G28G24
    885570.27347    726384.53944  22847814.8914                   22847812.7934
   7365033.62947   5761730.92245  22145137.9064                   22145137.1054
  -9320398.05948  -7220442.42646  20283761.9144                   20283760.5664
    317408.98447    294045.57444  22943100.0004                   22943099.5634
  29906002.24646  23361445.07843  23806088.0864                   23806092.2704
  -9361895.49648  -7271056.88746  21268924.9384                   21268922.4454
 -10769336.70347  -8355656.25045  22125770.3754                   22125770.1914
 11  8 11 20 42  0.0000000  0  7G11G07G08G26G04G28G24
    835935.50847    687708.05544  22838369.3134                   22838368.0314
   7324994.34847   5730531.37545  22137518.9304                   22137518.3404
  -9405193.12948  -7286516.55546  20267626.2344                   20267624.7504
    225532.66847    222453.57844  22925616.3674                   22925616.4384
  29658371.77346  23168486.46543  23758964.8444                   23758969.7384
  -9513814.92248  -7389435.66446  21240015.8284                   21240013.1374
 -10859343.63747  -8425791.55545  22108643.1884                   22108642.4494
 11  8 11 20 42 30.0000000  0  7G11G07G08G26G04G28G24
   2362110.72747   1876935.43044  23128790.6884                   23128789.0554
   8860730.77347   6927209.00445  22429759.6414                   22429759.5984
  -7913970.02048  -6124524.56646  20551396.2194                   20551394.9384
   1709572.51647   1378848.22344  23208019.7504                   23208019.3284
  30986218.31346  24203172.30543  24011645.6334                   24011650.2894
  -8090205.62948  -6280129.73046  21510919.2584                   21510916.7424
  -9373365.59047  -7267886.59445  22391414.9774                   22391414.6644
 11  8 11 20 43  0.0000000  0  7G11G07G08G26G04G28G24
   2313246.54347   1838859.39844  23119492.7034                   23119490.0314
   8821394.52747   6896557.25445  22422273.9144                   22422273.5664
  -7997578.91448  -6189674.40246  20535486.2664                   20535484.9414
   1618676.07447   1308019.75444  23190722.7034                   23190723.2304
  30738684.09446  24010288.74243  23964541.6484                   23964546.0514
  -8241920.65648  -6398349.22346  21482049.5474                   21482046.4384
  -9462253.27747  -7337149.73845  22374500.4144                   22374499.9534
 11  8 11 20 43 30.0000000  0  7G11G07G08G26G04G28G24
   2264759.43447   1801077.19544  23110266.0234                   23110263.6844
   8782402.02047   6866173.36745  22414854.3834                   22414854.1684
  -8080600.35948  -6254366.48446  20519688.0554                   20519686.1914
   1528261.45747   1237566.75044  23173517.7664                   23173517.5394
  30491197.98446  23817442.69943  23917446.1254                   23917451.3554
  -8393536.37548  -6516491.35246  21453197.4384                   21453195.3014
  -9550587.71947  -7405981.78545  22357690.7114                   22357690.5204
 11  8 11 20 44  0.0000000  0  7G11G07G08G26G04G28G24
   2216644.58647   1763585.05944  23101109.9534                   23101107.6844
   8743748.82847   6836053.87545  22407499.1174                   22407498.4224
  -8163037.91048  -6318603.57846  20504000.3674                   20503999.1844
   1438323.70747   1167485.33644  23156402.9454                   23156403.2814
  30243760.16046  23624634.30943  23870360.0084                   23870364.4774
  -8545054.78148  -6634557.63746  21424364.4924                   21424361.8594
  -9638372.45747  -7474385.49645  22340985.6334                   22340985.4614
 11  8 11 20 44 30.0000000  0  7G11G07G08G26G04G28G24
   2168900.06647   1726381.49244  23092024.2814                   23092021.9104
   8705433.45747   6806197.62945  22400207.7814                   22400207.8524
  -8244891.43048  -6382385.58246  20488424.4304                   20488422.6764
   1348860.79746   1097773.93044  23139379.0004                   23139379.2074
  29996374.28147  23431866.37543  23823283.8984                   23823288.1024
  -8696474.02748  -6752546.65646  21395550.7194                   21395548.0394
  -9725608.41047  -7542361.57845  22324385.6174                   22324385.7854
 11  8 11 20 45  0.0000000  0  7G11G07G08G26G04G28G24
   2121516.98446   1689459.54343  23083006.9224                   23083006.0084
   8667447.24247   6776597.85945  22392979.4844                   22392979.0044
  -8326168.76648  -6445718.61346  20472957.8134                   20472955.8324
   1259863.80547   1028425.57844  23122442.6884                   23122443.1764
  29749036.56346  23239135.97343  23776216.9534                   23776221.4654
  -8847799.43448  -6870462.55946  21366754.5234                   21366751.4534
  -9812303.11347  -7609915.90245  22307887.7974                   22307887.7704
 11  8 11 20 45 30.0000000  0  7G11G07G08G26G04G28G24
   2074486.93446   1652812.71143  23074058.4304                   23074055.7974
   8629782.07447   6747248.27745  22385812.3444                   22385811.6054
  -8406876.60248  -6508607.88346  20457599.6024                   20457598.1024
   1171324.53947    959433.87944  23105594.5394                   23105595.1954
  29501744.06346  23046440.85243  23729158.3914                   23729162.2234
  -8999035.93448  -6988309.19546  21337975.1094                   21337972.0234
  -9898463.89548  -7677054.17245  22291492.2584                   22291491.8834
 11  8 11 20 46  0.0000000  0  7G11G07G08G26G04G28G24
   2027801.06646   1616434.05543  23065174.1414                   23065171.6094
   8592429.77347   6718142.47345  22378704.4694                   22378704.1134
  -8487022.17248  -6571059.00846  20442348.5234                   20442347.2464
   1083233.69147    890791.59444  23088831.5234                   23088832.1564
  29254493.10547  22853778.03943  23682107.8524                   23682111.2624
  -9150188.98048  -7106090.79346  21309211.5554                   21309208.4534
  -9984098.53947  -7743782.48445  22275196.5784                   22275196.1414
 11  8 11 20 46 30.0000000  0  7G11G07G08G26G04G28G24
   1981450.33646   1580316.56343  23056353.7344                   23056352.1884
   8555381.08647   6689273.23045  22371653.8674                   22371654.1724
  -8566613.33648  -6633078.14546  20427203.0944                   20427201.4804
    995581.84847    822491.39844  23072152.3674                   23072152.6174
  29007279.88747  22661144.66843  23635064.7504                   23635068.3674
  -9301264.34448  -7223811.84846  21280462.7114                   21280459.9344
 -10069215.28548  -7810107.24645  22258999.6254                   22258998.7074
 11  8 11 20 47  0.0000000  0  7G11G07G08G26G04G28G24
   1935430.53547   1544456.91444  23047596.8984                   23047594.5594
   8518632.20347   6660637.62945  22364661.3984                   22364660.7774
  -8645652.82048  -6694667.39546  20412161.8674                   20412160.6564
    908365.37147    754530.44944  23055555.2734                   23055555.4574
  28760105.84447  22468541.83243  23588028.8134                   23588032.7624
  -9452262.55548  -7341472.79346  21251728.7114                   21251725.7814
 -10153817.09447  -7876030.74645  22242899.9064                   22242899.4734
 11  8 11 20 47 30.0000000  0  7G11G07G08G26G04G28G24
   1889736.85947   1508851.40644  23038901.6724                   23038900.2384
   8482179.27047   6632232.61745  22357724.5474                   22357724.6764
  -8724143.18748  -6755828.76646  20397225.6884                   20397224.4614
    821579.17247    686904.79344  23039040.3444                   23039041.0474
  28512971.97346  22275970.27043  23541000.4304                   23541004.1724
  -9603184.50048  -7459074.31646  21223009.0704                   21223006.6954
 -10237907.26647  -7941555.59845  22226898.3524                   22226898.5594
 11  8 11 20 48  0.0000000  0  7G11G07G08G26G04G28G24
   3419776.49247   2701090.03544  23330058.7114                   23330057.0084
  10021429.14847   7831647.98445  22650634.1254                   22650634.1524
  -7226675.49248  -5588970.86346  20682184.4924                   20682183.4614
   2310631.76647   1847205.47344  23322397.6094                   23322398.0704
  29841297.27046  23311029.22743  23793771.8284                   23793776.1134
  -8178616.02048  -6349020.95346  21494095.3754                   21494092.6524
  -8746076.75047  -6779090.28145  22510784.4844                   22510783.8404
 11  8 11 20 48 30.0000000  0  7G11G07G08G26G04G28G24
   3374696.09047   2665962.39544  23321480.2114                   23321478.3834
   9985529.10547   7803673.79745  22643802.6484                   22643802.5554
  -7304103.75448  -5649304.62946  20667450.6094                   20667449.1094
   2224666.71947   1780219.66844  23306039.5164                   23306039.6454
  29594220.42647  23118502.10243  23746754.9774                   23746758.2544
  -8329413.82448  -6466525.75846  21465399.8054                   21465397.1214
  -8829180.15647  -6843846.21145  22494970.1254                   22494970.3054
 11  8 11 20 49  0.0000000  0  7G11G07G08G26G04G28G24
   3329915.13747   2631068.08644  23312958.8444                   23312957.2114
   9949899.12147   7775910.03545  22637022.6254                   22637022.4304
  -7381005.76248  -5709228.32046  20652816.5394                   20652814.9024
   2139104.99247   1713548.13344  23289757.5234                   23289758.3444
  29347172.95746  22925997.87943  23699743.0784                   23699746.7274
  -8480151.62548  -6583983.78946  21436715.1484                   21436712.4144
  -8911795.75447  -6908222.02745  22479249.0554                   22479248.5164
 11  8 11 20 49 30.0000000  0  7G11G07G08G26G04G28G24
   3285416.73447   2596393.94544  23304491.4064                   23304489.1844
   9914522.71147   7748343.87945  22630290.7344                   22630290.7734
  -7457397.03548  -5768754.03946  20638279.8364                   20638278.3404
   2053929.35947   1647177.44944  23273549.2584                   23273549.7624
  29100143.55946  22733507.70243  23652734.8054                   23652737.9844
  -8630842.76648  -6701405.45746  21408039.5314                   21408037.1214
  -8993939.32847  -6972230.03145  22463618.1954                   22463617.3984
 11  8 11 20 50  0.0000000  0  7G11G07G08G26G04G28G24
   3241191.14847   2561932.38344  23296075.2114                   23296073.5634
   9879390.30547   7720967.82845  22623605.3914                   22623605.1374
  -7533286.20348  -5827888.51246  20623838.5474                   20623837.2274
   1969130.12147   1581100.05944  23257413.0234                   23257412.9454
  28853127.60246  22541028.02043  23605728.8594                   23605732.3404
  -8781493.29348  -6818795.48846  21379371.9454                   21379368.9304
  -9075619.72347  -7035877.11745  22448074.1644                   22448073.8984
 11  8 11 20 50 30.0000000  0  7G11G07G08G26G04G28G24
   3197225.30546   2527673.22344  23287708.5314                   23287707.0664
   9844488.93447   7693771.82845  22616963.8134                   22616964.2034
  -7608684.81648  -5886640.73446  20609490.5784                   20609489.7274
   1884693.98047   1515305.59844  23241344.9304                   23241345.4494
  28606117.72746  22348553.06343  23558723.6724                   23558727.5784
  -8932112.73048  -6936161.28546  21350710.2274                   21350707.4224
  -9156848.91047  -7099172.59444  22432616.5784                   22432616.7274
 11  8 11 20 51  0.0000000  0  7G11G07G08G26G04G28G24
   3153520.21146   2493617.21543  23279392.1024                   23279390.5314
   9809819.67247   7666756.68445  22610367.0634                   22610367.1724
  -7683590.60548  -5945008.93746  20595236.4144                   20595235.5474
   1800621.50447   1449794.50444  23225346.4144                   23225346.8634
  28359120.28147  22156087.79744  23511721.4534                   23511725.6094
  -9082696.40248  -7053499.21946  21322054.8754                   21322052.1484
  -9237625.13347  -7162115.13345  22417245.9844                   22417245.3484
 11  8 11 20 51 30.0000000  0  7G11G07G08G26G04G28G24
   3110078.93046   2459766.79743  23271124.1724                   23271123.8364
   9775386.32447   7639925.35545  22603814.7504                   22603814.3554
  -7757999.37148  -6002989.85946  20581077.4924                   20581076.0664
   1716915.74247   1384569.16044  23209417.6724                   23209418.5124
  28112143.72346  21963638.79744  23464724.3754                   23464727.4734
  -9233237.71948  -7170804.15246  21293407.7194                   21293405.2074
  -9317944.48047  -7224701.63744  22401961.5474                   22401960.9454
 11  8 11 20 52  0.0000000  0  7G11G07G08G26G04G28G24
   3066899.02046   2426120.05943  23262907.4694                   23262906.6174
   9741186.48047   7613275.99645  22597306.2584                   22597306.8754
  -7831912.42648  -6060584.50446  20567011.9774                   20567010.9774
   1633574.00047   1319627.48044  23193558.9454                   23193559.0824
  27865191.06347  21771208.39544  23417730.4844                   23417733.4494
  -9383735.39148  -7288075.07846  21264769.1334                   21264766.1294
  -9397808.28547  -7286933.18045  22386763.9064                   22386763.1454
 11  8 11 20 52 30.0000000  0  7G11G07G08G26G04G28G24
   3023971.03946   2392669.58643  23254739.0864                   23254737.4304
   9707211.09847   7586801.54345  22590841.6804                   22590842.0314
  -7905337.57848  -6117798.96546  20553039.8204                   20553038.5904
   1550586.69147   1254961.97744  23177766.4534                   23177766.4144
  27618258.38346  21578793.54744  23370739.6954                   23370743.1604
  -9534195.64148  -7405316.83646  21236137.6334                   21236134.7274
  -9477225.01247  -7348816.37145  22371652.1334                   22371651.0984
 11  8 11 20 53  0.0000000  0  7G11G07G08G26G04G28G24
   2981290.23046   2359411.72743  23246617.3284                   23246616.3404
   9673455.75047   7560498.53945  22584417.7584                   22584418.2234
  -7978278.02048  -6174635.72346  20539159.8204                   20539158.4264
   1467949.05547   1190568.96144  23162041.5314                   23162041.6684
  27371346.61747  21386394.98844  23323754.4064                   23323757.0594
  -9684619.00448  -7522529.84846  21207513.0394                   21207510.2154
  -9556198.70747  -7410354.31645  22356623.4614                   22356622.6804
 11  8 11 20 53 30.0000000  0  7G11G07G08G26G04G28G24
   2938852.74247   2326343.54343  23238542.5004                   23238539.8954
   9639916.75047   7534364.10245  22578035.6094                   22578036.4104
  -8050736.83248  -6231097.19146  20525371.0554                   20525370.0944
   1385656.59447   1126444.89844  23146381.4844                   23146382.0204
  27124457.13347  21194013.77744  23276772.3134                   23276775.5204
  -9835005.65648  -7639714.25846  21178895.3054                   21178892.3984
  -9634732.18447  -7471549.24244  22341678.8984                   22341678.3284
 11  8 11 20 54  0.0000000  0  7G11G07G08G26G04G28G24
   4472069.23847   3521057.64143  23530303.5314                   23530301.3204
  11182004.39547   8735990.70345  22871485.3444                   22871485.6174
  -6547301.44148  -5059589.14846  20811465.9454                   20811464.7664
   2879121.41847   2290183.66444  23430578.3204                   23430579.4454
  28453012.78547  22229252.14544  23529588.1564                   23529591.3484
  -8409937.93048  -6529271.87146  21450076.2504                   21450073.8484
  -8137413.23047  -6304807.22745  22626609.5004                   22626608.6724
 11  8 11 20 54 30.0000000  0  7G11G07G08G26G04G28G24
   4430090.25847   3488346.72343  23522315.9224                   23522313.1884
  11148870.89147   8710172.25845  22865180.4304                   22865180.8634
  -6618821.58648  -5115319.18446  20797855.8204                   20797854.5554
   2797491.16847   2226575.62544  23415044.5704                   23415045.5634
  28206156.58646  22036896.87543  23482613.0944                   23482615.5314
  -8560268.55148  -6646412.62146  21421469.2274                   21421466.8364
  -8215092.12147  -6365336.22345  22611827.6094                   22611827.1684
 11  8 11 20 55  0.0000000  0  7G11G07G08G26G04G28G24
   4388336.99647   3455811.67644  23514370.8594                   23514368.0234
  11115936.87947   8684509.24245  22858913.5554                   22858913.9534
  -6689874.27048  -5170684.96546  20784334.8524                   20784334.0744
   2716188.06647   2163222.50044  23399573.4614                   23399573.9414
  27959321.77047  21844558.26644  23435641.6254                   23435644.8204
  -8710569.02347  -6763529.87146  21392868.6484                   21392865.6134
  -8292345.56647  -6425533.71945  22597126.7274                   22597126.1684
 11  8 11 20 55 30.0000000  0  7G11G07G08G26G04G28G24
   4346804.12547   3423448.37544  23506467.1174                   23506464.9264
  11083197.52347   8658997.91445  22852683.5234                   22852684.1294
  -6760463.74248  -5225689.80546  20770902.2034                   20770901.5204
   2635206.36747   2100119.81644  23384162.9454                   23384163.7664
  27712508.26247  21652236.26244  23388674.7034                   23388677.2624
  -8860841.18747  -6880625.07846  21364272.4224                   21364269.6724
  -8369178.48047  -6485403.55144  22582505.5474                   22582505.3594
 11  8 11 20 56  0.0000000  0  7G11G07G08G26G04G28G24
   4305494.90647   3391259.31344  23498606.0554                   23498604.7114
  11050655.93847   8633640.70745  22846491.3984                   22846491.1994
  -6830585.50848  -5280330.19546  20757558.7274                   20757557.6604
   2554548.90247   2037269.77044  23368814.6254                   23368815.1334
  27465725.21147  21459938.00044  23341712.8284                   23341715.2624
  -9011078.15648  -6997692.84846  21335683.4304                   21335680.9774
  -8445586.89147  -6544942.58644  22567965.8524                   22567965.5354
 11  8 11 20 56 30.0000000  0  7G11G07G08G26G04G28G24
   4264409.62947   3359244.75444  23490787.3834                   23490786.6954
  11018312.56347   8608437.91444  22840336.7814                   22840336.2854
  -6900238.25448  -5334605.12546  20744304.0704                   20744303.2034
   2474216.04347   1974672.66844  23353527.9614                   23353528.1484
  27218978.03946  21267667.69144  23294758.2504                   23294761.3134
  -9161275.73048  -7114729.92246  21307101.8524                   21307099.0474
  -8521569.64147  -6604149.92644  22553506.4144                   22553506.3634
 11  8 11 20 57  0.0000000  0  7G11G07G08G26G04G28G24
   4223546.66446   3327403.39844  23483011.5944                   23483010.6024
  10986166.53947   8583388.93045  22834219.8674                   22834219.7854
  -6969422.08648  -5388514.66046  20731139.1334                   20731137.8164
   2394205.84847   1912327.00444  23338302.5864                   23338303.2544
  26972270.80946  21075428.51644  23247811.2894                   23247814.0824
  -9311431.69147  -7231734.57046  21278528.1804                   21278525.4454
  -8597127.31247  -6663026.05144  22539129.0554                   22539127.7234
 11  8 11 20 57 30.0000000  0  7G11G07G08G26G04G28G24
   4182910.05146   3295738.44943  23475279.5314                   23475277.2934
  10954221.98847   8558496.91845  22828140.7274                   22828141.0044
  -7038132.50048  -5442055.30146  20718063.4224                   20718062.6564
   2314521.72347   1850235.42644  23323138.3754                   23323140.1724
  26725613.12147  20883227.93044  23200874.0004                   23200876.3244
  -9461538.50448  -7348700.91846  21249964.0394                   21249960.9844
  -8672255.24647  -6721567.31644  22524832.0554                   22524831.6334
 11  8 11 20 58  0.0000000  0  7G11G07G08G26G04G28G24
   4142499.07446   3264249.27343  23467588.5234                   23467588.6054
  10922478.46147   8533761.55944  22822100.4384                   22822100.3594
  -7106368.75048  -5495226.45746  20705078.6414                   20705077.9304
   2235163.00847   1788397.39544  23308037.8054                   23308038.2544
  26479009.69547  20691069.62144  23153947.0634                   23153949.5044
  -9611592.94947  -7465626.46946  21221409.2504                   21221406.8984
  -8746953.36347  -6779773.66844  22510617.6564                   22510617.4964
 11  8 11 20 58 30.0000000  0  7G11G07G08G26G04G28G24
   4102308.99646   3232932.22343  23459940.7274                   23459939.7274
  10890931.09847   8509179.03144  22816096.6414                   22816096.8554
  -7174134.80548  -5548031.25046  20692183.3284                   20692182.5044
   2156124.51647   1726808.90644  23292996.4304                   23292998.2774
  26232461.40247  20498954.26244  23107029.7114                   23107032.4734
  -9761596.18748  -7582512.11746  21192864.5234                   21192861.9414
  -8821225.87947  -6837648.37944  22496484.4304                   22496484.1294
 11  8 11 20 59  0.0000000  0  7G11G07G08G26G04G28G24
   4062343.85546   3201790.47343  23452335.7034                   23452334.7274
  10859584.41047   8484752.89545  22810132.2814                   22810132.7934
  -7241425.79348  -5600465.84446  20679378.0944                   20679377.4964
   2077409.93047   1665472.79743  23278018.0864                   23278018.2934
  25985978.03947  20306889.49644  23060125.5004                   23060128.2114
  -9911540.17648  -7699351.60246  21164331.1414                   21164328.5594
  -8895067.68447  -6895187.48844  22482432.7194                   22482432.2194
 11  8 11 20 59 30.0000000  0  7G11G07G08G26G04G28G24
   4022602.02346   3170822.73443  23444772.8754                   23444772.2974
  10828436.60547   8460481.71545  22804205.0474                   22804205.5084
  -7308242.68748  -5652531.02746  20666663.5784                   20666662.8324
   1999017.07047   1604387.37543  23263100.5784                   23263101.2114
  25739562.78147  20114877.78944  23013233.8834                   23013236.5944
 -10061423.19148  -7816143.56246  21135809.6564                   21135806.6094
  -8968480.41447  -6952392.24244  22468462.3754                   22468462.1334
 11  8 11 21  0  0.0000000  0  7G11G07G08G26G04G28G24
   5558503.34446   4367628.88743  23737045.0634                   23737044.2344
  12372908.07847   9663965.80945  23098108.2034                   23098108.6884
  -5799163.19548  -4476624.99246  20953831.9844                   20953830.8284
   3496366.93047   2771153.46544  23548037.3134                   23548037.9844
  27068648.43847  21150529.14544  23266150.4924                   23266153.0904
  -8635817.62148  -6705282.09046  21407093.3054                   21407090.8364
  -7466041.83247  -5781660.90644  22754367.1334                   22754366.6764
 11  8 11 21  0 30.0000000  0  7G11G07G08G26G04G28G24
   5519205.97347   4337007.52343  23729567.7584                   23729566.3794
  12342157.33647   9640004.04345  23092257.0474                   23092257.6884
  -5865030.24248  -4527950.02746  20941297.7584                   20941297.2664
   3418614.40246   2710567.00044  23533240.3914                   23533241.7544
  26822384.85947  20958635.62144  23219288.2504                   23219289.9534
  -8785568.97348  -6821971.46546  21378596.6334                   21378593.6024
  -7538595.76247  -5838196.49244  22740560.6954                   22740560.3324
 11  8 11 21  1  0.0000000  0  7G11G07G08G26G04G28G24
   5480128.11747   4306557.16043  23722131.6804                   23722130.3554
  12311603.22347   9616195.46145  23086442.4064                   23086443.5594
  -5930423.40648  -4578905.80946  20928854.1094                   20928853.4184
   3341179.19947   2650227.78944  23518505.6094                   23518506.4884
  26576202.99647  20766805.76644  23172440.9694                   23172443.1994
  -8935251.28548  -6938607.03546  21350112.7344                   21350110.0514
  -7610721.64847  -5894398.50444  22726835.4304                   22726835.5634
 11  8 11 21  1 30.0000000  0  7G11G07G08G26G04G28G24
   5441273.51247   4276280.82843  23714738.0314                   23714736.4264
  12281248.73847   9592542.44144  23080666.7734                   23080667.2584
  -5995338.91448  -4629489.38346  20916501.2114                   20916500.4774
   3264064.24647   2590138.13344  23503831.2274                   23503832.1414
  26330111.72347  20575046.48044  23125611.7274                   23125614.0314
  -9084857.43048  -7055183.27346  21321643.7504                   21321641.0234
  -7682415.60947  -5950263.96144  22713192.8674                   22713192.3594
 11  8 11 21  2  0.0000000  0  7G11G07G08G26G04G28G24
   5402626.41447   4246166.18043  23707383.7344                   23707381.5704
  12251078.64847   9569033.11345  23074925.2344                   23074926.2704
  -6059791.16448  -4679711.96946  20904236.0784                   20904235.5824
   3187253.57047   2530285.59844  23489214.8754                   23489215.6954
  26084101.14547  20383350.08244  23078796.9384                   23078798.6884
  -9234398.94148  -7171709.13346  21293186.7664                   21293183.9384
  -7753692.35947  -6005804.32844  22699629.1884                   22699629.1254
 11  8 11 21  2 30.0000000  0  7G11G07G08G26G04G28G24
   5364190.52747   4216216.07443  23700069.6484                   23700067.7304
  12221096.64547   9545670.34045  23069219.9454                   23069221.1454
  -6123775.49648  -4729569.94946  20892060.6334                   20892059.8594
   3110750.64847   2470672.86344  23474657.2344                   23474657.8984
  25838180.35947  20191723.66044  23031999.7274                   23032001.6644
  -9383868.81648  -7288179.17646  21264743.5864                   21264741.0234
  -7824548.14147  -6061016.67245  22686145.9774                   22686146.0124
 11  8 11 21  3  0.0000000  0  7G11G07G08G26G04G28G24
   5325971.98847   4186435.36343  23692796.9844                   23692795.2074
  12191308.97347   9522458.96544  23063552.1954                   23063553.0554
  -6187284.90648  -4779057.87146  20879975.0944                   20879974.1484
   3034561.05947   2411304.27744  23460158.4224                   23460159.4964
  25592361.11347  20000176.37944  22985221.4064                   22985223.2774
  -9533256.80548  -7404585.40646  21236316.1724                   21236313.2034
  -7894975.92647  -6115895.51644  22672744.2814                   22672743.5554
 11  8 11 21  3 30.0000000  0  7G11G07G08G26G04G28G24
   5287968.75446   4156822.42243  23685564.8594                   23685563.8594
  12161714.30147   9499398.01245  23057920.7194                   23057921.4024
  -6250321.05548  -4828177.00046  20867979.9774                   20867979.2664
   2958682.03947   2352177.70344  23445719.2974                   23445720.4454
  25346646.69947  19808710.78144  22938463.6724                   22938465.6994
  -9682561.07848  -7520926.40646  21207904.8204                   21207902.4964
  -7964977.17647  -6170441.98844  22659423.0634                   22659422.8914
 11  8 11 21  4  0.0000000  0  7G11G07G08G26G04G28G24
   5250179.55946   4127376.22343  23678373.5554                   23678372.7114
  12132311.13747   9476486.26644  23052325.0944                   23052326.3324
  -6312884.49248  -4876927.78146  20856074.3444                   20856073.8754
   2883112.02047   2293291.88744  23431339.0864                   23431339.7504
  25101041.45347  19617330.25044  22891726.3204                   22891728.0944
  -9831779.11348  -7637200.20746  21179509.4924                   21179506.5984
  -8034552.84047  -6224656.85544  22646184.1094                   22646183.2774
 11  8 11 21  4 30.0000000  0  7G11G07G08G26G04G28G24
   5212607.15646   4098098.92243  23671223.8674                   23671223.4304
  12103102.34847   9453725.99644  23046767.5394                   23046768.2894
  -6374971.86748  -4925307.61746  20844259.7114                   20844258.9924
   2807852.97747   2234648.39544  23417017.9224                   23417018.7304
  24855553.55947  19426041.16844  22845012.1174                   22845013.1414
  -9980904.68048  -7753401.96146  21151131.7974                   21151129.0314
  -8103699.60247  -6278537.49244  22633024.8284                   22633025.2384
 11  8 11 21  5  0.0000000  0  7G11G07G08G26G04G28G24
   5175251.97746   4068990.89143  23664115.8674                   23664114.8554
  12074088.74247   9431117.79344  23041246.0634                   23041247.0164
  -6436581.59848  -4973315.24646  20832535.8524                   20832534.7774
   2732905.54747   2176247.72344  23402755.7274                   23402756.5394
  24610189.39847  19234848.48444  22798320.3054                   22798322.2464
 -10129933.02048  -7869527.95346  21122772.7424                   21122769.4414
  -8172416.02347  -6332082.80144  22619949.0164                   22619948.6844
 11  8 11 21  5 30.0000000  0  7G11G07G08G26G04G28G24
   6713525.96946   5267645.87543  23956839.3754                   23956838.6454
  13620682.01247  10636255.23044  23335552.9454                   23335554.3404
  -4922300.07847  -3793355.67646  21120694.2974                   21120693.5394
   4233682.46147   3345684.20344  23688344.4224   23688345.0044   25940373.38747
  20271355.66044                  23051445.4534                   23051447.3284
  -8703444.56247  -6757978.51246  21394224.2504                   21394221.4614
  -6665288.93047  -5157698.08244  22906745.9844                   22906745.6374
 11  8 11 21  6  0.0000000  0  7G11G07G08G26G04G28G24
   6676591.62146   5238865.76643  23949811.4774                   23949810.5084
  13592045.09447  10613940.55544  23330103.9924                   23330104.9964
  -4982966.40248  -3840628.19146  21109149.5784                   21109149.1684
   4159342.91047   3287757.19144  23674197.9774   23674198.9104   25695259.30147
  20080357.82844                  23004801.8984                   23004803.4264
  -8852281.00848  -6873954.96946  21365901.7894                   21365899.2274
  -6733157.65647  -5210582.82044  22893831.0784                   22893831.1414
 11  8 11 21  6 30.0000000  0  7G11G07G08G26G04G28G24
   6639869.77746   5210251.26643  23942823.1414                   23942822.2194
  13563598.85547  10591774.48444  23324691.1804                   23324692.0554
  -5043157.57848  -3887530.46146  21097695.7034                   21097695.1024
   4085308.42247   3230067.86744  23660109.9454   23660110.5984   25450280.59047
  19889465.48844                  22958184.0634                   22958185.8914
  -9001013.59047  -6989850.48446  21337599.1414                   21337595.9184
  -6800599.72747  -5263135.10944  22880997.2344                   22880996.8444
 11  8 11 21  7  0.0000000  0  7G11G07G08G26G04G28G24
   6603354.34446   5181797.60243  23935874.8834                   23935874.0744
  13535337.73847  10569752.63744  23319313.0314                   23319314.2894
  -5102879.03547  -3934066.72346  21086331.1804                   21086330.5474
   4011572.97747   3172611.58244  23646078.1254   23646078.9844   25205437.28147
  19698678.64544                  22911591.4304                   22911593.3674
  -9149644.23848  -7105666.58646  21309315.3524                   21309312.5394
  -6867620.37147  -5315359.01244  22868243.6644                   22868243.7424
 11  8 11 21  7 30.0000000  0  7G11G07G08G26G04G28G24
   6567044.94547   5153504.50443  23928966.1884                   23928964.3524
  13507261.24647  10547874.66044  23313970.6174                   23313971.7704
  -5162130.48448  -3980236.74246  21075056.0474                   21075055.2114
   3938135.66447   3115387.61744  23632103.9774   23632105.1914   24960734.15647
  19508001.03544                  22865025.8444                   22865027.0984
  -9298169.71948  -7221400.73046  21281051.8284                   21281049.1174
  -6934219.55147  -5367254.52044  22855570.4224                   22855570.0234
 11  8 11 21  8  0.0000000  0  7G11G07G08G26G04G28G24
   6530941.52047   5125371.91843  23922095.4924                   23922094.6054
  13479369.19547  10526140.40644  23308663.3054                   23308664.3404
  -5220911.78147  -4026040.41046  21063870.1724                   21063869.7504
   3864995.37147   3058395.08244  23618185.8674   23618187.5004   24716176.65647
  19317436.88744                  22818487.9534                   22818489.5904
  -9446586.42248  -7337050.12146  21252808.8054                   21252806.2624
  -7000397.35947  -5418821.68044  22842977.2034                   22842976.4454
 11  8 11 21  8 30.0000000  0  7G11G07G08G26G04G28G24
   6495033.32446   5097391.45743  23915262.3054                   23915261.6094
  13451650.68047  10504541.36744  23303388.9064                   23303389.9844
  -5279233.23048  -4071485.75446  21052772.4694                   21052771.6764
   3792140.83647   3001625.25444  23604322.0784   23604323.1564   24471759.42647
  19126982.05944                  22771977.1564                   22771978.5784
  -9594901.21148  -7452620.09846  21224585.7344                   21224583.3834
  -7066164.00847  -5470068.44544  22830461.9384                   22830461.6414
 11  8 11 21  9  0.0000000  0  7G11G07G08G26G04G28G24
   6459321.10946   5069563.64543  23908466.8284                   23908465.3984
  13424107.41847  10483078.88344  23298147.8284                   23298148.6994
  -5337093.32848  -4116571.60946  21041761.6414                   21041761.6684
   3719572.75047   2945078.58244  23590512.4924   23590514.3594   24227489.12947
  18936641.71544                  22725493.5944                   22725495.2384
  -9743109.10248  -7568106.77046  21196382.4304                   21196379.8054
  -7131517.80947  -5520993.50844  22818025.9144                   22818025.3134
 11  8 11 21  9 30.0000000  0  7G11G07G08G26G04G28G24
   6423800.44546   5041885.16043  23901706.9694                   23901706.1374
  13396734.48047  10461749.11744  23292938.7504                   23292940.0474
  -5394496.12947  -4161301.10946  21030838.4064                   21030837.7234
   3647285.73047   2888750.93844  23576757.1804   23576758.4064   23983366.63747
  18746416.55944                  22679038.3594                   22679039.6644
  -9891210.98048  -7683510.83646  21168200.0164                   21168197.2464
  -7196463.54747  -5571600.62544  22805666.7974                   22805666.9774
 11  8 11 21 10  0.0000000  0  7G11G07G08G26G04G28G24
   6388465.87946   5014351.66442  23894983.2114                   23894982.1254
  13369526.71946  10440548.05544  23287761.4844                   23287762.8094
  -5451446.00048  -4205677.69546  21020001.1334                   21020000.5164
   3575274.37947   2832638.10944  23563053.5394   23563054.9184   23739392.42647
  18556306.93844                  22632611.6414                   22632612.8954
 -10039208.06248  -7798833.25046  21140036.8984                   21140034.6294
  -7261006.01247  -5621893.49244  22793384.7664                   22793384.7464
 11  8 11 21 10 30.0000000  0  7G11G07G08G26G04G28G24
   6353310.30946   4986957.63743  23888293.4614                   23888292.1994
  13342477.07847  10419470.20344  23282614.1254                   23282615.8834
  -5507950.02348  -4249706.86346  21009248.8914                   21009248.2584
   3503530.58247   2776733.73044  23549401.6094   23549402.8954   23495564.55147
  18366311.36344                  22586212.6024                   22586213.6764
 -10187103.82848  -7914076.71146  21111893.3444                   21111890.7974
  -7325151.93447  -5671877.37144  22781178.3984                   22781178.3094
 11  8 11 21 11  0.0000000  0  7G11G07G08G26G04G28G24
   6318329.03546   4959699.43842  23881636.1254                   23881635.8754
  13315580.80546  10398511.86744  23277495.9694                   23277497.9144
  -5564012.46147  -4293391.94146  20998580.9064                   20998580.4384
   3432049.00047   2721033.68444  23535798.9064   23535800.3444   23251883.84447
  18176430.46144                  22539841.6644                   22539842.8714
 -10334899.28948  -8029242.02346  21083769.1174                   21083766.3094
  -7388905.84047  -5721555.78544  22769046.1254                   22769046.3914
 11  8 11 21 11 30.0000000  0  7G11G07G08G26G04G28G24
   7858938.78946   6160174.49243  24174804.7814                   24174804.2664
  14864254.57446  11605270.43444  23572198.8594                   23572200.6804
  -4044215.55947  -3109134.67646  21287788.6564                   21287788.0084
   4936246.93847   3893135.89544  23822038.9064   23822039.5164   24583779.53947
  19214271.41044                  22793292.8914                   22793293.9024
  -8907169.98847  -6916725.69146  21355457.1024                   21355453.5784
  -5876849.71947  -4543330.24644  23056780.9064                   23056781.5594
 11  8 11 21 12  0.0000000  0  7G11G07G08G26G04G28G24
   7824291.03946   6133176.16443  24168212.1724                   24168211.0044
  14837650.07446  11584539.40644  23567136.7344                   23567138.1484
  -4099408.61748  -3152142.30946  21277285.5314                   21277285.1294
   4865273.01247   3837831.44944  23808532.5004   23808534.0394   24340394.61347
  19024620.96144                  22746978.0164                   22746979.4224
  -9054767.98848  -7031737.13746  21327369.6484                   21327366.9144
  -5939833.39547  -4592408.48444  23044795.4614                   23044795.7974
 11  8 11 21 12 30.0000000  0  7G11G07G08G26G04G28G24
   7789802.69546   6106302.02343  24161649.5944                   24161648.0434
  14811184.44546  11563916.61744  23562100.9614                   23562102.0274
  -4154173.61747  -3194816.38746  21266864.2424                   21266863.5784
   4794544.93047   3782718.56343  23795073.6414   23795074.6334   24097158.73447
  18835086.65244                  22700691.7734                   22700693.1024
  -9202268.74248  -7146672.79746  21299301.4304                   21299298.3244
  -6002438.85547  -4641191.97744  23032882.3984                   23032882.0664
 11  8 11 21 13  0.0000000  0  7G11G07G08G26G04G28G24
   7755462.69546   6079543.48843  24155113.9534                   24155113.3524
  14784846.57046  11543393.38344  23557088.3444                   23557090.4964
  -4208520.98847  -3237165.04746  21256522.4224                   21256521.7894
   4724051.11747   3727788.23443  23781659.4534   23781660.4694   23854066.30947
  18645664.12544                  22654432.5394                   22654433.8324
  -9349679.32848  -7261538.19946  21271250.1484                   21271247.4144
  -6064676.84047  -4689689.16444  23021038.6094                   23021038.8554
 11  8 11 21 13 30.0000000  0  7G11G07G08G26G04G28G24
   7721265.96146   6052896.61343  24148607.2974                   24148606.9104
  14758631.47346  11522965.77744  23552100.0784                   23552101.9024
  -4262455.34448  -3279191.88345  21246259.2504                   21246259.0354
   4653786.00047   3673036.10243  23768287.8364   23768289.4384   23611117.80147
  18456353.71144                  22608201.1884                   22608202.5084
  -9497001.17248  -7376334.44146  21243215.6174                   21243212.9024
  -6126552.23047  -4737903.78944  23009264.2274                   23009264.2074
 11  8 11 21 14  0.0000000  0  7G11G07G08G26G04G28G24
   7687210.10946   6026359.48443  24142126.7894                   24142125.7114
  14732536.68046  11502631.94144  23547135.1644                   23547137.2504
  -4315979.27048  -3320898.89846  21236074.0634                   21236073.4064
   4583746.23447   3618459.57844  23754960.1954   23754961.0704   23368316.46147
  18267157.99644                  22561997.0634                   22561998.5164
  -9644232.43048  -7491060.10246  21215198.3524                   21215195.4454
  -6188066.81647  -4785837.28544  22997558.8594                   22997558.1804
 11  8 11 21 14 30.0000000  0  7G11G07G08G26G04G28G24
   7653288.64846   5999927.12943  24135671.5394                   24135670.7384
  14706555.89146  11482386.94944  23542190.8674                   23542192.8874
  -4369098.59048  -3362290.63346  21225965.8364                   21225965.3094
   4513924.91847   3564053.25444  23741674.0084   23741674.2894   23125661.05547
  18078075.96944                  22515821.4614                   22515822.2734
  -9791375.63748  -7605717.14846  21187197.8834                   21187195.2034
  -6249226.88347  -4833494.52344  22985920.4844                   22985919.9964
 11  8 11 21 15  0.0000000  0  7G11G07G08G26G04G28G24
   7619500.01646   5973598.24643  24129242.3594                   24129241.1024
  14680687.62947  11462229.64544  23537268.9454                   23537270.0744
  -4421814.41448  -3403367.96145  21215934.0394                   21215933.8754
   4444319.92247   3509815.51644  23728428.6644   23728429.8164   22883155.77747
  17889110.92245                  22469673.9304                   22469675.5514
  -9938428.79748  -7720304.04346  21159215.1484                   21159212.0084
  -6310034.08247  -4880876.80544  22974349.2504                   22974349.0354
 11  8 11 21 15 30.0000000  0  7G11G07G08G26G04G28G24
   7585840.31346   5947369.80943  24122836.8134                   24122835.8954
  14654928.16847  11442157.09444  23532367.1954                   23532368.9264
  -4474130.53948  -3444133.82846  21205978.7194                   21205978.0234
   4374926.48447   3455742.61744  23715223.6254   23715224.1054   22640801.99247
  17700263.93044                  22423555.4774                   22423557.0594
 -10085391.59448  -7834820.52046  21131248.6644                   21131245.7774
  -6370491.94147  -4927986.85544  22962843.9534                   22962844.4654
 11  8 11 21 16  0.0000000  0  7G11G07G08G26G04G28G24
   7552315.68446   5921246.62543  24116457.8914                   24116456.8054
  14629283.10947  11422173.68844  23527487.0084                   23527488.9224
  -4526040.51648  -3484583.22745  21196100.8364                   21196100.3554
   4305749.98047   3401838.76644  23702059.9304   23702060.6334   22398611.59447
  17511544.26245                  22377468.5314                   22377469.6804
 -10232254.38348  -7949259.07446  21103301.6094                   21103298.6134
  -6430594.34847  -4974819.95744  22951407.2814                   22951407.1764
 11  8 11 21 16 30.0000000  0  7G11G07G08G26G04G28G24
   7518924.77746   5895227.66843  24110103.2664                   24110102.6134
  14603750.98847  11402278.31344  23522628.2504                   23522630.9384
  -4577545.75048  -3524717.23045  21186299.5634                   21186299.4654
   4236788.61347   3348102.53944  23688937.1484   23688938.3594   22156588.49647
  17322954.96145                  22331412.5004                   22331413.9454
 -10379014.53148  -8063617.63746  21075374.1484                   21075371.4144
  -6490342.47347  -5021376.98844  22940037.9224                   22940037.2154
 11  8 11 21 17  0.0000000  0  7G11G07G08G26G04G28G24
   7485663.44546   5869309.68842  24103775.4304                   24103772.7074
  14578328.21946  11382468.07844  23517791.2344                   23517793.8914
  -4628649.94548  -3564538.75046  21176574.6094                   21176574.5704
   4168037.76647   3294530.35244  23675854.2114   23675855.6334   21914734.30547
  17134497.29345                  22285389.3524                   22285390.4184
 -10525671.95748  -8177896.17246  21047466.3524                   21047463.1564
  -6549740.12947  -5067660.90644  22928734.6564                   22928734.3834
 11  8 11 21 17 30.0000000  0  7G11G07G08G26G04G28G24
   9027950.61746   7071091.83642  24397261.3834                   24397260.8244
  16128433.13346  12590341.79344  23812766.7034                   23812769.3524
  -3103933.31648  -2376447.94545  21466718.7344                   21466718.5784
   5674916.52747   4468721.48444  23962603.4924   23962604.8014   23248480.09447
  18173779.85545                  22539192.5234                   22539193.3524
  -9096800.37548  -7064489.75046  21319371.5394                   21319368.6374
  -5033367.51647  -3886071.91044  23217290.8364                   23217290.9884
 11  8 11 21 18  0.0000000  0  7G11G07G08G26G04G28G24
   8994947.61746   7045375.14142  24390981.8674                   24390980.7424
  16103227.98846  12570701.15244  23807970.2344                   23807972.9064
  -3154235.18748  -2415644.27745  21457146.7344                   21457146.3364
   5606583.77747   4415475.10244  23949600.3754   23949602.1564   23006979.20347
  17985597.46545                  22493236.6024                   22493237.6804
  -9243241.70348  -7178599.88346  21291504.4534                   21291501.3754
  -5092064.55946  -3931809.91444  23206120.8444                   23206121.5234
 11  8 11 21 18 30.0000000  0  7G11G07G08G26G04G28G24
   8962078.23846   7019762.55943  24384726.9924                   24384725.6564
  16078136.21546  12551148.84044  23803195.1884                   23803197.8364
  -3204131.48048  -2454524.57845  21447651.9224                   21447651.3204
   5538463.25847   4362394.06644  23936637.9694   23936639.6804   22765667.53947
  17797562.52745                  22447316.6644                   22447317.1724
  -9389564.73048  -7292617.84846  21263660.0004                   21263657.4304
  -5150406.60247  -3977271.30144  23195019.4384                   23195019.0044
 11  8 11 21 19  0.0000000  0  7G11G07G08G26G04G28G24
   8929357.19547   6994265.58242  24378500.0164                   24378498.9774
  16053172.55147  12531696.37544  23798445.2424                   23798448.4694
  -3253606.96148  -2493076.97345  21438236.4534                   21438236.6254
   5470569.34847   4309489.59444  23923717.6484   23923719.5784   22524565.59847
  17609691.00445                  22401436.0394                   22401437.4844
  -9535750.83248  -7406529.10246  21235841.8524                   21235838.9344
  -5208378.58247  -4022444.32844  23183987.0314                   23183987.1954
 11  8 11 21 19 30.0000000  0  7G11G07G08G26G04G28G24
   8896787.63347   6968886.66443  24372302.6724                   24372300.7774
  16028339.90646  12512346.01244  23793719.5394                   23793722.5514
  -3302659.01647  -2531299.42645  21428902.6024                   21428902.7234
   5402904.21147   4256763.40244  23910841.2274   23910843.6374   22283681.61747
  17421989.32045                  22355597.0234                   22355597.7114
  -9681793.02348  -7520328.22746  21208050.9144                   21208048.1024
  -5265977.56647  -4067326.69144  23173026.8594                   23173026.7774
 11  8 11 21 20  0.0000000  0  7G11G07G08G26G04G28G24
   8864367.93847   6943624.56343  24366133.3134                   24366131.9804
  16003636.86347  12493096.64144  23789019.6564                   23789021.8834
  -3351288.42647  -2569192.54745  21419649.0554                   21419648.7544
   5335465.83247   4204213.89844  23898008.5004   23898010.4304   22043019.50447
  17234460.51645                  22309800.8524                   22309801.4454
  -9827688.91848  -7634013.35246  21180287.7974                   21180285.3164
  -5323205.07447  -4111919.60544  23162136.8834                   23162136.4614
 11  8 11 21 20 30.0000000  0  7G11G07G08G26G04G28G24
   8832103.02747   6918482.98443  24359992.9224                   24359992.5044
  15979067.86747  12473951.74244  23784344.5084                   23784346.8444
  -3399490.37147  -2606752.57445  21410476.4534                   21410476.0864
   5268258.35947   4151844.30143  23885218.6954   23885220.9384   21802589.59847
  17047112.64145                  22264048.1884                   22264049.2584
  -9973429.60548  -7747577.53546  21152554.3524                   21152551.6094
  -5380056.00847  -4156219.07443  23151318.3284                   23151318.5274
 11  8 11 21 21  0.0000000  0  7G11G07G08G26G04G28G24
   8800006.93846   6893472.96543  24353886.2034                   24353885.1024
  15954647.04746  12454922.27344  23779697.9064                   23779700.0824
  -3447250.68747  -2643968.47745  21401387.9384                   21401387.7034
   5201294.93447   4099664.88343  23872476.5474   23872478.8524   21562411.54747
  16859961.01645                  22218344.0164                   22218344.7034
 -10118997.40248  -7861007.00046  21124854.1094                   21124851.1604
  -5436516.19947  -4200214.05144  23140574.7974                   23140573.9224
 11  8 11 21 21 30.0000000  0  7G11G07G08G26G04G28G24
   8768089.71946   6868602.34043  24347811.7504                   24347811.4574
  15930384.58247  12436016.20744  23775080.2504                   23775082.9104
  -3494559.77347  -2680832.77745  21392385.9224                   21392385.1684
   5134584.72347   4047682.75843  23859782.2344   23859784.6524   21322500.46547
  16673017.41845                  22172690.0004                   22172690.9344
 -10264378.34048  -7974290.85546  21097188.8444                   21097186.0784
  -5492575.86347  -4243896.96144  23129906.4694                   23129906.5744
 11  8 11 21 22  0.0000000  0  8G11G07G08G26G04G20G28G24
   8736358.58646   6843876.69943  24341774.8284                   24341773.6524
  15906287.70747  12417239.16844  23770495.1644                   23770498.4734
  -3541409.57047  -2717339.17645  21383470.3444                   21383470.3484
   5068134.91847   3995903.58643  23847137.7194   23847139.0474   21082869.69547
  16486292.23445                  22127090.1884                   22127090.8404
  48501597.00456  37835971.62952  24504919.4144                   24504920.4844
 -10409560.88748  -8087420.13746  21069561.6644                   21069558.6764
  -5548226.93747  -4287261.46144  23119316.7584                   23119316.4304
 11  8 11 21 22 30.0000000  0  8G11G07G08G26G04G20G28G24
   8704811.66846   6819294.65243  24335770.3444                   24335770.3524
  15882354.40247  12398589.60544  23765941.4844                   23765943.4804
  -3587802.59047  -2753489.65245  21374642.0864                   21374641.7274
   5001942.53547   3944324.96944  23834541.8364   23834543.3554   20843522.48047
  16299788.00445                  22081543.9144                   22081544.3794
  48320311.51645  37694710.31342  24470420.9224                   24470422.5944
 -10554543.65248  -8200393.73446  21041971.9224                   21041969.4964
  -5603472.17247  -4330309.72744  23108804.0394                   23108804.1804
 11  8 11 21 23  0.0000000  0  8G11G07G08G26G04G20G28G24
  10248865.96146   8022453.74643  24629594.7274                   24629594.3834
  17434001.22347  13607664.79343  24061210.0394                   24061212.3364
  -2058321.27047  -1561686.09445  21665692.7814                   21665692.5204
   6511424.78147   5120544.77744  24121787.0394   24121788.3244   22179887.87147
  17341111.79345                  22335845.6884                   22335846.0824
  49714726.54345  38781267.59042  24735769.9454                   24735771.1604
  -9123901.73848  -7085607.83646  21314214.2894                   21314211.4454
  -4082893.52047  -3145443.28544  23398160.1644                   23398160.3524
 11  8 11 21 23 30.0000000  0  8G11G07G08G26G04G20G28G24
  10217674.77746   7998148.77743  24623658.8204                   24623659.3594
  17410381.74247  13589259.75443  24056714.9304                   24056718.5044
  -2103813.22347  -1597134.44145  21657036.5784                   21657036.1024
   6445732.21147   5069355.63744  24109286.4064   24109288.0434   21941110.85547
  17155051.86745                  22290407.8284                   22290408.1414
  49533991.00845  38640434.80542  24701376.3444                   24701378.1604
  -9268485.27748  -7198270.35546  21286701.1414                   21286698.0004
  -4137339.16047  -3187868.51244  23387799.5234                   23387799.4024
 11  8 11 21 24  0.0000000  0  8G11G07G08G26G04G20G28G24
  10186667.14546   7973986.93042  24617759.1024                   24617758.6174
  17386925.03146  13570981.52344  24052251.9924                   24052255.0664
  -2148848.82847  -1632227.19545  21648465.8204                   21648465.8444
   6380293.86747   5018364.60244  24096833.6884   24096835.8204   21702632.81347
  16969224.91845                  22245026.7114                   22245027.6604
  49353543.61745  38499826.57842  24667038.9224                   24667040.4494
  -9412857.76248  -7310768.41446  21259227.6954                   21259225.0394
  -4191379.76247  -3229978.10544  23377516.2974                   23377516.3484
 11  8 11 21 24 30.0000000  0  7G07G08G26G04G20G28G24
  17363629.62546  13552828.98843  24047819.3054                   24047822.2424
  -2193429.25047  -1666965.24245  21639982.6884                   21639982.2234
   6315108.08647   4967570.35543  24084429.3204   24084431.1564   21464457.97347
  16783634.24245                  22199703.4534                   22199704.3134
  49173388.80145  38359446.34043  24632756.1414                   24632758.0314
  -9557016.40248  -7423099.82846  21231795.1804                   21231792.5864
  -4245015.80147  -3271772.48844  23367310.0704                   23367310.2624
 11  8 11 21 25  0.0000000  0  7G07G08G26G04G20G28G24
  17340498.45346  13534804.42643  24043417.8984                   24043420.9414
  -2237551.59447  -1701346.35945  21631586.8134                   21631586.3134
   6250177.27347   4916974.81344  24072073.5234   24072074.6994   21226594.94547
  16598286.53545                  22154439.7424                   22154440.5744
  48993534.50446  38219300.22343  24598531.4144                   24598532.7074
  -9700954.03548  -7535259.03146  21204404.8134                   21204402.4494
  -4298244.37947  -3313249.34444  23357180.6484                   23357181.1374
 11  8 11 21 25 30.0000000  0  7G07G08G26G04G20G28G24
  17317541.89146  13516915.90643  24039049.9614                   24039052.6994
  -2281206.04347  -1735362.87145  21623279.7894                   21623279.3094
   6185510.64547   4866585.11743  24059768.2974   24059769.3834   20989058.93047
  16413193.64545                  22109238.0554                   22109238.6914
  48813996.09846  38079400.25443  24564367.0394                   24564367.1054
  -9844656.84848  -7647235.25446  21177059.1724                   21177056.6914
  -4351055.46547  -3354400.90644  23347131.7424                   23347131.9654
 11  8 11 21 26  0.0000000  0  7G07G08G26G04G20G28G24
  17294772.63346  13499173.30943  24034716.8754                   24034719.7464
  -2324379.56247  -1769004.64545  21615063.8674                   21615063.9104
   6121120.45747   4816410.81343  24047515.5164   24047516.6294   20751868.50847
  16228370.04745                  22064102.1024                   22064102.6414
  48634791.85146  37939760.65843  24530265.0084                   24530265.9064
  -9988108.18048  -7759015.52746  21149761.4304                   21149758.5354
  -4403435.98847  -3395216.93744  23337163.2424                   23337163.5904
 11  8 11 21 26 30.0000000  0  7G07G08G26G04G20G28G24
  17272198.21546  13481582.57043  24030420.9224                   24030424.3054
  -2367064.26247  -1802265.52045  21606941.2034                   21606941.1294
   6057013.76247   4766457.44944  24035315.9614   24035317.5004   20515036.75048
  16043825.91445                  22019034.3524                   22019034.9804
  48455934.57046  37800391.41043  24496230.1254                   24496229.9264
 -10131296.13748  -7870590.56246  21122513.3984                   21122510.7854
  -4455378.49647  -3435691.66444  23327279.7894                   23327279.5944
 11  8 11 21 27  0.0000000  0  7G07G08G26G04G20G28G24
  17249823.25846  13464147.24244  24026163.7424                   24026166.8954
  -2409256.10947  -1835142.35245  21598911.8674                   21598912.6254
   5993194.36347   4716727.92643  24023171.6804   24023173.3204   20278573.42647
  15859568.85945                  21974036.4454                   21974037.0824
  48277433.44546  37661299.64543  24462261.7034                   24462261.9654
 -10274212.33248  -7981953.84446  21095317.3914                   21095314.5474
  -4506878.60547  -3475821.66444  23317479.3754                   23317479.7114
 11  8 11 21 27 30.0000000  0  7G07G08G26G04G20G28G24
  17227663.31347  13446879.45744  24021947.7034                   24021951.0824
  -2450939.54747  -1867623.01245  21590980.0474                   21590980.2464
   5929676.84847   4667233.66043  24011084.2194   24011086.8634   20042499.41447
  15675615.14845                  21929113.0164                   21929113.7704
  48099309.89846  37522502.11743  24428366.4144                   24428366.6884
 -10416837.26648  -8093090.16446  21068176.8754                   21068174.2774
  -4557920.50046  -3515594.60544  23307765.7974                   23307765.8984
 11  8 11 21 28  0.0000000  0  7G07G08G26G04G20G28G24
  17205727.02747  13429785.93844  24017772.8284                   24017776.6254
  -2492106.06247  -1899700.89845  21583146.6414                   21583146.9384
   5866469.66447   4617981.21543  23999056.7194   23999058.7464   19806829.28147
  15491976.14545                  21884266.8364                   21884266.9844
  47921577.69946  37384009.51243  24394544.2424                   24394544.7274
 -10559158.33248  -8203989.70346  21041094.0474                   21041091.3754
  -4608495.48446  -3555003.76644  23298142.0864                   23298142.4064
 11  8 11 21 28 30.0000000  0  7G07G08G26G04G20G28G24
  17184031.77047  13412880.23444  24013644.7114                   24013648.9224
  -2532737.94547  -1931362.17645  21575414.6414                   21575415.0394
   5803589.25447   4568983.37943  23987090.5474   23987092.6914   19571585.82847
  15308669.63345                  21839501.0944                   21839501.8054
  47744258.99646  37245839.18043  24360801.5004                   24360802.7304
 -10701153.89548  -8314635.60946  21014073.2114                   21014070.4964
  -4658586.35546  -3594035.68043  23288608.6564                   23288610.6054
 11  8 11 21 29  0.0000000  0  7G07G08G26G04G20G28G24
  18738006.06347  14623768.98444  24309356.9844                   24309360.4384
   -997406.23448   -734999.89145  21867578.8364                   21867578.9264
   7316465.00046   5747847.47343  24274982.1174   24274983.8284   20912209.86747
  16353311.79745                  22094613.4224                   22094614.2384
  49142792.93446  38335605.88743  24626934.9064                   24626934.3954
  -9267387.28948  -7197414.88346  21286909.9304                   21286907.6334
  -3132763.38346  -2405082.81643  23578963.8524                   23578964.7194
 11  8 11 21 29 30.0000000  0  7G07G08G26G04G20G28G24
  18716827.37947  14607265.82444  24305326.4774                   24305330.1644
  -1036935.09448   -765801.67645  21860057.0234                   21860056.8954
   7254270.42247   5699384.06643  24263146.6334   24263148.5124   20677869.91047
  16170709.30545                  22050020.0944                   22050020.6294
  48966351.56346  38198119.16843  24593358.1094                   24593358.9224
  -9408685.54348  -7307517.41846  21260021.8284                   21260019.3014
  -3181851.42646  -2443333.25043  23569623.4304                   23569623.5944
 11  8 11 21 30  0.0000000  0  7G07G08G26G04G20G28G24
  18695928.64847  14590980.81344  24301349.6024                   24301353.8364
  -1075890.71147   -796156.78545  21852643.5784                   21852643.9414
   7192439.50446   5651203.98843  24251380.5164   24251382.5984   20444011.59047
  15988482.11345                  22005517.8134                   22005518.8404
  48790378.26246  38060997.19543  24559871.7194                   24559872.0554
  -9549607.65248  -7417326.87546  21233205.2974                   21233202.4264
  -3230416.37546  -2481176.17643  23560382.0084                   23560381.9574
 11  8 11 21 30 30.0000000  0  7G07G08G26G04G20G28G24
  18675313.89147  14574917.04743  24297427.7274                   24297431.0944
  -1114269.31647   -826062.26645  21845340.5474                   21845340.7814
   7130975.77747   5603310.05544  24239684.4304   24239687.6294   20210644.78947
  15806637.91845                  21961110.0234                   21961110.4694
  48614882.56346  37924247.34443  24526476.2814                   24526476.4884
  -9690145.32048  -7526836.75446  21206461.5394                   21206459.1844
  -3278453.83646  -2518607.98043  23551240.7274                   23551240.8524
 11  8 11 21 31  0.0000000  0  7G07G08G26G04G20G28G24
  18654982.75446  14559074.27343  24293559.3524                   24293562.6604
  -1152071.55948   -855518.64845  21838147.2274                   21838147.1844
   7069878.20747   5555701.45744  24228057.9064   24228060.9384   19977774.24247
  15625180.43445                  21916796.0864                   21916796.5984
  48439869.13746  37787873.27743  24493172.1724                   24493172.7114
  -9830294.94148  -7636044.27746  21179792.2814                   21179789.6644
  -3325964.58247  -2555629.35543  23542199.8984                   23542199.2974
 11  8 11 21 31 30.0000000  0  7G07G08G26G04G20G28G24
  18634940.55946  14543456.68843  24289745.2034                   24289749.1254
  -1189292.12147   -884521.77045  21831064.4614                   21831064.6414
   7009151.27747   5508381.64143  24216502.0704   24216504.7774   19745410.71147
  15444118.02345                  21872578.9924                   21872579.2424
  48265348.41846  37651883.15643  24459962.0234                   24459962.3204
  -9970047.13748  -7744942.09846  21153198.2034                   21153195.8984
  -3372943.12547  -2592236.03143  23533260.8364                   23533259.1294
 11  8 11 21 32  0.0000000  0  7G07G08G26G04G20G28G24
  18615196.68046  14528071.56643  24285988.0474                   24285992.3954
  -1225921.81248   -913064.47345  21824094.6094                   21824094.2464
   6948803.53946   5461357.28543  24205018.8204   24205021.0084   19513568.71947
  15263462.00045                  21828460.5474                   21828460.8914
  48091334.65246  37516288.06343  24426848.8364                   24426848.7894
 -10109388.66448  -7853519.92646  21126682.6174                   21126679.7894
  -3419380.32447  -2628420.88343  23524424.0784                   23524423.0944
 11  8 11 21 32 30.0000000  0  7G07G08G26G04G20G28G24
  18595749.43046  14512917.52043  24282287.7194                   24282291.9924
  -1261962.62947   -941148.32045  21817235.5554                   21817235.7304
   6888832.78547   5414626.71943  24193606.3284   24193609.0234   19282252.20747
  15083215.43445                  21784442.6174                   21784442.6884
  47917831.29746  37381090.67243  24393831.7814                   24393832.4024
 -10248317.42648  -7961776.11746  21100245.3674                   21100242.8134
  -3465277.84447  -2664185.21544  23515689.5704                   23515689.4304
 11  8 11 21 33  0.0000000  0  7G07G08G26G04G20G28G24
  18576587.62546  14497986.01643  24278641.1484                   24278645.6644
  -1297425.74247   -968781.99645  21810487.5084                   21810487.8984
   6829227.27047   5368180.74243  24182264.5704   24182266.0164   19051455.29347
  14903373.75445                  21740523.2664                   21740523.7934
  47744832.40646  37246286.44943  24360911.1334                   24360911.1994
 -10386840.33248  -8069716.04346  21073884.9694                   21073882.8284
  -3510646.71547  -2699537.64544  23507056.3594                   23507056.4024
 11  8 11 21 33 30.0000000  0  7G07G08G26G04G20G28G24
  18557711.11746  14483276.70343  24275049.0084                   24275054.1254
  -1332311.82047   -995966.04745  21803849.1484                   21803849.0274
   6769985.91447   5322018.52743  24170991.3204   24170993.6724   18821183.25047
  14723941.07045                  21696703.6334                   21696704.1524
  47572342.77746  37111878.94943  24328087.7734                   24328087.1374
 -10524953.50848  -8177336.71546  21047603.5394                   21047600.6094
  -3555487.51247  -2734478.58644  23498523.5864                   23498523.8484
 11  8 11 21 34  0.0000000  0  7G07G08G26G04G20G28G24
  18539113.87946  14468785.01643  24271510.5864                   24271515.4384
  -1366626.57847  -1022704.91045  21797318.8204                   21797319.2544
   6711102.27047   5276135.03944  24159785.9304   24159788.4614   18591435.55147
  14544916.95345                  21652983.9694                   21652984.6334
  47400361.59846  36977867.68843  24295360.2664                   24295360.4534
 -10662659.19948  -8284639.85546  21021398.3674                   21021395.6954
  -3599806.09847  -2769012.59844  23490089.5474                   23490090.2974
 11  8 11 21 34 30.0000000  0  7G07G08G26G04G20G28G24
  20096214.90246  15682110.23043  24567817.4694                   24567821.6134
    175049.02347    178600.66045  22090689.9924                   22090690.3914
   8227995.64847   6458129.74244  24448441.8524   24448443.3914   19937643.24647
  15593910.02045                  21909159.0474                   21909159.0594
  48804317.99246  38071859.68443  24562524.3594                   24562524.2464
  -9224530.24248  -7164019.89846  21295065.5784                   21295062.8634
  -2068182.76646  -1575539.93744  23781547.9454                   23781548.9964
 11  8 11 21 35  0.0000000  0  7G07G08G26G04G20G28G24
  20078156.82046  15668038.68044  24564381.1884                   24564385.8914
    141856.28547    152736.10245  22084373.8674                   22084374.1684
   8169805.47747   6412786.62143  24437368.5634   24437370.5474   19708940.34047
  15415700.03145                  21865638.2814                   21865638.4414
  48633349.54346  37938637.56643  24529989.8754                   24529990.3874
  -9361427.72348  -7270693.27746  21269014.8524                   21269012.5004
  -2111476.47346  -1609275.38344  23773309.6484                   23773310.4414
 11  8 11 21 35 30.0000000  0  7G07G08G26G04G20G28G24
  20060350.77346  15654163.52744  24560993.3984                   24560998.4694
    109206.62547    127294.71545  22078161.2034                   22078161.6724
   8111943.64847   6367699.34044  24426356.9384   24426360.1334   19480750.53547
  15237889.85545                  21822215.3364                   21822215.4804
  48462877.41046  37805802.18043  24497550.2274                   24497550.2194
  -9497932.66448  -7377060.78146  21243038.5784                   21243035.8984
  -2154275.21946  -1642625.11743  23765165.0234                   23765166.0634
 11  8 11 21 36  0.0000000  0  7G07G08G26G04G20G28G24
  20042786.82047  15640476.98044  24557651.1414                   24557656.2304
     77090.12147    102268.77045  22072049.3984                   22072049.6134
   8054399.82047   6322859.87943  24415407.3754   24415410.4454   19253069.26647
  15060475.94545                  21778889.0634                   21778888.9224
  48292897.06646  37673350.02043  24465204.4144                   24465203.6684
  -9634051.09448  -7483127.10246  21217135.9694                   21217133.6844
  -2196588.94146  -1675596.96143  23757113.1954                   23757114.0984
 11  8 11 21 36 30.0000000  0  7G07G08G26G04G20G28G24
  20025449.95347  15626967.41444  24554352.5004                   24554357.3874
     45491.67647     77646.51245  22066036.4144                   22066037.2584
   7997158.04747   6278255.76243  24404515.1334   24404517.8324   19025887.00447
  14883450.85945                  21735657.4614                   21735657.6994
  48123398.40246  37541273.23043  24432949.8134                   24432949.2234
  -9769793.91848  -7588900.74646  21191305.3754                   21191302.8204
  -2238433.01646  -1708202.82043  23749150.1564                   23749151.6454
 11  8 11 21 37  0.0000000  0  7G07G08G26G04G20G28G24
  20008333.66447  15613629.70744  24551096.1094                   24551100.6684
     14404.33247     53422.51645  22060121.0634                   22060121.2814
   7940211.04747   6233881.32844  24393678.5084   24393680.6914   18799202.16047
  14706813.38345                  21692520.5634                   21692521.0164
  47954379.70746  37409570.44943  24400785.6724                   24400786.4774
  -9905163.73848  -7694383.73446  21165545.2734                   21165542.7464
  -2279814.00046  -1740447.81644  23741275.5634                   23741277.0004
 11  8 11 21 37 30.0000000  0  7G07G08G26G04G20G28G24
  19991426.98046  15600455.29744  24547879.3284                   24547883.8554
    -16183.44947     29587.78545  22054300.5634                   22054300.8244
   7883547.48447   6189727.75443  24382895.7344   24382898.8444   18573009.62147
  14530559.52045                  21649477.5004                   21649477.6994
  47785835.06646  37278236.98043  24368712.6254                   24368713.1414
 -10040167.62548  -7799581.58246  21139854.5554                   21139852.1174
  -2320742.87547  -1772340.52044  23733487.1484                   23733488.2074
 11  8 11 21 38  0.0000000  0  7G07G08G26G04G20G28G24
  19974725.62946  15587440.86343  24544700.3594                   24544706.1604
    -46276.57847      6138.50045  22048573.9064                   22048574.5744
   7827161.71146   6145790.65643  24372166.4144   24372168.7194   18347309.44547
  14354689.32445                  21606528.0864                   21606528.5554
  47617764.86746  37147273.20343  24336730.2424                   24336730.0704
 -10174806.06648  -7904494.66846  21114234.0944                   21114231.2734
  -2361224.41847  -1803884.62543  23725784.5004                   23725784.4384
 11  8 11 21 38 30.0000000  0  6G08G26G04G20G28G24
    -75890.30147    -16937.23045  22042938.4064                   22042938.9024
   7771038.10546   6102057.82443  24361486.7114   24361488.3404   18122092.06647
  14179195.33645                  21563670.2894                   21563670.9264
  47450159.12546  37016671.37543  24304836.3834                   24304836.6174
 -10309089.73847  -8009131.30546  21088680.7194                   21088678.0394
  -2401273.57046  -1835091.82844  23718163.1644                   23718163.9454
 11  8 11 21 39  0.0000000  0  6G08G26G04G20G28G24
   -105031.96547    -39645.10545  22037393.3834                   22037393.8874
   7715168.70746   6058523.09843  24350855.0084   24350857.2194   17897355.51648
  14004076.01645                  21520904.5084                   21520905.3134
  47283015.34846  36886429.51643  24273029.1414                   24273030.3054
 -10443022.27748  -8113494.34046  21063194.6804                   21063191.4024
  -2440897.96147  -1865968.03543  23710623.2664                   23710623.3244
 11  8 11 21 39 30.0000000  0  6G08G26G04G20G28G24
   -133702.36747    -61985.77745  22031937.8524                   22031937.8674
   7659552.59846   6015185.74243  24340270.9064   24340274.0004   17673104.90248
  13829335.34845                  21478231.2274                   21478230.9924
  47116338.16046  36756551.21142  24241312.4304                   24241312.2934
 -10576600.06247  -8217580.94146  21037775.0554                   21037772.7074
  -2480097.99247  -1896513.52043  23703163.9064                   23703164.0394
 11  8 11 21 40  0.0000000  0  6G08G26G04G20G28G24
   -161905.23047    -83962.13745  22026570.9454                   22026571.0634
   7604185.73846   5972042.61743  24329735.5634   24329738.3914   17449342.01647
  13654974.73045                  21435650.4774                   21435650.7624
  46950129.50846  36627038.04743  24209683.5314                   24209683.4344
 -10709822.55547  -8321390.69146  21012423.7194                   21012421.4064
  -2518876.95747  -1926730.92643  23695784.2274                   23695783.9614
 11  8 11 21 40 30.0000000  0  6G08G26G04G20G28G24
   1385770.01647   1122018.47745  22321083.9064                   22321084.3524
   9124479.34446   7156686.81643  24619039.0084   24619040.6024   18801489.65648
  14708596.34445                  21692955.6954                   21692955.6804
  48359809.44946  37725489.94143  24477936.2974                   24477937.0274
  -9267270.86348  -7197324.44946  21286932.4384                   21286929.8324
   -981823.53946   -729026.97743  23988275.7974                   23988276.5394
 11  8 11 21 41  0.0000000  0  6G08G26G04G20G28G24
   1358475.71547   1100750.08645  22315889.6804                   22315890.1764
   9069583.40246   7113910.60943  24608591.1094                   24608594.6954
  18578692.69548  14534988.39145  21650558.5084                   21650558.8164
  48194526.55946  37596698.09442  24446483.8914                   24446485.0634
  -9399795.75048  -7300590.60246  21261713.7114                   21261710.8484
  -1019786.25847   -758608.35943  23981051.6024                   23981052.6454
 11  8 11 21 41 30.0000000  0  6G08G26G04G20G28G24
   1331626.93047   1079828.85945  22310780.5474                   22310781.7154
   9014913.66046   7071310.65643  24598188.4144                   24598191.4494
  18356378.01648  14361756.23445  21608253.5474                   21608253.8244
  48029705.79745  37468266.38342  24415119.7894                   24415120.4964
  -9531974.23448  -7403586.83246  21236561.1564                   21236558.3954
  -1057349.34046   -787878.32843  23973903.6724                   23973904.2344
 11  8 11 21 42  0.0000000  0  6G08G26G04G20G28G24
   1305210.28947   1059244.37145  22305754.2344                   22305754.5704
   8960456.68446   7028876.47743  24587825.4144                   24587828.5864
  18134538.16048  14188894.07045  21566039.2114                   21566039.2464
  47865338.91045  37340188.32442  24383841.3754                   24383842.6414
  -9663815.19948  -7506320.05946  21211472.3594                   21211469.4534
  -1094525.64546   -816846.95343  23966829.2424                   23966830.7114
 11  8 11 21 42 30.0000000  0  6G08G26G04G20G28G24
   1279214.54747   1038987.84845  22300807.2114                   22300807.7974
   8906200.82846   6986599.03143  24577501.2974                   24577504.5124
  17913167.52748  14016397.53945  21523913.3524                   21523913.5004
  47701419.97745  37212459.34442  24352648.5634                   24352649.6764
  -9795325.30948  -7608795.46946  21186447.1024                   21186444.3594
  -1131326.27746   -845522.87943  23959826.7664                   23959827.1094
 11  8 11 21 43  0.0000000  0  6G08G26G04G20G28G24
   1253631.33647   1019052.77345  22295939.2034                   22295939.7234
   8852137.29346   6944471.43443  24567213.0634                   24567216.4064
  17692262.90248  13844264.14146  21481876.0634                   21481876.3554
  47537945.87945  37085077.01642  24321541.1804                   24321541.1954
  -9926509.09848  -7711016.62146  21161483.7974                   21161480.8284
  -1167759.80546   -873912.73443  23952893.6484                   23952894.4734
 11  8 11 21 43 30.0000000  0  6G08G26G04G20G28G24
   1228448.37947    999429.57845  22291146.5234                   22291147.7154
   8798253.72346   6902484.05143  24556959.4924                   24556963.4104
  17471818.02748  13672488.96945  21439927.2584                   21439927.1454
  47374909.50045  36958035.71942  24290515.7894                   24290516.6524
 -10057374.25848  -7812989.49246  21136580.8134                   21136577.9694
  -1203837.85546   -902025.57444  23946028.0704                   23946029.4804
 11  8 11 21 44  0.0000000  0  6G08G26G04G20G28G24
   1203662.44147    980115.75445  22286430.4304                   22286431.4774
   8744546.24246   6860633.89143  24546738.9224                   24546743.3714
  17251834.96148  13501073.65645  21398065.6334                   21398065.7544
  47212312.90245  36831337.15642  24259574.4144                   24259575.6024
 -10187919.57848  -7914713.12946  21111738.6254                   21111736.1604
  -1239563.36346   -929863.70743  23939229.6254                   23939231.2464
 11  8 11 21 44 30.0000000  0  6G08G26G04G20G28G24
   1179260.95747    961101.50445  22281787.0634                   22281787.8874
   8691002.58246   6818911.36343  24536551.1484                   24536554.5084
  17032306.94548  13330012.93445  21356291.0704                   21356290.9494
  47050148.75845  36704975.53943  24228716.1564                   24228716.8524
 -10318153.13748  -8016193.84846  21086956.2424                   21086953.1954
  -1274948.51646   -957436.59443  23932496.1254                   23932496.7584
 11  8 11 21 45  0.0000000  0  6G08G26G04G20G28G24
   1155235.16847    942379.99245  22277215.3834                   22277216.2274
   8637613.84447   6777309.54743  24526391.2974                   24526394.7814
  16813231.06648  13159304.52745  21314602.1644                   21314602.4924
  46888413.76256  36578948.30152  24197939.2814                   24197940.0004
 -10448079.05948  -8117434.84446  21062232.3204                   21062229.5554
  -1310001.69547   -984750.83244  23925826.3364                   23925827.2464
 11  8 11 21 45 30.0000000  0  6G08G26G04G20G28G24
   1131578.52047    923946.13745  22272713.8674                   22272714.5744
   8584372.66447   6735822.74643  24516259.9224                   24516263.4384
  16594605.86748  12988947.30146  21272999.1334                   21272999.1844
  46727106.27745  36453254.21543  24167242.0784                   24167243.2934
 -10577700.17248  -8218438.33646  21037565.9534                   21037563.3404
  -1344729.55546  -1011811.57044  23919217.4694                   23919217.9614
 11  8 11 21 46  0.0000000  0  7G09G08G26G04G20G28G24
  54710455.34056  42685902.78152  24033268.1884                   24033269.1214
   1108277.34847    905789.27044  22268279.7584                   22268280.4104
   8531265.08647   6694440.04343  24506154.2424                   24506157.6764
  16376422.93448  12818934.69146  21231480.3134                   21231480.4774
  46566217.63746  36327886.48443  24136626.2584                   24136626.6644
 -10707025.57448  -8319211.37946  21012956.2114                   21012953.5664
  -1379145.59046  -1038629.32443  23912668.3834                   23912669.6054
 11  8 11 21 46 30.0000000  0  7G09G08G26G04G20G28G24
  56054052.69546  43732861.79342  24288946.5554                   24288946.9804
   2660741.01247   2115501.09045  22563703.8674                   22563704.4534
  10053701.47746   7880753.89843  24795863.9454                   24795867.8324
  17734103.89848  13876867.98046  21489838.6484                   21489838.5124
  47981167.33645  37430444.76643  24405883.8984                   24405883.1684
  -9260638.03148  -7192156.17246  21288194.6254                   21288192.2234
    162160.46947    162388.36344  24205969.5704                   24205969.9344
 11  8 11 21 47  0.0000000  0  7G09G08G26G04G20G28G24
  55822558.43446  43552476.70342  24244894.6094                   24244895.0004
   2638108.59047   2097865.30545  22559397.0554                   22559398.0314
  10000819.02346   7839546.62543  24785801.0234                   24785804.9964
  17516780.71548  13707525.30146  21448482.8914                   21448482.8484
  47821090.22346  37305709.41843  24375421.0314                   24375421.3674
  -9389400.92648  -7292490.91446  21263691.4924                   21263689.4024
    128327.08246    136024.59843  24199531.1724                   24199531.5164
 11  8 11 21 47 30.0000000  0  7G09G08G26G04G20G28G24
  55591397.63346  43372351.43842  24200906.6254                   24200906.8874
   2615792.07847   2080475.69145  22555150.4924                   22555151.3054
   9948030.24646   7798412.31343  24775756.5394                   24775759.6414
  17299877.30548  13538509.71946  21407207.7734                   21407207.7234
  47661408.31346  37181282.01243  24345035.2344                   24345035.0514
  -9517894.02347  -7392615.41846  21239240.6884                   21239238.0274
     94766.97746    109873.82043  24193145.3054                   24193145.2424
 11  8 11 21 48  0.0000000  0  7G09G08G26G04G20G28G24
  55360564.65246  43192481.62542  24156978.4924                   24156980.9924
   2593779.58247   2063322.96544  22550962.1334                   22550962.5554
   9895323.29346   7757341.76243  24765725.4774                   24765730.5784
  17083387.42648  13369816.35946  21366010.7424                   21366011.1684
  47502115.02746  37057157.36743  24314722.6094                   24314722.3634
  -9646124.94948  -7492535.63746  21214839.0164                   21214836.5704
     61469.09846     83927.36743  24186808.5554                   24186809.1524
 11  8 11 21 48 30.0000000  0  7G09G08G26G04G20G28G24
  55130056.52346  43012864.96543  24113114.5704                   24113116.5044
   2572062.57847   2046400.50445  22546829.1414                   22546829.8874
   9842689.18446   7716327.98443  24755711.1414                   24755714.6454
  16867307.87148  13201442.73846  21324892.4924                   21324891.9184
  47343206.39546  36933332.54343  24284482.4064                   24284482.6524
  -9774098.00848  -7592254.92246  21190486.6024                   21190483.6524
     28424.78946     58178.54343  24180519.9534                   24180520.2384
 11  8 11 21 49  0.0000000  0  7G09G08G26G04G20G28G24
  54899869.27746  42833498.34843  24069312.3284                   24069313.1054
   2550630.99247   2029700.43044  22542750.9064                   22542751.8324
   9790117.82846   7675363.10543  24745707.2344                   24745710.8364
  16651634.15648  13033385.34046  21283850.8674                   21283850.3524
  47184677.75046  36809803.78643  24254315.3594                   24254315.7114
  -9901818.89848  -7691777.70746  21166182.2114                   21166179.8444
     -4375.86346     32619.53143  24174278.7504                   24174279.6484
 11  8 11 21 49 30.0000000  0  7G09G08G26G04G20G28G24
  54669997.59446  42654377.57843  24025569.3754                   24025569.8984
   2529473.14547   2013213.66844  22538724.5784                   22538725.5554
   9737597.30546   7634437.85243  24735712.8134                   24735716.3754
  16436359.98048  12865639.28146  21242885.5234                   21242885.6804
  47026522.46146  36686565.95743  24224219.3364                   24224219.3554
 -10029294.85248  -7791109.62546  21141924.0234                   21141921.8794
    -36944.20346      7241.50042  24168081.0394                   24168081.5274
 11  8 11 21 50  0.0000000  0  7G09G08G26G04G20G28G24
  54440431.25046  42475494.73443  23981884.0314                   23981884.7464
   2508572.87547   1996927.61344  22534747.8674                   22534748.6524
   9685111.68446   7593539.75843  24725725.7114                   24725729.1954
  16221474.95348  12698196.46146  21201994.3054                   21201994.3204
  46868729.89146  36563610.77743  24194193.3134                   24194192.2774
 -10156537.48448  -7890259.73446  21117710.8284                   21117708.3554
    -69295.78946    -17967.60243  24161923.8594                   24161925.2854
 11  8 11 21 50 30.0000000  0  7G09G08G26G04G20G28G24
  54211162.13747  42296843.50443  23938256.2344                   23938255.1994
   2487915.89847   1980831.13344  22530817.0234                   22530817.9264
   9632646.37146   7552657.50043  24715741.6724                   24715745.2704
  16006970.29348  12531050.03545  21161175.0394                   21161175.1254
  46711290.64146  36440930.93043  24164233.6804                   24164233.3834
 -10283556.63348  -7989235.71546  21093539.8364                   21093537.6564
   -101444.60246    -43018.69543  24155807.6094                   24155808.5474
 11  8 11 21 51  0.0000000  0  7G09G08G26G04G20G28G24
  53982192.12946  42118425.37143  23894683.8204                   23894684.2194
   2467498.32447   1964921.18444  22526931.0704                   22526932.6994
   9580196.95346   7511787.62543  24705760.8674                   24705764.5004
  15792847.46148  12364201.12946  21120428.8054                   21120428.9774
  46554205.88346  36318527.25043  24134340.6644                   24134341.1524
 -10410351.80148  -8088037.16046  21069411.6414                   21069409.0784
   -133394.30946    -67914.61743  24149727.5944                   24149728.1994
 11  8 11 21 51 30.0000000  0  7G09G08G26G04G20G28G24
  53753533.42246  41940249.80544  23851171.3984                   23851172.1294
   2447326.09847   1949202.41844  22523092.7584                   22523094.6844
   9527769.65646   7470934.99243  24695784.3524                   24695788.5514
  15579118.02348  12197658.77346  21079757.5554                   21079757.5004
  46397486.70346  36196408.44143  24104518.5944                   24104518.1954
 -10536912.58248  -8186655.96546  21045327.7504                   21045325.2704
   -165138.55146    -92650.48043  24143686.5474                   24143688.1604
 11  8 11 21 52  0.0000000  0  8G09G02G08G26G04G20G28G24
  53525188.23046  41762318.52344  23807718.9614                   23807720.0204
  56283618.78556  43911892.45753  24598000.9534                   24598004.9654
   2427394.87147   1933671.44544  22519300.6804                   22519301.6914
   9475360.07446   7430096.17243  24685810.6884                   24685815.3794
  15365783.05948  12031423.79746  21039161.5084                   21039161.4494
  46241134.02346  36074575.23043  24074765.7664                   24074764.9614
 -10663238.87148  -8285092.05546  21021288.7424                   21021286.0514
   -196681.10546   -117229.17644  24137685.0554                   24137685.6334
 11  8 11 21 52 30.0000000  0  8G09G02G08G26G04G20G28G24
  54872580.99646  42812235.01244  24064119.7114                   24064120.7384
  57625853.30947  44957789.89844  24853420.1804                   24853423.2194
   3983116.27047   3145921.74244  22815344.0864                   22815345.7464
  10998380.89846   8616865.42643  24975632.8134                   24975636.4844
  16728266.51248  13093099.28546  21298433.1564                   21298432.6994
  47660569.39846  37180628.78943  24344874.9144                   24344873.9804
  -9213910.84048  -7155745.56246  21297086.8984                   21297084.2664
   1347390.59446   1085943.50844  24431511.5634                   24431512.7114
 11  8 11 21 53  0.0000000  0  8G09G02G08G26G04G20G28G24
  54644852.71946  42634784.45744  24020784.3594                   24020784.8244
  57392683.49247  44776099.52744  24809049.0314                   24809052.1254
   3963639.65647   3130744.99644  22811638.3914                   22811639.4734
  10945978.87146   8576032.39543  24965661.6804                   24965665.3284
  16515709.80548  12927470.74246  21257984.9774                   21257984.9574
  47504937.44146  37059357.15243  24315259.0084                   24315258.6334
  -9339782.03148  -7253827.02046  21273134.2114                   21273131.7384
   1316224.91446   1061658.49644  24425581.2114                   24425582.4144
 11  8 11 21 53 30.0000000  0  8G09G02G08G26G04G20G28G24
  54417433.49646  42457574.75043  23977507.6024                   23977508.0704
  57159538.17247  44594428.20743  24764682.5084                   24764685.6174
   3944381.88347   3115738.77344  22807973.9144                   22807975.3794
  10893571.78546   8535195.48443  24955689.2034                   24955692.4064
  16303541.56348  12762144.89846  21217610.4384                   21217610.4774
  47349664.87946  36938365.59043  24285711.6414                   24285710.9304
  -9465427.83648  -7351732.87146  21249224.8594                   21249222.3164
   1285239.16846   1037513.71543  24419685.2584                   24419685.8554
 11  8 11 21 54  0.0000000  0  8G09G02G08G26G04G20G28G24
  54190331.60946  42280612.29343  23934292.0944                   23934291.6334
  56926424.69547  44412781.68444  24720322.1174                   24720325.8364
   3925344.78147   3100904.51244  22804351.6954                   22804352.8874
  10841162.21946   8494356.59443  24945715.4844                   24945720.0554
  16091769.85548  12597128.04346  21177311.9614                   21177311.7114
  47194759.28146  36817659.99643  24256234.2424                   24256234.1334
  -9590841.37948  -7449457.72746  21225359.2734                   21225356.4964
   1254436.42646   1013511.45743  24413822.9224                   24413824.6914
 11  8 11 21 54 30.0000000  0  8G09G02G08G26G04G20G28G24
  53963565.16846  42103911.26243  23891138.8364                   23891139.6414
  56693360.38347  44231173.43044  24675970.8834                   24675973.6994
   3906540.75847   3086251.85544  22800773.4064                   22800774.5744
  10788761.79346   8453524.85943  24935744.3364                   24935748.2034
  15880411.60548  12432433.35946  21137091.7734                   21137091.2704
  47040237.19146  36697253.20744  24226830.0784                   24226829.5784
  -9716006.25448  -7546988.82846  21201541.3834                   21201538.5354
   1223828.83646    989661.30943  24407998.9224                   24408000.2974
 11  8 11 21 55  0.0000000  0  8G09G02G08G26G04G20G28G24
  53737133.34446  41927470.92642  23848050.2424                   23848050.8364
  56460343.43047  44049602.04744  24631629.1174                   24631632.7624
   3887962.68447   3071775.27044  22797238.5784                   22797239.3164
  10736363.78946   8412694.98043  24925773.1724                   24925777.8014
  15669465.79348  12268060.04746  21096950.0314                   21096949.3484
  46886096.87546  36577143.92643  24197497.3834                   24197497.3364
  -9840925.06648  -7644328.18446  21177769.8364                   21177767.5314
   1193409.96146    965958.24643  24402210.5864                   24402212.1804
 11  8 11 21 55 30.0000000  0  8G09G02G08G26G04G20G28G24
  53511051.07446  41751302.97742  23805028.0784                   23805029.4924
  56227387.47346  43868078.21143  24587298.9774                   24587302.4494
   3869619.55147   3057481.74644  22793747.7974                   22793749.4454
  10683976.74247   8371873.69543  24915805.9694                   24915808.7154
  15458946.64548  12104019.19946  21056889.6804                   21056889.1524
  46732352.04346  36457342.81343  24168240.6804                   24168240.7234
  -9965584.43448  -7741465.37146  21154048.1564                   21154045.1094
   1163189.21546    942409.54743  24396459.9064                   24396461.4264
 11  8 11 21 56  0.0000000  0  8G09G02G08G26G04G20G28G24
  53285328.37546  41575415.16843  23762074.6484                   23762075.8054
  55994501.76646  43686609.02743  24542982.2344                   24542985.1414
   3851515.51647   3043374.51644  22790302.8054                   22790304.2704
  10631605.06346   8331064.31343  24905839.4224                   24905843.4024
  15248863.60948  11940318.18846  21016911.8284                   21016911.9774
  46579012.15246  36337857.18044  24139061.4844                   24139061.2664
 -10089975.52748  -7838393.51646  21130377.3284                   21130374.9024
   1133171.01646    919018.66043  24390747.5164                   24390748.4344
 11  8 11 21 56 30.0000000  0  8G09G02G08G26G04G20G28G24
  53059968.43846  41399810.08243  23719190.6954                   23719189.9264
  55761688.73446  43505196.54743  24498678.7504                   24498681.8444
   3833647.68847   3029451.35544  22786902.8134                   22786903.9534
  10579245.55146   8290264.50043  24895875.8524                   24895879.6884
  15039218.89548  11776958.72746  20977017.6024                   20977017.4344
  46426079.18446  36218688.67643  24109958.7424                   24109959.2154
 -10214097.07448  -7935111.61746  21106757.7584                   21106755.0124
   1103352.91846    895783.72343  24385073.5314                   24385073.8054
 11  8 11 21 57  0.0000000  0  8G09G02G08G26G04G20G28G24
  52834996.08647  41224506.97343  23676379.6644                   23676379.2544
  55528972.13346  43323859.19143  24454394.1414                   24454397.2344
   3816034.68047   3015726.74644  22783550.9534                   22783552.9304
  10526917.21946   8249488.94143  24885917.5704                   24885922.2704
  14830037.06348  11613959.96146  20937212.1024                   20937211.8134
  46273576.77746  36099855.66043  24080938.6094                   24080937.9804
 -10337925.90248  -8031601.62946  21083194.1334                   21083191.3014
   1073754.05146    872719.63343  24379440.5164                   24379440.9344
 11  8 11 21 57 30.0000000  0  8G09G02G08G26G04G20G28G24
  52610406.39547  41049502.07443  23633642.1334                   23633641.2194
  55296345.89146  43142592.21943  24410126.9614                   24410129.4844
   3798665.21547   3002191.91044  22780245.7894                   22780247.5784
  10474608.54746   8208728.71943  24875963.4924                   24875968.4964
  14621312.12948  11451317.21146  20897492.9224                   20897492.1994
  46121498.69146  35981353.27343  24051999.6094                   24051998.5984
 -10461468.89848  -8127868.90646  21059684.4384                   21059681.6334
   1044363.71546    849817.99643  24373847.7584                   24373849.5554
 11  8 11 21 58  0.0000000  0  8G09G02G08G26G04G20G28G24
  52386217.84047  40874809.72344  23590980.0164                   23590979.7384
  55063827.84447  42961409.54743  24365879.8364                   24365882.2624
   3781551.87547   2988856.64544  22776989.5784                   22776991.3364
  10422332.38746   8167993.80143  24866015.4454                   24866021.4224
  14413062.04748  11289044.47346  20857864.0474                   20857863.7934
  45969862.37146  35863195.16043  24023143.9144                   24023143.3204
 -10584708.91848  -8223900.09846  21036232.6254                   21036230.2624
   1015194.64147    827088.79743  24368298.0474                   24368298.9024
 11  8 11 21 58 30.0000000  0  8G09G02G08G26G04G20G28G24
  52162442.92647  40700439.67244  23548396.8754                   23548396.9574
  54831429.38346  42780320.10543  24321655.5474                   24321658.1024
   3764701.41047   2975726.22344  22773783.2114                   22773784.5474
  10370095.09046   8127289.19943  24856075.9774                   24856080.9224
  14205298.53548  11127150.89146  20818327.8674                   20818327.5164
  45818679.37946  35745390.25043  23994374.7114                   23994373.6024
 -10707634.85548  -8319686.55146  21012840.4924                   21012837.9344
    986254.14146    804537.73043  24362790.4924                   24362791.3874
 11  8 11 21 59  0.0000000  0  8G09G02G08G26G04G20G28G24
  53514517.06647  41754003.98044  23805688.3834                   23805688.0594
  56174584.94546  43826935.07043  24577249.3914                   24577251.6844
   5323536.07047   4190402.39144  23070419.4774                   23070420.7854
  11893320.16446   9314217.56643  25145936.1724                   25145941.0314
  15573455.77048  12193247.48046  21078679.4694                   21078679.3674
  47243381.31646  36855547.60943  24265486.7274                   24265485.8284
  -9254816.78948  -7187620.53546  21289302.7274                   21289300.1454
   2532965.13346   2009767.03943  24657119.4384                   24657120.5234
 11  8 11 21 59 30.0000000  0  8G09G02G08G26G04G20G28G24
  53291594.98046  41580298.50844  23763267.6094                   23763267.7344
  55942448.15246  43646049.49643  24533075.9304                   24533077.9694
   5307218.46547   4177687.16444  23067314.6564                   23067316.1884
  11841168.32046   9273579.57443  25136012.5084                   25136017.0824
  15366689.10248  12032130.64146  21039333.0314                   21039332.8524
  47093126.95346  36738466.30143  24236893.9454                   24236893.6724
  -9377094.19948  -7282901.64846  21266034.0234                   21266031.6414
   2504489.78146   1987578.37943  24651700.5004                   24651702.8204
 11  8 11 22  0  0.0000000  0  8G09G02G08G26G04G20G28G24
  53069113.66846  41406936.50044  23720930.8364                   23720931.0164
  55710455.18046  43465275.99643  24488928.4614                   24488930.6174
   5291172.40647   4165183.54744  23064261.2194                   23064262.8364
  11789064.07046   9232978.57443  25126097.5634                   25126102.3484
  15160434.14548  11871412.53946  21000084.0944                   21000083.6054
  46943349.39846  36621756.53943  24208392.4144                   24208391.6684
  -9499035.28948  -7377920.68046  21242829.6804                   21242827.4534
   2476252.90646   1965575.53543  24646328.1254                   24646329.5274
